Wetterdaten: Montag, 26.08.2019
Datum Zeit Temp. A. Feuchte A. Luftdruck Regen Wind Richtung Richtung Sonnenschein ET UV Solar Taupunkt Windchill Windböen
26.08.2019 00:00 15,1 °C 94 % 1017,5 hPa 0,0 mm 0,0 km/h (0 Bft) NW 321 ° 0 min 0,000 mm 0,0 UV-I 0 W/m² 14,1 °C 15,1 °C 0,0 km/h (0 Bft)
26.08.2019 00:01 15,1 °C 94 % 1017,5 hPa 0,0 mm 0,0 km/h (0 Bft) NW 321 ° 0 min 0,000 mm 0,0 UV-I 0 W/m² 14,1 °C 15,1 °C 0,0 km/h (0 Bft)
26.08.2019 00:03 15,1 °C 94 % 1017,5 hPa 0,0 mm 0,2 km/h (0 Bft) SW 229 ° 0 min 0,000 mm 0,0 UV-I 0 W/m² 14,1 °C 15,1 °C 1,6 km/h (1 Bft)
26.08.2019 00:04 15,1 °C 94 % 1017,6 hPa 0,0 mm 0,2 km/h (0 Bft) SW 229 ° 0 min 0,000 mm 0,0 UV-I 0 W/m² 14,1 °C 15,1 °C 1,6 km/h (1 Bft)
26.08.2019 00:05 15,1 °C 94 % 1017,6 hPa 0,0 mm 0,9 km/h (0 Bft) W-SW 249 ° 0 min 0,000 mm 0,0 UV-I 0 W/m² 14,1 °C 15,1 °C 3,2 km/h (1 Bft)
26.08.2019 00:06 15,1 °C 94 % 1017,5 hPa 0,0 mm 0,0 km/h (0 Bft) W-SW 249 ° 0 min 0,000 mm 0,0 UV-I 0 W/m² 14,1 °C 15,1 °C 0,0 km/h (0 Bft)
26.08.2019 00:07 15,1 °C 94 % 1017,5 hPa 0,0 mm 0,0 km/h (0 Bft) W-SW 249 ° 0 min 0,000 mm 0,0 UV-I 0 W/m² 14,1 °C 15,1 °C 0,0 km/h (0 Bft)
26.08.2019 00:08 15,1 °C 94 % 1017,5 hPa 0,0 mm 0,0 km/h (0 Bft) W-SW 249 ° 0 min 0,000 mm 0,0 UV-I 0 W/m² 14,1 °C 15,1 °C 0,0 km/h (0 Bft)
26.08.2019 00:09 15,1 °C 94 % 1017,5 hPa 0,0 mm 0,0 km/h (0 Bft) W-SW 249 ° 0 min 0,000 mm 0,0 UV-I 0 W/m² 14,1 °C 15,1 °C 0,0 km/h (0 Bft)
26.08.2019 00:10 15,1 °C 94 % 1017,5 hPa 0,0 mm 0,0 km/h (0 Bft) W-SW 249 ° 0 min 0,000 mm 0,0 UV-I 0 W/m² 14,1 °C 15,1 °C 0,0 km/h (0 Bft)
26.08.2019 00:11 15,0 °C 94 % 1017,5 hPa 0,0 mm 0,0 km/h (0 Bft) W-SW 249 ° 0 min 0,000 mm 0,0 UV-I 0 W/m² 14,0 °C 15,0 °C 0,0 km/h (0 Bft)
26.08.2019 00:12 15,0 °C 94 % 1017,5 hPa 0,0 mm 0,0 km/h (0 Bft) W-SW 249 ° 0 min 0,000 mm 0,0 UV-I 0 W/m² 14,0 °C 15,0 °C 0,0 km/h (0 Bft)
26.08.2019 00:13 14,9 °C 94 % 1017,5 hPa 0,0 mm 0,0 km/h (0 Bft) W-SW 249 ° 0 min 0,000 mm 0,0 UV-I 0 W/m² 13,9 °C 14,9 °C 0,0 km/h (0 Bft)
26.08.2019 00:14 14,9 °C 94 % 1017,5 hPa 0,0 mm 0,0 km/h (0 Bft) W-SW 249 ° 0 min 0,000 mm 0,0 UV-I 0 W/m² 13,9 °C 14,9 °C 0,0 km/h (0 Bft)
26.08.2019 00:15 14,9 °C 94 % 1017,5 hPa 0,0 mm 0,1 km/h (0 Bft) W-SW 254 ° 0 min 0,000 mm 0,0 UV-I 0 W/m² 13,9 °C 14,9 °C 1,6 km/h (1 Bft)
26.08.2019 00:16 14,9 °C 94 % 1017,5 hPa 0,0 mm 0,0 km/h (0 Bft) W-SW 254 ° 0 min 0,000 mm 0,0 UV-I 0 W/m² 13,9 °C 14,9 °C 0,0 km/h (0 Bft)
26.08.2019 00:17 14,9 °C 94 % 1017,5 hPa 0,0 mm 0,0 km/h (0 Bft) W-SW 254 ° 0 min 0,000 mm 0,0 UV-I 0 W/m² 13,9 °C 14,9 °C 0,0 km/h (0 Bft)
26.08.2019 00:18 14,9 °C 94 % 1017,5 hPa 0,0 mm 0,0 km/h (0 Bft) W-SW 254 ° 0 min 0,000 mm 0,0 UV-I 0 W/m² 13,9 °C 14,9 °C 0,0 km/h (0 Bft)
26.08.2019 00:19 14,9 °C 94 % 1017,5 hPa 0,0 mm 0,0 km/h (0 Bft) W-SW 254 ° 0 min 0,000 mm 0,0 UV-I 0 W/m² 13,9 °C 14,9 °C 0,0 km/h (0 Bft)
26.08.2019 00:20 14,9 °C 95 % 1017,5 hPa 0,0 mm 0,8 km/h (0 Bft) W 272 ° 0 min 0,000 mm 0,0 UV-I 0 W/m² 14,1 °C 14,9 °C 3,2 km/h (1 Bft)
26.08.2019 00:21 14,9 °C 95 % 1017,6 hPa 0,0 mm 0,5 km/h (0 Bft) W 272 ° 0 min 0,000 mm 0,0 UV-I 0 W/m² 14,1 °C 14,9 °C 1,6 km/h (1 Bft)
26.08.2019 00:22 14,9 °C 95 % 1017,6 hPa 0,0 mm 0,3 km/h (0 Bft) W 272 ° 0 min 0,000 mm 0,0 UV-I 0 W/m² 14,1 °C 14,9 °C 1,6 km/h (1 Bft)
26.08.2019 00:23 14,9 °C 95 % 1017,5 hPa 0,0 mm 0,0 km/h (0 Bft) W 273 ° 0 min 0,000 mm 0,0 UV-I 0 W/m² 14,1 °C 14,9 °C 0,0 km/h (0 Bft)
26.08.2019 00:24 14,9 °C 95 % 1017,5 hPa 0,0 mm 1,4 km/h (1 Bft) NW 311 ° 0 min 0,000 mm 0,0 UV-I 0 W/m² 14,1 °C 14,9 °C 4,8 km/h (1 Bft)
26.08.2019 00:25 14,9 °C 95 % 1017,6 hPa 0,0 mm 0,7 km/h (0 Bft) NW 311 ° 0 min 0,000 mm 0,0 UV-I 0 W/m² 14,1 °C 14,9 °C 3,2 km/h (1 Bft)
26.08.2019 00:26 14,9 °C 95 % 1017,6 hPa 0,0 mm 0,3 km/h (0 Bft) NW 311 ° 0 min 0,000 mm 0,0 UV-I 0 W/m² 14,1 °C 14,9 °C 1,6 km/h (1 Bft)
26.08.2019 00:27 14,8 °C 94 % 1017,5 hPa 0,2 mm 0,0 km/h (0 Bft) NW 311 ° 0 min 0,000 mm 0,0 UV-I 0 W/m² 13,8 °C 14,8 °C 0,0 km/h (0 Bft)
26.08.2019 00:28 14,8 °C 94 % 1017,5 hPa 0,0 mm 0,0 km/h (0 Bft) NW 311 ° 0 min 0,000 mm 0,0 UV-I 0 W/m² 13,8 °C 14,8 °C 0,0 km/h (0 Bft)
26.08.2019 00:29 14,9 °C 94 % 1017,6 hPa 0,0 mm 0,0 km/h (0 Bft) NW 311 ° 0 min 0,000 mm 0,0 UV-I 0 W/m² 13,9 °C 14,9 °C 0,0 km/h (0 Bft)
26.08.2019 00:30 14,8 °C 95 % 1017,6 hPa 0,0 mm 0,0 km/h (0 Bft) NW 311 ° 0 min 0,000 mm 0,0 UV-I 0 W/m² 14,0 °C 14,8 °C 0,0 km/h (0 Bft)
26.08.2019 00:31 14,8 °C 94 % 1017,6 hPa 0,0 mm 0,0 km/h (0 Bft) NW 311 ° 0 min 0,000 mm 0,0 UV-I 0 W/m² 13,8 °C 14,8 °C 0,0 km/h (0 Bft)
26.08.2019 00:32 14,8 °C 94 % 1017,6 hPa 0,0 mm 0,0 km/h (0 Bft) NW 311 ° 0 min 0,000 mm 0,0 UV-I 0 W/m² 13,8 °C 14,8 °C 0,0 km/h (0 Bft)
26.08.2019 00:33 14,8 °C 94 % 1017,6 hPa 0,0 mm 0,0 km/h (0 Bft) NW 311 ° 0 min 0,000 mm 0,0 UV-I 0 W/m² 13,8 °C 14,8 °C 0,0 km/h (0 Bft)
26.08.2019 00:34 14,8 °C 94 % 1017,5 hPa 0,0 mm 0,0 km/h (0 Bft) NW 311 ° 0 min 0,000 mm 0,0 UV-I 0 W/m² 13,8 °C 14,8 °C 0,0 km/h (0 Bft)
26.08.2019 00:35 14,8 °C 94 % 1017,5 hPa 0,0 mm 0,0 km/h (0 Bft) NW 311 ° 0 min 0,000 mm 0,0 UV-I 0 W/m² 13,8 °C 14,8 °C 0,0 km/h (0 Bft)
26.08.2019 00:36 14,8 °C 95 % 1017,5 hPa 0,0 mm 0,0 km/h (0 Bft) NW 311 ° 0 min 0,000 mm 0,0 UV-I 0 W/m² 14,0 °C 14,8 °C 0,0 km/h (0 Bft)
26.08.2019 00:37 14,8 °C 94 % 1017,6 hPa 0,0 mm 0,0 km/h (0 Bft) NW 311 ° 0 min 0,000 mm 0,0 UV-I 0 W/m² 13,8 °C 14,8 °C 0,0 km/h (0 Bft)
26.08.2019 00:38 14,7 °C 94 % 1017,6 hPa 0,0 mm 0,0 km/h (0 Bft) NW 311 ° 0 min 0,000 mm 0,0 UV-I 0 W/m² 13,7 °C 14,7 °C 0,0 km/h (0 Bft)
26.08.2019 00:39 14,8 °C 94 % 1017,5 hPa 0,0 mm 0,0 km/h (0 Bft) NW 311 ° 0 min 0,000 mm 0,0 UV-I 0 W/m² 13,8 °C 14,8 °C 0,0 km/h (0 Bft)
26.08.2019 00:40 14,8 °C 94 % 1017,6 hPa 0,0 mm 0,0 km/h (0 Bft) NW 311 ° 0 min 0,000 mm 0,0 UV-I 0 W/m² 13,8 °C 14,8 °C 0,0 km/h (0 Bft)
26.08.2019 00:41 14,7 °C 94 % 1017,6 hPa 0,0 mm 0,0 km/h (0 Bft) NW 311 ° 0 min 0,000 mm 0,0 UV-I 0 W/m² 13,7 °C 14,7 °C 0,0 km/h (0 Bft)
26.08.2019 00:42 14,7 °C 94 % 1017,5 hPa 0,0 mm 0,0 km/h (0 Bft) NW 311 ° 0 min 0,000 mm 0,0 UV-I 0 W/m² 13,7 °C 14,7 °C 0,0 km/h (0 Bft)
26.08.2019 00:43 14,7 °C 94 % 1017,5 hPa 0,0 mm 0,0 km/h (0 Bft) NW 311 ° 0 min 0,000 mm 0,0 UV-I 0 W/m² 13,7 °C 14,7 °C 0,0 km/h (0 Bft)
26.08.2019 00:44 14,7 °C 94 % 1017,5 hPa 0,0 mm 0,0 km/h (0 Bft) NW 311 ° 0 min 0,000 mm 0,0 UV-I 0 W/m² 13,7 °C 14,7 °C 0,0 km/h (0 Bft)
26.08.2019 00:45 14,7 °C 94 % 1017,6 hPa 0,0 mm 0,0 km/h (0 Bft) NW 311 ° 0 min 0,000 mm 0,0 UV-I 0 W/m² 13,7 °C 14,7 °C 0,0 km/h (0 Bft)
26.08.2019 00:46 14,6 °C 94 % 1017,5 hPa 0,0 mm 0,0 km/h (0 Bft) NW 311 ° 0 min 0,000 mm 0,0 UV-I 0 W/m² 13,6 °C 14,6 °C 0,0 km/h (0 Bft)
26.08.2019 00:47 14,7 °C 95 % 1017,5 hPa 0,0 mm 0,0 km/h (0 Bft) NW 311 ° 0 min 0,000 mm 0,0 UV-I 0 W/m² 13,9 °C 14,7 °C 0,0 km/h (0 Bft)
26.08.2019 00:48 14,7 °C 95 % 1017,6 hPa 0,0 mm 0,1 km/h (0 Bft) NW 311 ° 0 min 0,000 mm 0,0 UV-I 0 W/m² 13,9 °C 14,7 °C 1,6 km/h (1 Bft)
26.08.2019 00:49 14,6 °C 94 % 1017,5 hPa 0,0 mm 0,6 km/h (0 Bft) NW 311 ° 0 min 0,000 mm 0,0 UV-I 0 W/m² 13,6 °C 14,6 °C 3,2 km/h (1 Bft)
26.08.2019 00:50 14,6 °C 94 % 1017,5 hPa 0,0 mm 0,1 km/h (0 Bft) NW 311 ° 0 min 0,000 mm 0,0 UV-I 0 W/m² 13,6 °C 14,6 °C 1,6 km/h (1 Bft)
26.08.2019 00:51 14,6 °C 95 % 1017,5 hPa 0,0 mm 0,0 km/h (0 Bft) NW 311 ° 0 min 0,000 mm 0,0 UV-I 0 W/m² 13,8 °C 14,6 °C 0,0 km/h (0 Bft)
26.08.2019 00:52 14,6 °C 95 % 1017,5 hPa 0,0 mm 0,2 km/h (0 Bft) NW 311 ° 0 min 0,000 mm 0,0 UV-I 0 W/m² 13,8 °C 14,6 °C 1,6 km/h (1 Bft)
26.08.2019 00:53 14,5 °C 95 % 1017,5 hPa 0,0 mm 1,1 km/h (1 Bft) NW 311 ° 0 min 0,000 mm 0,0 UV-I 0 W/m² 13,7 °C 14,5 °C 4,8 km/h (1 Bft)
26.08.2019 00:54 14,5 °C 94 % 1017,5 hPa 0,0 mm 0,6 km/h (0 Bft) NW 311 ° 0 min 0,000 mm 0,0 UV-I 0 W/m² 13,5 °C 14,5 °C 3,2 km/h (1 Bft)
26.08.2019 00:55 14,6 °C 95 % 1017,5 hPa 0,0 mm 0,2 km/h (0 Bft) NW 311 ° 0 min 0,000 mm 0,0 UV-I 0 W/m² 13,8 °C 14,6 °C 1,6 km/h (1 Bft)
26.08.2019 00:56 14,6 °C 95 % 1017,5 hPa 0,0 mm 0,0 km/h (0 Bft) NW 311 ° 0 min 0,000 mm 0,0 UV-I 0 W/m² 13,8 °C 14,6 °C 0,0 km/h (0 Bft)
26.08.2019 00:57 14,6 °C 95 % 1017,5 hPa 0,0 mm 0,0 km/h (0 Bft) NW 311 ° 0 min 0,000 mm 0,0 UV-I 0 W/m² 13,8 °C 14,6 °C 0,0 km/h (0 Bft)
26.08.2019 00:58 14,6 °C 95 % 1017,5 hPa 0,0 mm 0,0 km/h (0 Bft) NW 311 ° 0 min 0,000 mm 0,0 UV-I 0 W/m² 13,8 °C 14,6 °C 0,0 km/h (0 Bft)
26.08.2019 00:59 14,6 °C 95 % 1017,5 hPa 0,0 mm 0,0 km/h (0 Bft) NW 311 ° 0 min 0,000 mm 0,0 UV-I 0 W/m² 13,8 °C 14,6 °C 0,0 km/h (0 Bft)
26.08.2019 01:00 14,6 °C 95 % 1017,5 hPa 0,0 mm 0,0 km/h (0 Bft) NW 311 ° 0 min 0,000 mm 0,0 UV-I 0 W/m² 13,8 °C 14,6 °C 0,0 km/h (0 Bft)
26.08.2019 01:01 14,6 °C 95 % 1017,5 hPa 0,0 mm 0,0 km/h (0 Bft) NW 311 ° 0 min 0,000 mm 0,0 UV-I 0 W/m² 13,8 °C 14,6 °C 0,0 km/h (0 Bft)
26.08.2019 01:02 14,6 °C 95 % 1017,5 hPa 0,0 mm 0,0 km/h (0 Bft) NW 311 ° 0 min 0,000 mm 0,0 UV-I 0 W/m² 13,8 °C 14,6 °C 0,0 km/h (0 Bft)
26.08.2019 01:03 14,6 °C 95 % 1017,5 hPa 0,0 mm 0,0 km/h (0 Bft) NW 311 ° 0 min 0,000 mm 0,0 UV-I 0 W/m² 13,8 °C 14,6 °C 0,0 km/h (0 Bft)
26.08.2019 01:04 14,6 °C 95 % 1017,5 hPa 0,0 mm 0,0 km/h (0 Bft) NW 311 ° 0 min 0,000 mm 0,0 UV-I 0 W/m² 13,8 °C 14,6 °C 0,0 km/h (0 Bft)
26.08.2019 01:05 14,6 °C 95 % 1017,5 hPa 0,0 mm 0,0 km/h (0 Bft) NW 311 ° 0 min 0,000 mm 0,0 UV-I 0 W/m² 13,8 °C 14,6 °C 0,0 km/h (0 Bft)
26.08.2019 01:06 14,6 °C 95 % 1017,5 hPa 0,0 mm 0,0 km/h (0 Bft) NW 311 ° 0 min 0,000 mm 0,0 UV-I 0 W/m² 13,8 °C 14,6 °C 0,0 km/h (0 Bft)
26.08.2019 01:07 14,6 °C 94 % 1017,5 hPa 0,0 mm 0,0 km/h (0 Bft) NW 311 ° 0 min 0,000 mm 0,0 UV-I 0 W/m² 13,6 °C 14,6 °C 0,0 km/h (0 Bft)
26.08.2019 01:08 14,5 °C 95 % 1017,5 hPa 0,0 mm 0,0 km/h (0 Bft) NW 311 ° 0 min 0,000 mm 0,0 UV-I 0 W/m² 13,7 °C 14,5 °C 0,0 km/h (0 Bft)
26.08.2019 01:09 14,6 °C 95 % 1017,5 hPa 0,0 mm 0,0 km/h (0 Bft) NW 311 ° 0 min 0,000 mm 0,0 UV-I 0 W/m² 13,8 °C 14,6 °C 0,0 km/h (0 Bft)
26.08.2019 01:10 14,6 °C 95 % 1017,5 hPa 0,0 mm 0,0 km/h (0 Bft) NW 311 ° 0 min 0,000 mm 0,0 UV-I 0 W/m² 13,8 °C 14,6 °C 0,0 km/h (0 Bft)
26.08.2019 01:11 14,5 °C 95 % 1017,5 hPa 0,0 mm 0,0 km/h (0 Bft) NW 311 ° 0 min 0,000 mm 0,0 UV-I 0 W/m² 13,7 °C 14,5 °C 0,0 km/h (0 Bft)
26.08.2019 01:12 14,5 °C 95 % 1017,5 hPa 0,0 mm 0,0 km/h (0 Bft) NW 311 ° 0 min 0,000 mm 0,0 UV-I 0 W/m² 13,7 °C 14,5 °C 0,0 km/h (0 Bft)
26.08.2019 01:13 14,5 °C 95 % 1017,5 hPa 0,0 mm 0,0 km/h (0 Bft) NW 311 ° 0 min 0,000 mm 0,0 UV-I 0 W/m² 13,7 °C 14,5 °C 0,0 km/h (0 Bft)
26.08.2019 01:14 14,4 °C 95 % 1017,6 hPa 0,0 mm 0,0 km/h (0 Bft) NW 311 ° 0 min 0,000 mm 0,0 UV-I 0 W/m² 13,6 °C 14,4 °C 0,0 km/h (0 Bft)
26.08.2019 01:15 14,4 °C 95 % 1017,6 hPa 0,0 mm 0,0 km/h (0 Bft) NW 311 ° 0 min 0,000 mm 0,0 UV-I 0 W/m² 13,6 °C 14,4 °C 0,0 km/h (0 Bft)
26.08.2019 01:16 14,4 °C 95 % 1017,6 hPa 0,0 mm 0,0 km/h (0 Bft) NW 311 ° 0 min 0,000 mm 0,0 UV-I 0 W/m² 13,6 °C 14,4 °C 0,0 km/h (0 Bft)
26.08.2019 01:17 14,4 °C 95 % 1017,6 hPa 0,0 mm 0,0 km/h (0 Bft) NW 311 ° 0 min 0,000 mm 0,0 UV-I 0 W/m² 13,6 °C 14,4 °C 0,0 km/h (0 Bft)
26.08.2019 01:18 14,4 °C 95 % 1017,6 hPa 0,0 mm 0,0 km/h (0 Bft) NW 311 ° 0 min 0,000 mm 0,0 UV-I 0 W/m² 13,6 °C 14,4 °C 0,0 km/h (0 Bft)
26.08.2019 01:19 14,4 °C 95 % 1017,5 hPa 0,0 mm 0,0 km/h (0 Bft) NW 311 ° 0 min 0,000 mm 0,0 UV-I 0 W/m² 13,6 °C 14,4 °C 0,0 km/h (0 Bft)
26.08.2019 01:20 14,3 °C 95 % 1017,5 hPa 0,0 mm 0,0 km/h (0 Bft) NW 311 ° 0 min 0,000 mm 0,0 UV-I 0 W/m² 13,5 °C 14,3 °C 0,0 km/h (0 Bft)
26.08.2019 01:21 14,3 °C 95 % 1017,6 hPa 0,0 mm 0,0 km/h (0 Bft) NW 311 ° 0 min 0,000 mm 0,0 UV-I 0 W/m² 13,5 °C 14,3 °C 0,0 km/h (0 Bft)
26.08.2019 01:22 14,3 °C 95 % 1017,6 hPa 0,2 mm 0,0 km/h (0 Bft) NW 311 ° 0 min 0,000 mm 0,0 UV-I 0 W/m² 13,5 °C 14,3 °C 0,0 km/h (0 Bft)
26.08.2019 01:23 14,3 °C 95 % 1017,5 hPa 0,0 mm 0,0 km/h (0 Bft) NW 311 ° 0 min 0,000 mm 0,0 UV-I 0 W/m² 13,5 °C 14,3 °C 0,0 km/h (0 Bft)
26.08.2019 01:24 14,3 °C 95 % 1017,6 hPa 0,0 mm 0,0 km/h (0 Bft) NW 311 ° 0 min 0,000 mm 0,0 UV-I 0 W/m² 13,5 °C 14,3 °C 0,0 km/h (0 Bft)
26.08.2019 01:25 14,3 °C 95 % 1017,5 hPa 0,0 mm 0,0 km/h (0 Bft) NW 311 ° 0 min 0,000 mm 0,0 UV-I 0 W/m² 13,5 °C 14,3 °C 0,0 km/h (0 Bft)
26.08.2019 01:26 14,3 °C 95 % 1017,5 hPa 0,0 mm 0,0 km/h (0 Bft) NW 311 ° 0 min 0,000 mm 0,0 UV-I 0 W/m² 13,5 °C 14,3 °C 0,0 km/h (0 Bft)
26.08.2019 01:27 14,3 °C 95 % 1017,5 hPa 0,0 mm 0,0 km/h (0 Bft) NW 311 ° 0 min 0,000 mm 0,0 UV-I 0 W/m² 13,5 °C 14,3 °C 0,0 km/h (0 Bft)
26.08.2019 01:28 14,3 °C 95 % 1017,5 hPa 0,0 mm 0,0 km/h (0 Bft) NW 311 ° 0 min 0,000 mm 0,0 UV-I 0 W/m² 13,5 °C 14,3 °C 0,0 km/h (0 Bft)
26.08.2019 01:29 14,3 °C 95 % 1017,5 hPa 0,0 mm 0,0 km/h (0 Bft) NW 311 ° 0 min 0,000 mm 0,0 UV-I 0 W/m² 13,5 °C 14,3 °C 0,0 km/h (0 Bft)
26.08.2019 01:30 14,3 °C 95 % 1017,5 hPa 0,0 mm 0,0 km/h (0 Bft) NW 311 ° 0 min 0,000 mm 0,0 UV-I 0 W/m² 13,5 °C 14,3 °C 0,0 km/h (0 Bft)
26.08.2019 01:31 14,2 °C 95 % 1017,5 hPa 0,0 mm 0,0 km/h (0 Bft) NW 311 ° 0 min 0,000 mm 0,0 UV-I 0 W/m² 13,4 °C 14,2 °C 0,0 km/h (0 Bft)
26.08.2019 01:32 14,2 °C 95 % 1017,4 hPa 0,0 mm 0,0 km/h (0 Bft) NW 311 ° 0 min 0,000 mm 0,0 UV-I 0 W/m² 13,4 °C 14,2 °C 0,0 km/h (0 Bft)
26.08.2019 01:33 14,2 °C 95 % 1017,4 hPa 0,0 mm 0,0 km/h (0 Bft) NW 311 ° 0 min 0,000 mm 0,0 UV-I 0 W/m² 13,4 °C 14,2 °C 0,0 km/h (0 Bft)
26.08.2019 01:34 14,2 °C 95 % 1017,5 hPa 0,0 mm 0,0 km/h (0 Bft) NW 311 ° 0 min 0,000 mm 0,0 UV-I 0 W/m² 13,4 °C 14,2 °C 0,0 km/h (0 Bft)
26.08.2019 01:35 14,2 °C 95 % 1017,5 hPa 0,0 mm 0,0 km/h (0 Bft) NW 311 ° 0 min 0,000 mm 0,0 UV-I 0 W/m² 13,4 °C 14,2 °C 0,0 km/h (0 Bft)
26.08.2019 01:36 14,2 °C 95 % 1017,5 hPa 0,0 mm 0,0 km/h (0 Bft) NW 311 ° 0 min 0,000 mm 0,0 UV-I 0 W/m² 13,4 °C 14,2 °C 0,0 km/h (0 Bft)
26.08.2019 01:37 14,2 °C 95 % 1017,5 hPa 0,0 mm 0,0 km/h (0 Bft) NW 311 ° 0 min 0,000 mm 0,0 UV-I 0 W/m² 13,4 °C 14,2 °C 0,0 km/h (0 Bft)
26.08.2019 01:38 14,2 °C 95 % 1017,5 hPa 0,0 mm 0,0 km/h (0 Bft) NW 311 ° 0 min 0,000 mm 0,0 UV-I 0 W/m² 13,4 °C 14,2 °C 0,0 km/h (0 Bft)
26.08.2019 01:39 14,2 °C 95 % 1017,5 hPa 0,0 mm 0,0 km/h (0 Bft) NW 311 ° 0 min 0,000 mm 0,0 UV-I 0 W/m² 13,4 °C 14,2 °C 0,0 km/h (0 Bft)
26.08.2019 01:40 14,2 °C 95 % 1017,4 hPa 0,0 mm 0,0 km/h (0 Bft) NW 311 ° 0 min 0,000 mm 0,0 UV-I 0 W/m² 13,4 °C 14,2 °C 0,0 km/h (0 Bft)
26.08.2019 01:41 14,2 °C 95 % 1017,4 hPa 0,0 mm 0,0 km/h (0 Bft) NW 311 ° 0 min 0,000 mm 0,0 UV-I 0 W/m² 13,4 °C 14,2 °C 0,0 km/h (0 Bft)
26.08.2019 01:42 14,2 °C 95 % 1017,4 hPa 0,0 mm 0,0 km/h (0 Bft) NW 311 ° 0 min 0,000 mm 0,0 UV-I 0 W/m² 13,4 °C 14,2 °C 0,0 km/h (0 Bft)
26.08.2019 01:43 14,3 °C 95 % 1017,4 hPa 0,0 mm 0,0 km/h (0 Bft) NW 311 ° 0 min 0,000 mm 0,0 UV-I 0 W/m² 13,5 °C 14,3 °C 0,0 km/h (0 Bft)
26.08.2019 01:44 14,3 °C 95 % 1017,4 hPa 0,0 mm 0,0 km/h (0 Bft) NW 311 ° 0 min 0,000 mm 0,0 UV-I 0 W/m² 13,5 °C 14,3 °C 0,0 km/h (0 Bft)
26.08.2019 01:45 14,3 °C 95 % 1017,4 hPa 0,0 mm 0,0 km/h (0 Bft) NW 311 ° 0 min 0,000 mm 0,0 UV-I 0 W/m² 13,5 °C 14,3 °C 0,0 km/h (0 Bft)
26.08.2019 01:46 14,3 °C 95 % 1017,4 hPa 0,0 mm 0,0 km/h (0 Bft) NW 311 ° 0 min 0,000 mm 0,0 UV-I 0 W/m² 13,5 °C 14,3 °C 0,0 km/h (0 Bft)
26.08.2019 01:47 14,3 °C 95 % 1017,5 hPa 0,0 mm 0,3 km/h (0 Bft) NW 311 ° 0 min 0,000 mm 0,0 UV-I 0 W/m² 13,5 °C 14,3 °C 1,6 km/h (1 Bft)
26.08.2019 01:48 14,3 °C 95 % 1017,5 hPa 0,0 mm 0,0 km/h (0 Bft) NW 311 ° 0 min 0,000 mm 0,0 UV-I 0 W/m² 13,5 °C 14,3 °C 0,0 km/h (0 Bft)
26.08.2019 01:49 14,4 °C 95 % 1017,4 hPa 0,2 mm 0,0 km/h (0 Bft) NW 311 ° 0 min 0,000 mm 0,0 UV-I 0 W/m² 13,6 °C 14,4 °C 0,0 km/h (0 Bft)
26.08.2019 01:50 14,4 °C 95 % 1017,4 hPa 0,0 mm 0,0 km/h (0 Bft) NW 311 ° 0 min 0,000 mm 0,0 UV-I 0 W/m² 13,6 °C 14,4 °C 0,0 km/h (0 Bft)
26.08.2019 01:51 14,3 °C 95 % 1017,4 hPa 0,0 mm 0,0 km/h (0 Bft) NW 311 ° 0 min 0,000 mm 0,0 UV-I 0 W/m² 13,5 °C 14,3 °C 0,0 km/h (0 Bft)
26.08.2019 01:52 14,3 °C 95 % 1017,4 hPa 0,0 mm 0,0 km/h (0 Bft) NW 311 ° 0 min 0,000 mm 0,0 UV-I 0 W/m² 13,5 °C 14,3 °C 0,0 km/h (0 Bft)
26.08.2019 01:53 14,4 °C 95 % 1017,4 hPa 0,0 mm 0,0 km/h (0 Bft) NW 311 ° 0 min 0,000 mm 0,0 UV-I 0 W/m² 13,6 °C 14,4 °C 0,0 km/h (0 Bft)
26.08.2019 01:54 14,4 °C 95 % 1017,4 hPa 0,0 mm 0,0 km/h (0 Bft) NW 311 ° 0 min 0,000 mm 0,0 UV-I 0 W/m² 13,6 °C 14,4 °C 0,0 km/h (0 Bft)
26.08.2019 01:55 14,3 °C 95 % 1017,4 hPa 0,0 mm 0,0 km/h (0 Bft) NW 311 ° 0 min 0,000 mm 0,0 UV-I 0 W/m² 13,5 °C 14,3 °C 0,0 km/h (0 Bft)
26.08.2019 01:56 14,3 °C 95 % 1017,5 hPa 0,0 mm 0,0 km/h (0 Bft) NW 311 ° 0 min 0,000 mm 0,0 UV-I 0 W/m² 13,5 °C 14,3 °C 0,0 km/h (0 Bft)
26.08.2019 01:57 14,3 °C 95 % 1017,5 hPa 0,0 mm 0,0 km/h (0 Bft) NW 311 ° 0 min 0,000 mm 0,0 UV-I 0 W/m² 13,5 °C 14,3 °C 0,0 km/h (0 Bft)
26.08.2019 01:58 14,3 °C 95 % 1017,4 hPa 0,0 mm 0,0 km/h (0 Bft) NW 311 ° 0 min 0,000 mm 0,0 UV-I 0 W/m² 13,5 °C 14,3 °C 0,0 km/h (0 Bft)
26.08.2019 01:59 14,3 °C 95 % 1017,5 hPa 0,0 mm 0,0 km/h (0 Bft) NW 311 ° 0 min 0,000 mm 0,0 UV-I 0 W/m² 13,5 °C 14,3 °C 0,0 km/h (0 Bft)
26.08.2019 02:00 14,3 °C 95 % 1017,5 hPa 0,0 mm 0,0 km/h (0 Bft) NW 311 ° 0 min 0,000 mm 0,0 UV-I 0 W/m² 13,5 °C 14,3 °C 0,0 km/h (0 Bft)
26.08.2019 02:01 14,3 °C 95 % 1017,4 hPa 0,0 mm 0,0 km/h (0 Bft) NW 311 ° 0 min 0,000 mm 0,0 UV-I 0 W/m² 13,5 °C 14,3 °C 0,0 km/h (0 Bft)
26.08.2019 02:02 14,2 °C 95 % 1017,4 hPa 0,0 mm 0,0 km/h (0 Bft) NW 311 ° 0 min 0,000 mm 0,0 UV-I 0 W/m² 13,4 °C 14,2 °C 0,0 km/h (0 Bft)
26.08.2019 02:03 14,2 °C 95 % 1017,4 hPa 0,0 mm 0,0 km/h (0 Bft) NW 311 ° 0 min 0,000 mm 0,0 UV-I 0 W/m² 13,4 °C 14,2 °C 0,0 km/h (0 Bft)
26.08.2019 02:04 14,2 °C 95 % 1017,4 hPa 0,0 mm 0,0 km/h (0 Bft) NW 311 ° 0 min 0,000 mm 0,0 UV-I 0 W/m² 13,4 °C 14,2 °C 0,0 km/h (0 Bft)
26.08.2019 02:05 14,2 °C 95 % 1017,4 hPa 0,0 mm 0,0 km/h (0 Bft) NW 311 ° 0 min 0,000 mm 0,0 UV-I 0 W/m² 13,4 °C 14,2 °C 0,0 km/h (0 Bft)
26.08.2019 02:06 14,2 °C 95 % 1017,4 hPa 0,0 mm 0,0 km/h (0 Bft) NW 311 ° 0 min 0,000 mm 0,0 UV-I 0 W/m² 13,4 °C 14,2 °C 0,0 km/h (0 Bft)
26.08.2019 02:07 14,2 °C 95 % 1017,4 hPa 0,0 mm 0,0 km/h (0 Bft) NW 311 ° 0 min 0,000 mm 0,0 UV-I 0 W/m² 13,4 °C 14,2 °C 0,0 km/h (0 Bft)
26.08.2019 02:08 14,1 °C 95 % 1017,4 hPa 0,0 mm 0,0 km/h (0 Bft) NW 311 ° 0 min 0,000 mm 0,0 UV-I 0 W/m² 13,3 °C 14,1 °C 0,0 km/h (0 Bft)
26.08.2019 02:09 14,2 °C 95 % 1017,4 hPa 0,0 mm 0,0 km/h (0 Bft) NW 311 ° 0 min 0,000 mm 0,0 UV-I 0 W/m² 13,4 °C 14,2 °C 0,0 km/h (0 Bft)
26.08.2019 02:10 14,1 °C 95 % 1017,4 hPa 0,0 mm 0,0 km/h (0 Bft) NW 311 ° 0 min 0,000 mm 0,0 UV-I 0 W/m² 13,3 °C 14,1 °C 0,0 km/h (0 Bft)
26.08.2019 02:11 14,1 °C 95 % 1017,4 hPa 0,0 mm 0,0 km/h (0 Bft) NW 311 ° 0 min 0,000 mm 0,0 UV-I 0 W/m² 13,3 °C 14,1 °C 0,0 km/h (0 Bft)
26.08.2019 02:12 14,1 °C 95 % 1017,4 hPa 0,0 mm 0,0 km/h (0 Bft) NW 311 ° 0 min 0,000 mm 0,0 UV-I 0 W/m² 13,3 °C 14,1 °C 0,0 km/h (0 Bft)
26.08.2019 02:13 14,2 °C 95 % 1017,4 hPa 0,0 mm 0,0 km/h (0 Bft) NW 311 ° 0 min 0,000 mm 0,0 UV-I 0 W/m² 13,4 °C 14,2 °C 0,0 km/h (0 Bft)
26.08.2019 02:14 14,1 °C 95 % 1017,4 hPa 0,0 mm 0,0 km/h (0 Bft) NW 311 ° 0 min 0,000 mm 0,0 UV-I 0 W/m² 13,3 °C 14,1 °C 0,0 km/h (0 Bft)
26.08.2019 02:15 14,2 °C 95 % 1017,4 hPa 0,0 mm 0,0 km/h (0 Bft) NW 311 ° 0 min 0,000 mm 0,0 UV-I 0 W/m² 13,4 °C 14,2 °C 0,0 km/h (0 Bft)
26.08.2019 02:16 14,2 °C 95 % 1017,4 hPa 0,0 mm 0,0 km/h (0 Bft) NW 311 ° 0 min 0,000 mm 0,0 UV-I 0 W/m² 13,4 °C 14,2 °C 0,0 km/h (0 Bft)
26.08.2019 02:17 14,1 °C 95 % 1017,3 hPa 0,0 mm 0,0 km/h (0 Bft) NW 311 ° 0 min 0,000 mm 0,0 UV-I 0 W/m² 13,3 °C 14,1 °C 0,0 km/h (0 Bft)
26.08.2019 02:18 14,1 °C 95 % 1017,3 hPa 0,0 mm 0,0 km/h (0 Bft) NW 311 ° 0 min 0,000 mm 0,0 UV-I 0 W/m² 13,3 °C 14,1 °C 0,0 km/h (0 Bft)
26.08.2019 02:19 14,0 °C 95 % 1017,3 hPa 0,0 mm 0,0 km/h (0 Bft) NW 311 ° 0 min 0,000 mm 0,0 UV-I 0 W/m² 13,2 °C 14,0 °C 0,0 km/h (0 Bft)
26.08.2019 02:20 13,9 °C 95 % 1017,3 hPa 0,0 mm 0,0 km/h (0 Bft) NW 311 ° 0 min 0,000 mm 0,0 UV-I 0 W/m² 13,1 °C 13,9 °C 0,0 km/h (0 Bft)
26.08.2019 02:21 14,0 °C 95 % 1017,3 hPa 0,0 mm 0,0 km/h (0 Bft) NW 311 ° 0 min 0,000 mm 0,0 UV-I 0 W/m² 13,2 °C 14,0 °C 0,0 km/h (0 Bft)
26.08.2019 02:22 13,9 °C 95 % 1017,3 hPa 0,0 mm 0,0 km/h (0 Bft) NW 311 ° 0 min 0,000 mm 0,0 UV-I 0 W/m² 13,1 °C 13,9 °C 0,0 km/h (0 Bft)
26.08.2019 02:23 13,9 °C 95 % 1017,3 hPa 0,0 mm 0,0 km/h (0 Bft) NW 311 ° 0 min 0,000 mm 0,0 UV-I 0 W/m² 13,1 °C 13,9 °C 0,0 km/h (0 Bft)
26.08.2019 02:24 14,0 °C 95 % 1017,2 hPa 0,0 mm 0,0 km/h (0 Bft) NW 311 ° 0 min 0,000 mm 0,0 UV-I 0 W/m² 13,2 °C 14,0 °C 0,0 km/h (0 Bft)
26.08.2019 02:25 14,0 °C 95 % 1017,2 hPa 0,0 mm 0,0 km/h (0 Bft) NW 311 ° 0 min 0,000 mm 0,0 UV-I 0 W/m² 13,2 °C 14,0 °C 0,0 km/h (0 Bft)
26.08.2019 02:26 13,9 °C 95 % 1017,2 hPa 0,0 mm 0,0 km/h (0 Bft) NW 311 ° 0 min 0,000 mm 0,0 UV-I 0 W/m² 13,1 °C 13,9 °C 0,0 km/h (0 Bft)
26.08.2019 02:27 13,9 °C 95 % 1017,1 hPa 0,2 mm 0,0 km/h (0 Bft) NW 311 ° 0 min 0,000 mm 0,0 UV-I 0 W/m² 13,1 °C 13,9 °C 0,0 km/h (0 Bft)
26.08.2019 02:28 13,9 °C 95 % 1017,1 hPa 0,0 mm 0,0 km/h (0 Bft) NW 311 ° 0 min 0,000 mm 0,0 UV-I 0 W/m² 13,1 °C 13,9 °C 0,0 km/h (0 Bft)
26.08.2019 02:29 13,9 °C 95 % 1017,1 hPa 0,0 mm 0,0 km/h (0 Bft) NW 311 ° 0 min 0,000 mm 0,0 UV-I 0 W/m² 13,1 °C 13,9 °C 0,0 km/h (0 Bft)
26.08.2019 02:30 13,9 °C 95 % 1017,1 hPa 0,0 mm 0,0 km/h (0 Bft) NW 311 ° 0 min 0,000 mm 0,0 UV-I 0 W/m² 13,1 °C 13,9 °C 0,0 km/h (0 Bft)
26.08.2019 02:31 13,9 °C 95 % 1017,1 hPa 0,0 mm 0,0 km/h (0 Bft) NW 311 ° 0 min 0,000 mm 0,0 UV-I 0 W/m² 13,1 °C 13,9 °C 0,0 km/h (0 Bft)
26.08.2019 02:32 13,8 °C 95 % 1017,1 hPa 0,0 mm 0,0 km/h (0 Bft) NW 311 ° 0 min 0,000 mm 0,0 UV-I 0 W/m² 13,0 °C 13,8 °C 0,0 km/h (0 Bft)
26.08.2019 02:33 13,8 °C 95 % 1017,1 hPa 0,0 mm 0,0 km/h (0 Bft) NW 311 ° 0 min 0,000 mm 0,0 UV-I 0 W/m² 13,0 °C 13,8 °C 0,0 km/h (0 Bft)
26.08.2019 02:34 13,8 °C 95 % 1017,1 hPa 0,0 mm 0,0 km/h (0 Bft) NW 311 ° 0 min 0,000 mm 0,0 UV-I 0 W/m² 13,0 °C 13,8 °C 0,0 km/h (0 Bft)
26.08.2019 02:35 13,8 °C 95 % 1017,1 hPa 0,0 mm 0,0 km/h (0 Bft) NW 311 ° 0 min 0,000 mm 0,0 UV-I 0 W/m² 13,0 °C 13,8 °C 0,0 km/h (0 Bft)
26.08.2019 02:36 13,8 °C 95 % 1017,1 hPa 0,0 mm 0,0 km/h (0 Bft) NW 311 ° 0 min 0,000 mm 0,0 UV-I 0 W/m² 13,0 °C 13,8 °C 0,0 km/h (0 Bft)
26.08.2019 02:37 13,8 °C 95 % 1017,1 hPa 0,0 mm 0,0 km/h (0 Bft) NW 311 ° 0 min 0,000 mm 0,0 UV-I 0 W/m² 13,0 °C 13,8 °C 0,0 km/h (0 Bft)
26.08.2019 02:38 13,8 °C 95 % 1017,1 hPa 0,0 mm 0,0 km/h (0 Bft) NW 311 ° 0 min 0,000 mm 0,0 UV-I 0 W/m² 13,0 °C 13,8 °C 0,0 km/h (0 Bft)
26.08.2019 02:39 13,8 °C 95 % 1017,1 hPa 0,0 mm 0,0 km/h (0 Bft) NW 311 ° 0 min 0,000 mm 0,0 UV-I 0 W/m² 13,0 °C 13,8 °C 0,0 km/h (0 Bft)
26.08.2019 02:40 13,8 °C 95 % 1017,1 hPa 0,0 mm 0,0 km/h (0 Bft) NW 311 ° 0 min 0,000 mm 0,0 UV-I 0 W/m² 13,0 °C 13,8 °C 0,0 km/h (0 Bft)
26.08.2019 02:41 13,8 °C 95 % 1017,1 hPa 0,0 mm 0,0 km/h (0 Bft) NW 311 ° 0 min 0,000 mm 0,0 UV-I 0 W/m² 13,0 °C 13,8 °C 0,0 km/h (0 Bft)
26.08.2019 02:42 13,8 °C 95 % 1017,1 hPa 0,0 mm 0,0 km/h (0 Bft) NW 311 ° 0 min 0,000 mm 0,0 UV-I 0 W/m² 13,0 °C 13,8 °C 0,0 km/h (0 Bft)
26.08.2019 02:43 13,8 °C 95 % 1017,1 hPa 0,0 mm 0,0 km/h (0 Bft) NW 311 ° 0 min 0,000 mm 0,0 UV-I 0 W/m² 13,0 °C 13,8 °C 0,0 km/h (0 Bft)
26.08.2019 02:44 13,8 °C 95 % 1017,1 hPa 0,0 mm 0,0 km/h (0 Bft) NW 311 ° 0 min 0,000 mm 0,0 UV-I 0 W/m² 13,0 °C 13,8 °C 0,0 km/h (0 Bft)
26.08.2019 02:45 13,8 °C 95 % 1017,1 hPa 0,0 mm 0,1 km/h (0 Bft) NW 311 ° 0 min 0,000 mm 0,0 UV-I 0 W/m² 13,0 °C 13,8 °C 1,6 km/h (1 Bft)
26.08.2019 02:46 13,8 °C 95 % 1017,1 hPa 0,0 mm 0,0 km/h (0 Bft) NW 311 ° 0 min 0,000 mm 0,0 UV-I 0 W/m² 13,0 °C 13,8 °C 0,0 km/h (0 Bft)
26.08.2019 02:47 13,8 °C 95 % 1017,1 hPa 0,0 mm 0,0 km/h (0 Bft) NW 311 ° 0 min 0,000 mm 0,0 UV-I 0 W/m² 13,0 °C 13,8 °C 0,0 km/h (0 Bft)
26.08.2019 02:48 13,8 °C 95 % 1017,2 hPa 0,0 mm 0,0 km/h (0 Bft) NW 311 ° 0 min 0,000 mm 0,0 UV-I 0 W/m² 13,0 °C 13,8 °C 0,0 km/h (0 Bft)
26.08.2019 02:49 13,8 °C 95 % 1017,2 hPa 0,0 mm 0,0 km/h (0 Bft) NW 311 ° 0 min 0,000 mm 0,0 UV-I 0 W/m² 13,0 °C 13,8 °C 0,0 km/h (0 Bft)
26.08.2019 02:50 13,9 °C 95 % 1017,1 hPa 0,0 mm 0,0 km/h (0 Bft) NW 311 ° 0 min 0,000 mm 0,0 UV-I 0 W/m² 13,1 °C 13,9 °C 0,0 km/h (0 Bft)
26.08.2019 02:51 13,8 °C 95 % 1017,1 hPa 0,0 mm 0,0 km/h (0 Bft) NW 311 ° 0 min 0,000 mm 0,0 UV-I 0 W/m² 13,0 °C 13,8 °C 0,0 km/h (0 Bft)
26.08.2019 02:52 13,9 °C 95 % 1017,2 hPa 0,0 mm 0,0 km/h (0 Bft) NW 311 ° 0 min 0,000 mm 0,0 UV-I 0 W/m² 13,1 °C 13,9 °C 0,0 km/h (0 Bft)
26.08.2019 02:53 13,9 °C 95 % 1017,2 hPa 0,0 mm 0,0 km/h (0 Bft) NW 311 ° 0 min 0,000 mm 0,0 UV-I 0 W/m² 13,1 °C 13,9 °C 0,0 km/h (0 Bft)
26.08.2019 02:54 13,9 °C 95 % 1017,2 hPa 0,0 mm 0,0 km/h (0 Bft) NW 311 ° 0 min 0,000 mm 0,0 UV-I 0 W/m² 13,1 °C 13,9 °C 0,0 km/h (0 Bft)
26.08.2019 02:55 13,9 °C 95 % 1017,2 hPa 0,0 mm 0,0 km/h (0 Bft) NW 311 ° 0 min 0,000 mm 0,0 UV-I 0 W/m² 13,1 °C 13,9 °C 0,0 km/h (0 Bft)
26.08.2019 02:56 13,9 °C 95 % 1017,2 hPa 0,0 mm 0,0 km/h (0 Bft) NW 311 ° 0 min 0,000 mm 0,0 UV-I 0 W/m² 13,1 °C 13,9 °C 0,0 km/h (0 Bft)
26.08.2019 02:57 13,9 °C 95 % 1017,2 hPa 0,0 mm 0,0 km/h (0 Bft) NW 311 ° 0 min 0,000 mm 0,0 UV-I 0 W/m² 13,1 °C 13,9 °C 0,0 km/h (0 Bft)
26.08.2019 02:58 13,9 °C 95 % 1017,2 hPa 0,0 mm 0,0 km/h (0 Bft) NW 311 ° 0 min 0,000 mm 0,0 UV-I 0 W/m² 13,1 °C 13,9 °C 0,0 km/h (0 Bft)
26.08.2019 02:59 13,9 °C 95 % 1017,1 hPa 0,0 mm 0,0 km/h (0 Bft) NW 311 ° 0 min 0,000 mm 0,0 UV-I 0 W/m² 13,1 °C 13,9 °C 0,0 km/h (0 Bft)
26.08.2019 03:00 13,9 °C 95 % 1017,2 hPa 0,0 mm 0,0 km/h (0 Bft) NW 311 ° 0 min 0,000 mm 0,0 UV-I 0 W/m² 13,1 °C 13,9 °C 0,0 km/h (0 Bft)
26.08.2019 03:01 13,9 °C 95 % 1017,2 hPa 0,0 mm 0,0 km/h (0 Bft) NW 311 ° 0 min 0,000 mm 0,0 UV-I 0 W/m² 13,1 °C 13,9 °C 0,0 km/h (0 Bft)
26.08.2019 03:02 13,9 °C 95 % 1017,2 hPa 0,0 mm 0,0 km/h (0 Bft) NW 311 ° 0 min 0,000 mm 0,0 UV-I 0 W/m² 13,1 °C 13,9 °C 0,0 km/h (0 Bft)
26.08.2019 03:03 13,9 °C 95 % 1017,2 hPa 0,0 mm 0,0 km/h (0 Bft) NW 311 ° 0 min 0,000 mm 0,0 UV-I 0 W/m² 13,1 °C 13,9 °C 0,0 km/h (0 Bft)
26.08.2019 03:04 13,9 °C 95 % 1017,2 hPa 0,0 mm 0,0 km/h (0 Bft) NW 311 ° 0 min 0,000 mm 0,0 UV-I 0 W/m² 13,1 °C 13,9 °C 0,0 km/h (0 Bft)
26.08.2019 03:05 13,9 °C 95 % 1017,2 hPa 0,0 mm 0,4 km/h (0 Bft) N 350 ° 0 min 0,000 mm 0,0 UV-I 0 W/m² 13,1 °C 13,9 °C 3,2 km/h (1 Bft)
26.08.2019 03:06 13,9 °C 95 % 1017,1 hPa 0,0 mm 0,3 km/h (0 Bft) O-SO 105 ° 0 min 0,000 mm 0,0 UV-I 0 W/m² 13,1 °C 13,9 °C 3,2 km/h (1 Bft)
26.08.2019 03:07 13,9 °C 95 % 1017,2 hPa 0,0 mm 0,0 km/h (0 Bft) O-SO 105 ° 0 min 0,000 mm 0,0 UV-I 0 W/m² 13,1 °C 13,9 °C 0,0 km/h (0 Bft)
26.08.2019 03:08 13,9 °C 95 % 1017,1 hPa 0,0 mm 0,0 km/h (0 Bft) O-SO 105 ° 0 min 0,000 mm 0,0 UV-I 0 W/m² 13,1 °C 13,9 °C 0,0 km/h (0 Bft)
26.08.2019 03:09 13,9 °C 95 % 1017,1 hPa 0,2 mm 0,0 km/h (0 Bft) O-SO 105 ° 0 min 0,000 mm 0,0 UV-I 0 W/m² 13,1 °C 13,9 °C 0,0 km/h (0 Bft)
26.08.2019 03:10 13,8 °C 95 % 1017,1 hPa 0,0 mm 0,0 km/h (0 Bft) O-SO 105 ° 0 min 0,000 mm 0,0 UV-I 0 W/m² 13,0 °C 13,8 °C 0,0 km/h (0 Bft)
26.08.2019 03:11 13,8 °C 95 % 1017,1 hPa 0,0 mm 0,0 km/h (0 Bft) O-SO 105 ° 0 min 0,000 mm 0,0 UV-I 0 W/m² 13,0 °C 13,8 °C 0,0 km/h (0 Bft)
26.08.2019 03:12 13,8 °C 95 % 1017,1 hPa 0,0 mm 0,0 km/h (0 Bft) O-SO 105 ° 0 min 0,000 mm 0,0 UV-I 0 W/m² 13,0 °C 13,8 °C 0,0 km/h (0 Bft)
26.08.2019 03:13 13,8 °C 95 % 1017,1 hPa 0,0 mm 0,0 km/h (0 Bft) O-SO 105 ° 0 min 0,000 mm 0,0 UV-I 0 W/m² 13,0 °C 13,8 °C 0,0 km/h (0 Bft)
26.08.2019 03:14 13,8 °C 95 % 1017,1 hPa 0,0 mm 0,0 km/h (0 Bft) O-SO 105 ° 0 min 0,000 mm 0,0 UV-I 0 W/m² 13,0 °C 13,8 °C 0,0 km/h (0 Bft)
26.08.2019 03:15 13,8 °C 95 % 1017,1 hPa 0,0 mm 0,0 km/h (0 Bft) O-SO 105 ° 0 min 0,000 mm 0,0 UV-I 0 W/m² 13,0 °C 13,8 °C 0,0 km/h (0 Bft)
26.08.2019 03:16 13,8 °C 95 % 1017,1 hPa 0,0 mm 0,0 km/h (0 Bft) O-SO 105 ° 0 min 0,000 mm 0,0 UV-I 0 W/m² 13,0 °C 13,8 °C 0,0 km/h (0 Bft)
26.08.2019 03:17 13,8 °C 95 % 1017,0 hPa 0,0 mm 0,0 km/h (0 Bft) O-SO 105 ° 0 min 0,000 mm 0,0 UV-I 0 W/m² 13,0 °C 13,8 °C 0,0 km/h (0 Bft)
26.08.2019 03:18 13,8 °C 95 % 1017,0 hPa 0,0 mm 0,3 km/h (0 Bft) O-NO 68 ° 0 min 0,000 mm 0,0 UV-I 0 W/m² 13,0 °C 13,8 °C 1,6 km/h (1 Bft)
26.08.2019 03:19 13,8 °C 95 % 1017,0 hPa 0,0 mm 0,0 km/h (0 Bft) O-NO 68 ° 0 min 0,000 mm 0,0 UV-I 0 W/m² 13,0 °C 13,8 °C 0,0 km/h (0 Bft)
26.08.2019 03:20 13,8 °C 95 % 1017,0 hPa 0,0 mm 0,0 km/h (0 Bft) O-NO 68 ° 0 min 0,000 mm 0,0 UV-I 0 W/m² 13,0 °C 13,8 °C 0,0 km/h (0 Bft)
26.08.2019 03:21 13,8 °C 95 % 1017,0 hPa 0,0 mm 0,3 km/h (0 Bft) O-NO 68 ° 0 min 0,000 mm 0,0 UV-I 0 W/m² 13,0 °C 13,8 °C 1,6 km/h (1 Bft)
26.08.2019 03:22 13,8 °C 95 % 1017,0 hPa 0,0 mm 0,1 km/h (0 Bft) O-NO 68 ° 0 min 0,000 mm 0,0 UV-I 0 W/m² 13,0 °C 13,8 °C 1,6 km/h (1 Bft)
26.08.2019 03:23 13,8 °C 95 % 1017,0 hPa 0,0 mm 0,0 km/h (0 Bft) O-NO 68 ° 0 min 0,000 mm 0,0 UV-I 0 W/m² 13,0 °C 13,8 °C 0,0 km/h (0 Bft)
26.08.2019 03:24 13,8 °C 95 % 1017,0 hPa 0,0 mm 0,0 km/h (0 Bft) O-NO 68 ° 0 min 0,000 mm 0,0 UV-I 0 W/m² 13,0 °C 13,8 °C 0,0 km/h (0 Bft)
26.08.2019 03:25 13,8 °C 95 % 1017,0 hPa 0,0 mm 0,0 km/h (0 Bft) O-NO 68 ° 0 min 0,000 mm 0,0 UV-I 0 W/m² 13,0 °C 13,8 °C 0,0 km/h (0 Bft)
26.08.2019 03:26 13,8 °C 95 % 1017,0 hPa 0,0 mm 0,0 km/h (0 Bft) O-NO 68 ° 0 min 0,000 mm 0,0 UV-I 0 W/m² 13,0 °C 13,8 °C 0,0 km/h (0 Bft)
26.08.2019 03:27 13,9 °C 95 % 1017,0 hPa 0,0 mm 0,0 km/h (0 Bft) O-NO 68 ° 0 min 0,000 mm 0,0 UV-I 0 W/m² 13,1 °C 13,9 °C 0,0 km/h (0 Bft)
26.08.2019 03:28 13,9 °C 95 % 1017,0 hPa 0,0 mm 0,0 km/h (0 Bft) O-NO 68 ° 0 min 0,000 mm 0,0 UV-I 0 W/m² 13,1 °C 13,9 °C 0,0 km/h (0 Bft)
26.08.2019 03:29 13,9 °C 95 % 1017,0 hPa 0,0 mm 0,0 km/h (0 Bft) O-NO 68 ° 0 min 0,000 mm 0,0 UV-I 0 W/m² 13,1 °C 13,9 °C 0,0 km/h (0 Bft)
26.08.2019 03:30 13,9 °C 95 % 1017,0 hPa 0,0 mm 0,0 km/h (0 Bft) O-NO 68 ° 0 min 0,000 mm 0,0 UV-I 0 W/m² 13,1 °C 13,9 °C 0,0 km/h (0 Bft)
26.08.2019 03:31 13,9 °C 95 % 1017,0 hPa 0,0 mm 0,0 km/h (0 Bft) O-NO 68 ° 0 min 0,000 mm 0,0 UV-I 0 W/m² 13,1 °C 13,9 °C 0,0 km/h (0 Bft)
26.08.2019 03:32 13,9 °C 95 % 1017,0 hPa 0,0 mm 0,0 km/h (0 Bft) O-NO 68 ° 0 min 0,000 mm 0,0 UV-I 0 W/m² 13,1 °C 13,9 °C 0,0 km/h (0 Bft)
26.08.2019 03:33 13,9 °C 95 % 1017,0 hPa 0,0 mm 0,0 km/h (0 Bft) O-NO 68 ° 0 min 0,000 mm 0,0 UV-I 0 W/m² 13,1 °C 13,9 °C 0,0 km/h (0 Bft)
26.08.2019 03:34 13,9 °C 95 % 1017,0 hPa 0,0 mm 0,0 km/h (0 Bft) O-NO 68 ° 0 min 0,000 mm 0,0 UV-I 0 W/m² 13,1 °C 13,9 °C 0,0 km/h (0 Bft)
26.08.2019 03:35 13,8 °C 95 % 1017,0 hPa 0,0 mm 0,0 km/h (0 Bft) O-NO 68 ° 0 min 0,000 mm 0,0 UV-I 0 W/m² 13,0 °C 13,8 °C 0,0 km/h (0 Bft)
26.08.2019 03:36 13,8 °C 95 % 1017,0 hPa 0,0 mm 0,0 km/h (0 Bft) O-NO 68 ° 0 min 0,000 mm 0,0 UV-I 0 W/m² 13,0 °C 13,8 °C 0,0 km/h (0 Bft)
26.08.2019 03:37 13,8 °C 95 % 1017,0 hPa 0,0 mm 0,0 km/h (0 Bft) O-NO 68 ° 0 min 0,000 mm 0,0 UV-I 0 W/m² 13,0 °C 13,8 °C 0,0 km/h (0 Bft)
26.08.2019 03:38 13,8 °C 95 % 1017,0 hPa 0,0 mm 0,0 km/h (0 Bft) O-NO 68 ° 0 min 0,000 mm 0,0 UV-I 0 W/m² 13,0 °C 13,8 °C 0,0 km/h (0 Bft)
26.08.2019 03:39 13,8 °C 95 % 1017,0 hPa 0,0 mm 0,6 km/h (0 Bft) O-NO 68 ° 0 min 0,000 mm 0,0 UV-I 0 W/m² 13,0 °C 13,8 °C 3,2 km/h (1 Bft)
26.08.2019 03:40 13,7 °C 95 % 1017,0 hPa 0,0 mm 0,7 km/h (0 Bft) O-NO 68 ° 0 min 0,000 mm 0,0 UV-I 0 W/m² 12,9 °C 13,7 °C 1,6 km/h (1 Bft)
26.08.2019 03:41 13,7 °C 95 % 1017,0 hPa 0,0 mm 0,0 km/h (0 Bft) O-NO 68 ° 0 min 0,000 mm 0,0 UV-I 0 W/m² 12,9 °C 13,7 °C 0,0 km/h (0 Bft)
26.08.2019 03:42 13,7 °C 95 % 1017,0 hPa 0,0 mm 0,0 km/h (0 Bft) O-NO 68 ° 0 min 0,000 mm 0,0 UV-I 0 W/m² 12,9 °C 13,7 °C 0,0 km/h (0 Bft)
26.08.2019 03:43 13,7 °C 95 % 1017,0 hPa 0,0 mm 0,0 km/h (0 Bft) O-NO 68 ° 0 min 0,000 mm 0,0 UV-I 0 W/m² 12,9 °C 13,7 °C 0,0 km/h (0 Bft)
26.08.2019 03:44 13,7 °C 95 % 1017,0 hPa 0,0 mm 0,0 km/h (0 Bft) O-NO 68 ° 0 min 0,000 mm 0,0 UV-I 0 W/m² 12,9 °C 13,7 °C 0,0 km/h (0 Bft)
26.08.2019 03:45 13,6 °C 95 % 1017,0 hPa 0,0 mm 0,0 km/h (0 Bft) O-NO 68 ° 0 min 0,000 mm 0,0 UV-I 0 W/m² 12,8 °C 13,6 °C 0,0 km/h (0 Bft)
26.08.2019 03:46 13,6 °C 95 % 1017,0 hPa 0,0 mm 0,0 km/h (0 Bft) O-NO 68 ° 0 min 0,000 mm 0,0 UV-I 0 W/m² 12,8 °C 13,6 °C 0,0 km/h (0 Bft)
26.08.2019 03:47 13,6 °C 95 % 1017,0 hPa 0,0 mm 0,0 km/h (0 Bft) O-NO 68 ° 0 min 0,000 mm 0,0 UV-I 0 W/m² 12,8 °C 13,6 °C 0,0 km/h (0 Bft)
26.08.2019 03:48 13,6 °C 95 % 1017,0 hPa 0,0 mm 0,0 km/h (0 Bft) O-NO 68 ° 0 min 0,000 mm 0,0 UV-I 0 W/m² 12,8 °C 13,6 °C 0,0 km/h (0 Bft)
26.08.2019 03:49 13,6 °C 95 % 1017,0 hPa 0,0 mm 0,0 km/h (0 Bft) O-NO 68 ° 0 min 0,000 mm 0,0 UV-I 0 W/m² 12,8 °C 13,6 °C 0,0 km/h (0 Bft)
26.08.2019 03:50 13,6 °C 95 % 1016,9 hPa 0,0 mm 0,0 km/h (0 Bft) O-NO 68 ° 0 min 0,000 mm 0,0 UV-I 0 W/m² 12,8 °C 13,6 °C 0,0 km/h (0 Bft)
26.08.2019 03:51 13,6 °C 95 % 1016,9 hPa 0,0 mm 0,0 km/h (0 Bft) O-NO 68 ° 0 min 0,000 mm 0,0 UV-I 0 W/m² 12,8 °C 13,6 °C 0,0 km/h (0 Bft)
26.08.2019 03:52 13,6 °C 95 % 1016,9 hPa 0,0 mm 0,0 km/h (0 Bft) O-NO 68 ° 0 min 0,000 mm 0,0 UV-I 0 W/m² 12,8 °C 13,6 °C 0,0 km/h (0 Bft)
26.08.2019 03:53 13,6 °C 95 % 1017,0 hPa 0,0 mm 0,0 km/h (0 Bft) O-NO 68 ° 0 min 0,000 mm 0,0 UV-I 0 W/m² 12,8 °C 13,6 °C 0,0 km/h (0 Bft)
26.08.2019 03:54 13,5 °C 95 % 1017,0 hPa 0,0 mm 0,0 km/h (0 Bft) O-NO 68 ° 0 min 0,000 mm 0,0 UV-I 0 W/m² 12,7 °C 13,5 °C 0,0 km/h (0 Bft)
26.08.2019 03:55 13,5 °C 95 % 1017,0 hPa 0,0 mm 0,0 km/h (0 Bft) O-NO 68 ° 0 min 0,000 mm 0,0 UV-I 0 W/m² 12,7 °C 13,5 °C 0,0 km/h (0 Bft)
26.08.2019 03:56 13,5 °C 95 % 1017,0 hPa 0,0 mm 0,0 km/h (0 Bft) O-NO 68 ° 0 min 0,000 mm 0,0 UV-I 0 W/m² 12,7 °C 13,5 °C 0,0 km/h (0 Bft)
26.08.2019 03:57 13,5 °C 95 % 1017,0 hPa 0,0 mm 0,0 km/h (0 Bft) O-NO 68 ° 0 min 0,000 mm 0,0 UV-I 0 W/m² 12,7 °C 13,5 °C 0,0 km/h (0 Bft)
26.08.2019 03:58 13,5 °C 95 % 1017,0 hPa 0,0 mm 0,0 km/h (0 Bft) O-NO 68 ° 0 min 0,000 mm 0,0 UV-I 0 W/m² 12,7 °C 13,5 °C 0,0 km/h (0 Bft)
26.08.2019 03:59 13,5 °C 95 % 1017,0 hPa 0,0 mm 0,0 km/h (0 Bft) O-NO 68 ° 0 min 0,000 mm 0,0 UV-I 0 W/m² 12,7 °C 13,5 °C 0,0 km/h (0 Bft)
26.08.2019 04:00 13,5 °C 95 % 1017,0 hPa 0,0 mm 0,0 km/h (0 Bft) O-NO 68 ° 0 min 0,000 mm 0,0 UV-I 0 W/m² 12,7 °C 13,5 °C 0,0 km/h (0 Bft)
26.08.2019 04:02 13,5 °C 95 % 1017,0 hPa 0,0 mm 0,0 km/h (0 Bft) O-NO 68 ° 0 min 0,000 mm 0,0 UV-I 0 W/m² 12,7 °C 13,5 °C 0,0 km/h (0 Bft)
26.08.2019 04:03 13,5 °C 95 % 1017,0 hPa 0,0 mm 0,0 km/h (0 Bft) O-NO 68 ° 0 min 0,000 mm 0,0 UV-I 0 W/m² 12,7 °C 13,5 °C 0,0 km/h (0 Bft)
26.08.2019 04:04 13,5 °C 95 % 1017,0 hPa 0,0 mm 0,0 km/h (0 Bft) O-NO 68 ° 0 min 0,000 mm 0,0 UV-I 0 W/m² 12,7 °C 13,5 °C 0,0 km/h (0 Bft)
26.08.2019 04:05 13,5 °C 95 % 1017,0 hPa 0,0 mm 0,0 km/h (0 Bft) O-NO 68 ° 0 min 0,000 mm 0,0 UV-I 0 W/m² 12,7 °C 13,5 °C 0,0 km/h (0 Bft)
26.08.2019 04:06 13,5 °C 95 % 1017,0 hPa 0,0 mm 0,0 km/h (0 Bft) O-NO 68 ° 0 min 0,000 mm 0,0 UV-I 0 W/m² 12,7 °C 13,5 °C 0,0 km/h (0 Bft)
26.08.2019 04:07 13,5 °C 95 % 1017,0 hPa 0,0 mm 0,0 km/h (0 Bft) O-NO 68 ° 0 min 0,000 mm 0,0 UV-I 0 W/m² 12,7 °C 13,5 °C 0,0 km/h (0 Bft)
26.08.2019 04:08 13,5 °C 95 % 1017,0 hPa 0,2 mm 0,0 km/h (0 Bft) O-NO 68 ° 0 min 0,000 mm 0,0 UV-I 0 W/m² 12,7 °C 13,5 °C 0,0 km/h (0 Bft)
26.08.2019 04:09 13,5 °C 95 % 1017,0 hPa 0,0 mm 0,0 km/h (0 Bft) O-NO 68 ° 0 min 0,000 mm 0,0 UV-I 0 W/m² 12,7 °C 13,5 °C 0,0 km/h (0 Bft)
26.08.2019 04:10 13,5 °C 95 % 1017,1 hPa 0,0 mm 0,0 km/h (0 Bft) O-NO 68 ° 0 min 0,000 mm 0,0 UV-I 0 W/m² 12,7 °C 13,5 °C 0,0 km/h (0 Bft)
26.08.2019 04:11 13,5 °C 95 % 1017,0 hPa 0,0 mm 0,0 km/h (0 Bft) O-NO 68 ° 0 min 0,000 mm 0,0 UV-I 0 W/m² 12,7 °C 13,5 °C 0,0 km/h (0 Bft)
26.08.2019 04:12 13,6 °C 95 % 1017,0 hPa 0,0 mm 0,0 km/h (0 Bft) O-NO 68 ° 0 min 0,000 mm 0,0 UV-I 0 W/m² 12,8 °C 13,6 °C 0,0 km/h (0 Bft)
26.08.2019 04:13 13,4 °C 95 % 1017,0 hPa 0,0 mm 0,0 km/h (0 Bft) O-NO 68 ° 0 min 0,000 mm 0,0 UV-I 0 W/m² 12,6 °C 13,4 °C 0,0 km/h (0 Bft)
26.08.2019 04:14 13,4 °C 95 % 1017,0 hPa 0,0 mm 0,0 km/h (0 Bft) O-NO 68 ° 0 min 0,000 mm 0,0 UV-I 0 W/m² 12,6 °C 13,4 °C 0,0 km/h (0 Bft)
26.08.2019 04:15 13,4 °C 95 % 1017,0 hPa 0,0 mm 0,0 km/h (0 Bft) O-NO 68 ° 0 min 0,000 mm 0,0 UV-I 0 W/m² 12,6 °C 13,4 °C 0,0 km/h (0 Bft)
26.08.2019 04:16 13,4 °C 95 % 1017,0 hPa 0,0 mm 0,0 km/h (0 Bft) O-NO 68 ° 0 min 0,000 mm 0,0 UV-I 0 W/m² 12,6 °C 13,4 °C 0,0 km/h (0 Bft)
26.08.2019 04:17 13,4 °C 95 % 1017,0 hPa 0,0 mm 0,0 km/h (0 Bft) O-NO 68 ° 0 min 0,000 mm 0,0 UV-I 0 W/m² 12,6 °C 13,4 °C 0,0 km/h (0 Bft)
26.08.2019 04:18 13,4 °C 95 % 1017,0 hPa 0,0 mm 0,0 km/h (0 Bft) O-NO 68 ° 0 min 0,000 mm 0,0 UV-I 0 W/m² 12,6 °C 13,4 °C 0,0 km/h (0 Bft)
26.08.2019 04:19 13,4 °C 95 % 1017,0 hPa 0,0 mm 0,0 km/h (0 Bft) O-NO 68 ° 0 min 0,000 mm 0,0 UV-I 0 W/m² 12,6 °C 13,4 °C 0,0 km/h (0 Bft)
26.08.2019 04:20 13,3 °C 95 % 1017,0 hPa 0,0 mm 0,0 km/h (0 Bft) O-NO 68 ° 0 min 0,000 mm 0,0 UV-I 0 W/m² 12,5 °C 13,3 °C 0,0 km/h (0 Bft)
26.08.2019 04:21 13,4 °C 95 % 1017,0 hPa 0,0 mm 0,0 km/h (0 Bft) O-NO 68 ° 0 min 0,000 mm 0,0 UV-I 0 W/m² 12,6 °C 13,4 °C 0,0 km/h (0 Bft)
26.08.2019 04:22 13,3 °C 95 % 1017,1 hPa 0,0 mm 0,0 km/h (0 Bft) O-NO 68 ° 0 min 0,000 mm 0,0 UV-I 0 W/m² 12,5 °C 13,3 °C 0,0 km/h (0 Bft)
26.08.2019 04:23 13,3 °C 95 % 1017,1 hPa 0,0 mm 0,0 km/h (0 Bft) O-NO 68 ° 0 min 0,000 mm 0,0 UV-I 0 W/m² 12,5 °C 13,3 °C 0,0 km/h (0 Bft)
26.08.2019 04:24 13,3 °C 95 % 1017,1 hPa 0,0 mm 0,0 km/h (0 Bft) O-NO 68 ° 0 min 0,000 mm 0,0 UV-I 0 W/m² 12,5 °C 13,3 °C 0,0 km/h (0 Bft)
26.08.2019 04:25 13,3 °C 95 % 1017,1 hPa 0,0 mm 0,0 km/h (0 Bft) O-NO 68 ° 0 min 0,000 mm 0,0 UV-I 0 W/m² 12,5 °C 13,3 °C 0,0 km/h (0 Bft)
26.08.2019 04:26 13,3 °C 95 % 1017,0 hPa 0,0 mm 0,0 km/h (0 Bft) O-NO 68 ° 0 min 0,000 mm 0,0 UV-I 0 W/m² 12,5 °C 13,3 °C 0,0 km/h (0 Bft)
26.08.2019 04:27 13,3 °C 95 % 1017,1 hPa 0,0 mm 0,0 km/h (0 Bft) O-NO 68 ° 0 min 0,000 mm 0,0 UV-I 0 W/m² 12,5 °C 13,3 °C 0,0 km/h (0 Bft)
26.08.2019 04:28 13,3 °C 95 % 1017,1 hPa 0,0 mm 0,0 km/h (0 Bft) O-NO 68 ° 0 min 0,000 mm 0,0 UV-I 0 W/m² 12,5 °C 13,3 °C 0,0 km/h (0 Bft)
26.08.2019 04:29 13,3 °C 95 % 1017,0 hPa 0,0 mm 0,0 km/h (0 Bft) O-NO 68 ° 0 min 0,000 mm 0,0 UV-I 0 W/m² 12,5 °C 13,3 °C 0,0 km/h (0 Bft)
26.08.2019 04:30 13,3 °C 95 % 1017,0 hPa 0,0 mm 0,0 km/h (0 Bft) O-NO 68 ° 0 min 0,000 mm 0,0 UV-I 0 W/m² 12,5 °C 13,3 °C 0,0 km/h (0 Bft)
26.08.2019 04:31 13,4 °C 95 % 1017,0 hPa 0,0 mm 0,0 km/h (0 Bft) O-NO 68 ° 0 min 0,000 mm 0,0 UV-I 0 W/m² 12,6 °C 13,4 °C 0,0 km/h (0 Bft)
26.08.2019 04:32 13,3 °C 95 % 1017,0 hPa 0,0 mm 0,0 km/h (0 Bft) O-NO 68 ° 0 min 0,000 mm 0,0 UV-I 0 W/m² 12,5 °C 13,3 °C 0,0 km/h (0 Bft)
26.08.2019 04:33 13,3 °C 95 % 1017,0 hPa 0,0 mm 0,0 km/h (0 Bft) O-NO 68 ° 0 min 0,000 mm 0,0 UV-I 0 W/m² 12,5 °C 13,3 °C 0,0 km/h (0 Bft)
26.08.2019 04:34 13,3 °C 95 % 1017,0 hPa 0,0 mm 0,0 km/h (0 Bft) O-NO 68 ° 0 min 0,000 mm 0,0 UV-I 0 W/m² 12,5 °C 13,3 °C 0,0 km/h (0 Bft)
26.08.2019 04:35 13,3 °C 95 % 1017,0 hPa 0,0 mm 0,0 km/h (0 Bft) O-NO 68 ° 0 min 0,000 mm 0,0 UV-I 0 W/m² 12,5 °C 13,3 °C 0,0 km/h (0 Bft)
26.08.2019 04:36 13,3 °C 95 % 1017,1 hPa 0,0 mm 0,0 km/h (0 Bft) O-NO 68 ° 0 min 0,000 mm 0,0 UV-I 0 W/m² 12,5 °C 13,3 °C 0,0 km/h (0 Bft)
26.08.2019 04:37 13,3 °C 95 % 1017,1 hPa 0,0 mm 0,0 km/h (0 Bft) O-NO 68 ° 0 min 0,000 mm 0,0 UV-I 0 W/m² 12,5 °C 13,3 °C 0,0 km/h (0 Bft)
26.08.2019 04:38 13,3 °C 95 % 1017,0 hPa 0,0 mm 0,0 km/h (0 Bft) O-NO 68 ° 0 min 0,000 mm 0,0 UV-I 0 W/m² 12,5 °C 13,3 °C 0,0 km/h (0 Bft)
26.08.2019 04:39 13,3 °C 95 % 1017,0 hPa 0,0 mm 0,0 km/h (0 Bft) O-NO 68 ° 0 min 0,000 mm 0,0 UV-I 0 W/m² 12,5 °C 13,3 °C 0,0 km/h (0 Bft)
26.08.2019 04:40 13,3 °C 95 % 1017,1 hPa 0,0 mm 0,0 km/h (0 Bft) O-NO 68 ° 0 min 0,000 mm 0,0 UV-I 0 W/m² 12,5 °C 13,3 °C 0,0 km/h (0 Bft)
26.08.2019 04:41 13,3 °C 95 % 1017,0 hPa 0,0 mm 0,0 km/h (0 Bft) O-NO 68 ° 0 min 0,000 mm 0,0 UV-I 0 W/m² 12,5 °C 13,3 °C 0,0 km/h (0 Bft)
26.08.2019 04:42 13,3 °C 95 % 1017,0 hPa 0,0 mm 0,0 km/h (0 Bft) O-NO 68 ° 0 min 0,000 mm 0,0 UV-I 0 W/m² 12,5 °C 13,3 °C 0,0 km/h (0 Bft)
26.08.2019 04:43 13,3 °C 95 % 1017,0 hPa 0,0 mm 0,0 km/h (0 Bft) O-NO 68 ° 0 min 0,000 mm 0,0 UV-I 0 W/m² 12,5 °C 13,3 °C 0,0 km/h (0 Bft)
26.08.2019 04:44 13,3 °C 95 % 1017,0 hPa 0,0 mm 0,0 km/h (0 Bft) O-NO 68 ° 0 min 0,000 mm 0,0 UV-I 0 W/m² 12,5 °C 13,3 °C 0,0 km/h (0 Bft)
26.08.2019 04:45 13,3 °C 95 % 1017,0 hPa 0,0 mm 0,0 km/h (0 Bft) O-NO 68 ° 0 min 0,000 mm 0,0 UV-I 0 W/m² 12,5 °C 13,3 °C 0,0 km/h (0 Bft)
26.08.2019 04:46 13,3 °C 95 % 1017,0 hPa 0,0 mm 0,0 km/h (0 Bft) O-NO 68 ° 0 min 0,000 mm 0,0 UV-I 0 W/m² 12,5 °C 13,3 °C 0,0 km/h (0 Bft)
26.08.2019 04:47 13,3 °C 95 % 1017,0 hPa 0,0 mm 0,0 km/h (0 Bft) O-NO 68 ° 0 min 0,000 mm 0,0 UV-I 0 W/m² 12,5 °C 13,3 °C 0,0 km/h (0 Bft)
26.08.2019 04:48 13,3 °C 95 % 1017,0 hPa 0,0 mm 0,0 km/h (0 Bft) O-NO 68 ° 0 min 0,000 mm 0,0 UV-I 0 W/m² 12,5 °C 13,3 °C 0,0 km/h (0 Bft)
26.08.2019 04:49 13,3 °C 95 % 1017,0 hPa 0,0 mm 0,0 km/h (0 Bft) O-NO 68 ° 0 min 0,000 mm 0,0 UV-I 0 W/m² 12,5 °C 13,3 °C 0,0 km/h (0 Bft)
26.08.2019 04:50 13,3 °C 95 % 1017,0 hPa 0,0 mm 0,0 km/h (0 Bft) O-NO 68 ° 0 min 0,000 mm 0,0 UV-I 0 W/m² 12,5 °C 13,3 °C 0,0 km/h (0 Bft)
26.08.2019 04:51 13,2 °C 95 % 1017,1 hPa 0,0 mm 0,0 km/h (0 Bft) O-NO 68 ° 0 min 0,000 mm 0,0 UV-I 0 W/m² 12,4 °C 13,2 °C 0,0 km/h (0 Bft)
26.08.2019 04:52 13,2 °C 95 % 1017,1 hPa 0,0 mm 0,0 km/h (0 Bft) O-NO 68 ° 0 min 0,000 mm 0,0 UV-I 0 W/m² 12,4 °C 13,2 °C 0,0 km/h (0 Bft)
26.08.2019 04:53 13,2 °C 95 % 1017,1 hPa 0,0 mm 0,0 km/h (0 Bft) O-NO 68 ° 0 min 0,000 mm 0,0 UV-I 0 W/m² 12,4 °C 13,2 °C 0,0 km/h (0 Bft)
26.08.2019 04:54 13,2 °C 95 % 1017,0 hPa 0,0 mm 0,0 km/h (0 Bft) O-NO 68 ° 0 min 0,000 mm 0,0 UV-I 0 W/m² 12,4 °C 13,2 °C 0,0 km/h (0 Bft)
26.08.2019 04:55 13,3 °C 96 % 1017,1 hPa 0,0 mm 0,0 km/h (0 Bft) O-NO 68 ° 0 min 0,000 mm 0,0 UV-I 0 W/m² 12,7 °C 13,3 °C 0,0 km/h (0 Bft)
26.08.2019 04:56 13,3 °C 96 % 1017,0 hPa 0,0 mm 0,0 km/h (0 Bft) O-NO 68 ° 0 min 0,000 mm 0,0 UV-I 0 W/m² 12,7 °C 13,3 °C 0,0 km/h (0 Bft)
26.08.2019 04:57 13,3 °C 96 % 1017,0 hPa 0,0 mm 0,0 km/h (0 Bft) O-NO 68 ° 0 min 0,000 mm 0,0 UV-I 0 W/m² 12,7 °C 13,3 °C 0,0 km/h (0 Bft)
26.08.2019 04:58 13,3 °C 96 % 1017,1 hPa 0,0 mm 0,0 km/h (0 Bft) O-NO 68 ° 0 min 0,000 mm 0,0 UV-I 0 W/m² 12,7 °C 13,3 °C 0,0 km/h (0 Bft)
26.08.2019 04:59 13,3 °C 96 % 1017,1 hPa 0,0 mm 0,0 km/h (0 Bft) O-NO 68 ° 0 min 0,000 mm 0,0 UV-I 0 W/m² 12,7 °C 13,3 °C 0,0 km/h (0 Bft)
26.08.2019 05:00 13,3 °C 96 % 1017,0 hPa 0,0 mm 0,0 km/h (0 Bft) O-NO 68 ° 0 min 0,000 mm 0,0 UV-I 0 W/m² 12,7 °C 13,3 °C 0,0 km/h (0 Bft)
26.08.2019 05:01 13,3 °C 96 % 1017,1 hPa 0,0 mm 0,0 km/h (0 Bft) O-NO 68 ° 0 min 0,000 mm 0,0 UV-I 0 W/m² 12,7 °C 13,3 °C 0,0 km/h (0 Bft)
26.08.2019 05:02 13,3 °C 95 % 1017,1 hPa 0,0 mm 0,0 km/h (0 Bft) O-NO 68 ° 0 min 0,000 mm 0,0 UV-I 0 W/m² 12,5 °C 13,3 °C 0,0 km/h (0 Bft)
26.08.2019 05:03 13,3 °C 95 % 1017,1 hPa 0,0 mm 0,0 km/h (0 Bft) O-NO 68 ° 0 min 0,000 mm 0,0 UV-I 0 W/m² 12,5 °C 13,3 °C 0,0 km/h (0 Bft)
26.08.2019 05:04 13,3 °C 95 % 1017,1 hPa 0,0 mm 0,0 km/h (0 Bft) O-NO 68 ° 0 min 0,000 mm 0,0 UV-I 0 W/m² 12,5 °C 13,3 °C 0,0 km/h (0 Bft)
26.08.2019 05:05 13,3 °C 95 % 1017,1 hPa 0,0 mm 0,0 km/h (0 Bft) O-NO 68 ° 0 min 0,000 mm 0,0 UV-I 0 W/m² 12,5 °C 13,3 °C 0,0 km/h (0 Bft)
26.08.2019 05:06 13,3 °C 95 % 1017,1 hPa 0,0 mm 0,0 km/h (0 Bft) O-NO 68 ° 0 min 0,000 mm 0,0 UV-I 0 W/m² 12,5 °C 13,3 °C 0,0 km/h (0 Bft)
26.08.2019 05:07 13,2 °C 95 % 1017,1 hPa 0,0 mm 0,0 km/h (0 Bft) O-NO 68 ° 0 min 0,000 mm 0,0 UV-I 0 W/m² 12,4 °C 13,2 °C 0,0 km/h (0 Bft)
26.08.2019 05:08 13,2 °C 95 % 1017,0 hPa 0,2 mm 0,0 km/h (0 Bft) O-NO 68 ° 0 min 0,000 mm 0,0 UV-I 0 W/m² 12,4 °C 13,2 °C 0,0 km/h (0 Bft)
26.08.2019 05:09 13,2 °C 95 % 1017,0 hPa 0,0 mm 0,0 km/h (0 Bft) O-NO 68 ° 0 min 0,000 mm 0,0 UV-I 0 W/m² 12,4 °C 13,2 °C 0,0 km/h (0 Bft)
26.08.2019 05:10 13,1 °C 95 % 1017,0 hPa 0,0 mm 0,0 km/h (0 Bft) O-NO 68 ° 0 min 0,000 mm 0,0 UV-I 0 W/m² 12,3 °C 13,1 °C 0,0 km/h (0 Bft)
26.08.2019 05:11 13,1 °C 95 % 1017,0 hPa 0,0 mm 0,0 km/h (0 Bft) O-NO 68 ° 0 min 0,000 mm 0,0 UV-I 0 W/m² 12,3 °C 13,1 °C 0,0 km/h (0 Bft)
26.08.2019 05:12 13,1 °C 95 % 1017,1 hPa 0,0 mm 0,0 km/h (0 Bft) O-NO 68 ° 0 min 0,000 mm 0,0 UV-I 0 W/m² 12,3 °C 13,1 °C 0,0 km/h (0 Bft)
26.08.2019 05:13 13,1 °C 95 % 1017,1 hPa 0,0 mm 0,0 km/h (0 Bft) O-NO 68 ° 0 min 0,000 mm 0,0 UV-I 0 W/m² 12,3 °C 13,1 °C 0,0 km/h (0 Bft)
26.08.2019 05:14 13,0 °C 95 % 1017,0 hPa 0,0 mm 0,0 km/h (0 Bft) O-NO 68 ° 0 min 0,000 mm 0,0 UV-I 0 W/m² 12,2 °C 13,0 °C 0,0 km/h (0 Bft)
26.08.2019 05:15 12,9 °C 95 % 1017,0 hPa 0,0 mm 0,0 km/h (0 Bft) O-NO 68 ° 0 min 0,000 mm 0,0 UV-I 0 W/m² 12,1 °C 12,9 °C 0,0 km/h (0 Bft)
26.08.2019 05:16 12,9 °C 95 % 1017,0 hPa 0,0 mm 0,0 km/h (0 Bft) O-NO 68 ° 0 min 0,000 mm 0,0 UV-I 0 W/m² 12,1 °C 12,9 °C 0,0 km/h (0 Bft)
26.08.2019 05:17 13,0 °C 95 % 1017,0 hPa 0,0 mm 0,0 km/h (0 Bft) O-NO 68 ° 0 min 0,000 mm 0,0 UV-I 0 W/m² 12,2 °C 13,0 °C 0,0 km/h (0 Bft)
26.08.2019 05:18 13,0 °C 95 % 1017,0 hPa 0,0 mm 0,0 km/h (0 Bft) O-NO 68 ° 0 min 0,000 mm 0,0 UV-I 0 W/m² 12,2 °C 13,0 °C 0,0 km/h (0 Bft)
26.08.2019 05:19 12,9 °C 95 % 1017,0 hPa 0,0 mm 0,0 km/h (0 Bft) O-NO 68 ° 0 min 0,000 mm 0,0 UV-I 0 W/m² 12,1 °C 12,9 °C 0,0 km/h (0 Bft)
26.08.2019 05:20 12,9 °C 95 % 1017,0 hPa 0,0 mm 0,0 km/h (0 Bft) O-NO 68 ° 0 min 0,000 mm 0,0 UV-I 0 W/m² 12,1 °C 12,9 °C 0,0 km/h (0 Bft)
26.08.2019 05:21 12,9 °C 95 % 1016,9 hPa 0,0 mm 0,0 km/h (0 Bft) O-NO 68 ° 0 min 0,000 mm 0,0 UV-I 0 W/m² 12,1 °C 12,9 °C 0,0 km/h (0 Bft)
26.08.2019 05:22 12,9 °C 95 % 1017,0 hPa 0,0 mm 0,0 km/h (0 Bft) O-NO 68 ° 0 min 0,000 mm 0,0 UV-I 0 W/m² 12,1 °C 12,9 °C 0,0 km/h (0 Bft)
26.08.2019 05:23 12,8 °C 95 % 1017,0 hPa 0,0 mm 0,0 km/h (0 Bft) O-NO 68 ° 0 min 0,000 mm 0,0 UV-I 0 W/m² 12,0 °C 12,8 °C 0,0 km/h (0 Bft)
26.08.2019 05:24 12,8 °C 95 % 1017,0 hPa 0,0 mm 0,0 km/h (0 Bft) O-NO 68 ° 0 min 0,000 mm 0,0 UV-I 0 W/m² 12,0 °C 12,8 °C 0,0 km/h (0 Bft)
26.08.2019 05:25 12,8 °C 95 % 1016,9 hPa 0,0 mm 0,0 km/h (0 Bft) O-NO 68 ° 0 min 0,000 mm 0,0 UV-I 0 W/m² 12,0 °C 12,8 °C 0,0 km/h (0 Bft)
26.08.2019 05:26 12,8 °C 95 % 1016,9 hPa 0,0 mm 0,0 km/h (0 Bft) O-NO 68 ° 0 min 0,000 mm 0,0 UV-I 0 W/m² 12,0 °C 12,8 °C 0,0 km/h (0 Bft)
26.08.2019 05:27 12,9 °C 95 % 1016,9 hPa 0,0 mm 0,0 km/h (0 Bft) O-NO 68 ° 0 min 0,000 mm 0,0 UV-I 0 W/m² 12,1 °C 12,9 °C 0,0 km/h (0 Bft)
26.08.2019 05:28 12,9 °C 96 % 1016,9 hPa 0,0 mm 0,0 km/h (0 Bft) O-NO 68 ° 0 min 0,000 mm 0,0 UV-I 0 W/m² 12,3 °C 12,9 °C 0,0 km/h (0 Bft)
26.08.2019 05:29 12,9 °C 95 % 1016,9 hPa 0,0 mm 0,0 km/h (0 Bft) O-NO 68 ° 0 min 0,000 mm 0,0 UV-I 0 W/m² 12,1 °C 12,9 °C 0,0 km/h (0 Bft)
26.08.2019 05:30 12,8 °C 95 % 1016,9 hPa 0,0 mm 0,0 km/h (0 Bft) O-NO 68 ° 0 min 0,000 mm 0,0 UV-I 0 W/m² 12,0 °C 12,8 °C 0,0 km/h (0 Bft)
26.08.2019 05:31 12,9 °C 96 % 1016,9 hPa 0,0 mm 0,0 km/h (0 Bft) O-NO 68 ° 0 min 0,000 mm 0,0 UV-I 0 W/m² 12,3 °C 12,9 °C 0,0 km/h (0 Bft)
26.08.2019 05:32 12,9 °C 95 % 1016,9 hPa 0,0 mm 0,0 km/h (0 Bft) O-NO 68 ° 0 min 0,000 mm 0,0 UV-I 0 W/m² 12,1 °C 12,9 °C 0,0 km/h (0 Bft)
26.08.2019 05:33 12,9 °C 96 % 1016,9 hPa 0,0 mm 0,0 km/h (0 Bft) O-NO 68 ° 0 min 0,000 mm 0,0 UV-I 0 W/m² 12,3 °C 12,9 °C 0,0 km/h (0 Bft)
26.08.2019 05:34 12,9 °C 96 % 1016,9 hPa 0,0 mm 0,0 km/h (0 Bft) O-NO 68 ° 0 min 0,000 mm 0,0 UV-I 0 W/m² 12,3 °C 12,9 °C 0,0 km/h (0 Bft)
26.08.2019 05:35 12,9 °C 96 % 1016,9 hPa 0,0 mm 0,0 km/h (0 Bft) O-NO 68 ° 0 min 0,000 mm 0,0 UV-I 0 W/m² 12,3 °C 12,9 °C 0,0 km/h (0 Bft)
26.08.2019 05:36 13,0 °C 96 % 1016,9 hPa 0,0 mm 0,0 km/h (0 Bft) O-NO 68 ° 0 min 0,000 mm 0,0 UV-I 0 W/m² 12,4 °C 13,0 °C 0,0 km/h (0 Bft)
26.08.2019 05:37 13,0 °C 96 % 1016,8 hPa 0,0 mm 0,0 km/h (0 Bft) O-NO 68 ° 0 min 0,000 mm 0,0 UV-I 0 W/m² 12,4 °C 13,0 °C 0,0 km/h (0 Bft)
26.08.2019 05:38 13,1 °C 96 % 1016,9 hPa 0,0 mm 0,0 km/h (0 Bft) O-NO 68 ° 0 min 0,000 mm 0,0 UV-I 0 W/m² 12,5 °C 13,1 °C 0,0 km/h (0 Bft)
26.08.2019 05:39 13,2 °C 96 % 1016,8 hPa 0,0 mm 0,0 km/h (0 Bft) O-NO 68 ° 0 min 0,000 mm 0,0 UV-I 0 W/m² 12,6 °C 13,2 °C 0,0 km/h (0 Bft)
26.08.2019 05:40 13,2 °C 96 % 1016,8 hPa 0,0 mm 0,0 km/h (0 Bft) O-NO 68 ° 0 min 0,000 mm 0,0 UV-I 0 W/m² 12,6 °C 13,2 °C 0,0 km/h (0 Bft)
26.08.2019 05:41 13,2 °C 96 % 1016,9 hPa 0,0 mm 0,0 km/h (0 Bft) O-NO 68 ° 0 min 0,000 mm 0,0 UV-I 0 W/m² 12,6 °C 13,2 °C 0,0 km/h (0 Bft)
26.08.2019 05:42 13,2 °C 96 % 1016,9 hPa 0,0 mm 0,0 km/h (0 Bft) O-NO 68 ° 0 min 0,000 mm 0,0 UV-I 0 W/m² 12,6 °C 13,2 °C 0,0 km/h (0 Bft)
26.08.2019 05:43 13,1 °C 96 % 1016,9 hPa 0,0 mm 0,0 km/h (0 Bft) O-NO 68 ° 0 min 0,000 mm 0,0 UV-I 0 W/m² 12,5 °C 13,1 °C 0,0 km/h (0 Bft)
26.08.2019 05:44 13,1 °C 96 % 1016,9 hPa 0,0 mm 0,0 km/h (0 Bft) O-NO 68 ° 0 min 0,000 mm 0,0 UV-I 0 W/m² 12,5 °C 13,1 °C 0,0 km/h (0 Bft)
26.08.2019 05:45 13,0 °C 96 % 1016,9 hPa 0,0 mm 0,0 km/h (0 Bft) O-NO 68 ° 0 min 0,000 mm 0,0 UV-I 0 W/m² 12,4 °C 13,0 °C 0,0 km/h (0 Bft)
26.08.2019 05:46 13,0 °C 96 % 1016,9 hPa 0,0 mm 0,0 km/h (0 Bft) O-NO 68 ° 0 min 0,000 mm 0,0 UV-I 0 W/m² 12,4 °C 13,0 °C 0,0 km/h (0 Bft)
26.08.2019 05:47 13,1 °C 96 % 1016,9 hPa 0,0 mm 0,0 km/h (0 Bft) O-NO 68 ° 0 min 0,000 mm 0,0 UV-I 0 W/m² 12,5 °C 13,1 °C 0,0 km/h (0 Bft)
26.08.2019 05:48 13,2 °C 96 % 1016,9 hPa 0,0 mm 0,0 km/h (0 Bft) O-NO 68 ° 0 min 0,000 mm 0,0 UV-I 0 W/m² 12,6 °C 13,2 °C 0,0 km/h (0 Bft)
26.08.2019 05:49 13,3 °C 96 % 1016,9 hPa 0,0 mm 0,0 km/h (0 Bft) O-NO 68 ° 0 min 0,000 mm 0,0 UV-I 0 W/m² 12,7 °C 13,3 °C 0,0 km/h (0 Bft)
26.08.2019 05:50 13,4 °C 96 % 1016,9 hPa 0,0 mm 0,0 km/h (0 Bft) O-NO 68 ° 0 min 0,000 mm 0,0 UV-I 0 W/m² 12,8 °C 13,4 °C 0,0 km/h (0 Bft)
26.08.2019 05:51 13,4 °C 96 % 1016,9 hPa 0,0 mm 0,0 km/h (0 Bft) O-NO 68 ° 0 min 0,000 mm 0,0 UV-I 0 W/m² 12,8 °C 13,4 °C 0,0 km/h (0 Bft)
26.08.2019 05:52 13,3 °C 96 % 1016,9 hPa 0,0 mm 0,0 km/h (0 Bft) O-NO 68 ° 0 min 0,000 mm 0,0 UV-I 0 W/m² 12,7 °C 13,3 °C 0,0 km/h (0 Bft)
26.08.2019 05:53 13,3 °C 96 % 1016,9 hPa 0,0 mm 0,0 km/h (0 Bft) O-NO 68 ° 0 min 0,000 mm 0,0 UV-I 0 W/m² 12,7 °C 13,3 °C 0,0 km/h (0 Bft)
26.08.2019 05:54 13,3 °C 96 % 1016,9 hPa 0,0 mm 0,0 km/h (0 Bft) O-NO 68 ° 0 min 0,000 mm 0,0 UV-I 0 W/m² 12,7 °C 13,3 °C 0,0 km/h (0 Bft)
26.08.2019 05:55 13,3 °C 96 % 1016,9 hPa 0,0 mm 0,0 km/h (0 Bft) O-NO 68 ° 0 min 0,000 mm 0,0 UV-I 0 W/m² 12,7 °C 13,3 °C 0,0 km/h (0 Bft)
26.08.2019 05:56 13,2 °C 96 % 1016,9 hPa 0,0 mm 0,0 km/h (0 Bft) O-NO 68 ° 0 min 0,000 mm 0,0 UV-I 0 W/m² 12,6 °C 13,2 °C 0,0 km/h (0 Bft)
26.08.2019 05:57 13,2 °C 96 % 1016,9 hPa 0,0 mm 0,0 km/h (0 Bft) O-NO 68 ° 0 min 0,000 mm 0,0 UV-I 0 W/m² 12,6 °C 13,2 °C 0,0 km/h (0 Bft)
26.08.2019 05:58 13,2 °C 95 % 1017,0 hPa 0,0 mm 0,0 km/h (0 Bft) O-NO 68 ° 0 min 0,000 mm 0,0 UV-I 0 W/m² 12,4 °C 13,2 °C 0,0 km/h (0 Bft)
26.08.2019 05:59 13,2 °C 96 % 1016,9 hPa 0,0 mm 0,0 km/h (0 Bft) O-NO 68 ° 0 min 0,000 mm 0,0 UV-I 0 W/m² 12,6 °C 13,2 °C 0,0 km/h (0 Bft)
26.08.2019 06:00 13,2 °C 96 % 1016,9 hPa 0,0 mm 0,0 km/h (0 Bft) O-NO 68 ° 0 min 0,000 mm 0,0 UV-I 0 W/m² 12,6 °C 13,2 °C 0,0 km/h (0 Bft)
26.08.2019 06:01 13,2 °C 96 % 1016,9 hPa 0,0 mm 0,0 km/h (0 Bft) O-NO 68 ° 0 min 0,000 mm 0,0 UV-I 0 W/m² 12,6 °C 13,2 °C 0,0 km/h (0 Bft)
26.08.2019 06:02 13,1 °C 95 % 1016,9 hPa 0,0 mm 0,0 km/h (0 Bft) O-NO 68 ° 0 min 0,000 mm 0,0 UV-I 0 W/m² 12,3 °C 13,1 °C 0,0 km/h (0 Bft)
26.08.2019 06:03 13,1 °C 96 % 1016,9 hPa 0,0 mm 0,0 km/h (0 Bft) O-NO 68 ° 0 min 0,000 mm 0,0 UV-I 0 W/m² 12,5 °C 13,1 °C 0,0 km/h (0 Bft)
26.08.2019 06:04 13,1 °C 96 % 1016,9 hPa 0,0 mm 0,0 km/h (0 Bft) O-NO 68 ° 0 min 0,000 mm 0,0 UV-I 0 W/m² 12,5 °C 13,1 °C 0,0 km/h (0 Bft)
26.08.2019 06:05 13,0 °C 96 % 1016,8 hPa 0,0 mm 0,0 km/h (0 Bft) O-NO 68 ° 0 min 0,000 mm 0,0 UV-I 0 W/m² 12,4 °C 13,0 °C 0,0 km/h (0 Bft)
26.08.2019 06:06 13,1 °C 96 % 1016,8 hPa 0,0 mm 0,0 km/h (0 Bft) O-NO 68 ° 0 min 0,000 mm 0,0 UV-I 0 W/m² 12,5 °C 13,1 °C 0,0 km/h (0 Bft)
26.08.2019 06:07 13,0 °C 96 % 1016,9 hPa 0,0 mm 0,0 km/h (0 Bft) O-NO 68 ° 0 min 0,000 mm 0,0 UV-I 0 W/m² 12,4 °C 13,0 °C 0,0 km/h (0 Bft)
26.08.2019 06:08 13,0 °C 96 % 1016,8 hPa 0,0 mm 0,0 km/h (0 Bft) O-NO 68 ° 0 min 0,000 mm 0,0 UV-I 0 W/m² 12,4 °C 13,0 °C 0,0 km/h (0 Bft)
26.08.2019 06:09 12,9 °C 96 % 1016,8 hPa 0,0 mm 0,0 km/h (0 Bft) O-NO 68 ° 0 min 0,000 mm 0,0 UV-I 0 W/m² 12,3 °C 12,9 °C 0,0 km/h (0 Bft)
26.08.2019 06:10 12,9 °C 96 % 1016,8 hPa 0,0 mm 0,0 km/h (0 Bft) O-NO 68 ° 0 min 0,000 mm 0,0 UV-I 0 W/m² 12,3 °C 12,9 °C 0,0 km/h (0 Bft)
26.08.2019 06:11 12,9 °C 96 % 1016,8 hPa 0,0 mm 0,0 km/h (0 Bft) O-NO 68 ° 0 min 0,000 mm 0,0 UV-I 0 W/m² 12,3 °C 12,9 °C 0,0 km/h (0 Bft)
26.08.2019 06:12 12,9 °C 96 % 1016,8 hPa 0,0 mm 0,0 km/h (0 Bft) O-NO 68 ° 0 min 0,000 mm 0,0 UV-I 0 W/m² 12,3 °C 12,9 °C 0,0 km/h (0 Bft)
26.08.2019 06:13 12,8 °C 95 % 1016,8 hPa 0,0 mm 0,0 km/h (0 Bft) O-NO 68 ° 0 min 0,000 mm 0,0 UV-I 0 W/m² 12,0 °C 12,8 °C 0,0 km/h (0 Bft)
26.08.2019 06:14 12,8 °C 95 % 1016,8 hPa 0,0 mm 0,0 km/h (0 Bft) O-NO 68 ° 0 min 0,000 mm 0,0 UV-I 0 W/m² 12,0 °C 12,8 °C 0,0 km/h (0 Bft)
26.08.2019 06:15 12,8 °C 95 % 1016,8 hPa 0,0 mm 0,0 km/h (0 Bft) O-NO 68 ° 0 min 0,000 mm 0,0 UV-I 0 W/m² 12,0 °C 12,8 °C 0,0 km/h (0 Bft)
26.08.2019 06:16 12,8 °C 96 % 1016,8 hPa 0,0 mm 0,0 km/h (0 Bft) O-NO 68 ° 0 min 0,000 mm 0,0 UV-I 0 W/m² 12,2 °C 12,8 °C 0,0 km/h (0 Bft)
26.08.2019 06:17 12,9 °C 96 % 1016,8 hPa 0,0 mm 0,0 km/h (0 Bft) O-NO 68 ° 0 min 0,000 mm 0,0 UV-I 0 W/m² 12,3 °C 12,9 °C 0,0 km/h (0 Bft)
26.08.2019 06:18 12,9 °C 96 % 1016,8 hPa 0,0 mm 0,0 km/h (0 Bft) O-NO 68 ° 0 min 0,000 mm 0,0 UV-I 0 W/m² 12,3 °C 12,9 °C 0,0 km/h (0 Bft)
26.08.2019 06:19 12,9 °C 96 % 1016,8 hPa 0,0 mm 0,0 km/h (0 Bft) O-NO 68 ° 0 min 0,000 mm 0,0 UV-I 0 W/m² 12,3 °C 12,9 °C 0,0 km/h (0 Bft)
26.08.2019 06:20 12,9 °C 96 % 1016,8 hPa 0,0 mm 0,0 km/h (0 Bft) O-NO 68 ° 0 min 0,000 mm 0,0 UV-I 0 W/m² 12,3 °C 12,9 °C 0,0 km/h (0 Bft)
26.08.2019 06:21 12,9 °C 96 % 1016,8 hPa 0,0 mm 0,0 km/h (0 Bft) O-NO 68 ° 0 min 0,000 mm 0,0 UV-I 0 W/m² 12,3 °C 12,9 °C 0,0 km/h (0 Bft)
26.08.2019 06:22 12,8 °C 96 % 1016,8 hPa 0,0 mm 0,0 km/h (0 Bft) O-NO 68 ° 0 min 0,000 mm 0,0 UV-I 0 W/m² 12,2 °C 12,8 °C 0,0 km/h (0 Bft)
26.08.2019 06:23 12,8 °C 96 % 1016,9 hPa 0,0 mm 0,0 km/h (0 Bft) O-NO 68 ° 0 min 0,000 mm 0,0 UV-I 0 W/m² 12,2 °C 12,8 °C 0,0 km/h (0 Bft)
26.08.2019 06:24 12,9 °C 96 % 1016,9 hPa 0,0 mm 0,0 km/h (0 Bft) O-NO 68 ° 0 min 0,000 mm 0,0 UV-I 0 W/m² 12,3 °C 12,9 °C 0,0 km/h (0 Bft)
26.08.2019 06:25 12,8 °C 96 % 1016,9 hPa 0,0 mm 0,0 km/h (0 Bft) O-NO 68 ° 0 min 0,000 mm 0,0 UV-I 0 W/m² 12,2 °C 12,8 °C 0,0 km/h (0 Bft)
26.08.2019 06:26 12,9 °C 96 % 1016,9 hPa 0,0 mm 0,0 km/h (0 Bft) O-NO 68 ° 0 min 0,000 mm 0,0 UV-I 0 W/m² 12,3 °C 12,9 °C 0,0 km/h (0 Bft)
26.08.2019 06:27 12,9 °C 96 % 1016,9 hPa 0,0 mm 0,0 km/h (0 Bft) O-NO 68 ° 0 min 0,000 mm 0,0 UV-I 0 W/m² 12,3 °C 12,9 °C 0,0 km/h (0 Bft)
26.08.2019 06:28 12,9 °C 96 % 1016,8 hPa 0,0 mm 0,0 km/h (0 Bft) O-NO 68 ° 0 min 0,000 mm 0,0 UV-I 5 W/m² 12,3 °C 12,9 °C 0,0 km/h (0 Bft)
26.08.2019 06:29 12,9 °C 96 % 1016,9 hPa 0,0 mm 0,0 km/h (0 Bft) O-NO 68 ° 0 min 0,000 mm 0,0 UV-I 5 W/m² 12,3 °C 12,9 °C 0,0 km/h (0 Bft)
26.08.2019 06:30 12,8 °C 96 % 1016,8 hPa 0,0 mm 0,0 km/h (0 Bft) O-NO 68 ° 0 min 0,000 mm 0,0 UV-I 5 W/m² 12,2 °C 12,8 °C 0,0 km/h (0 Bft)
26.08.2019 06:31 12,8 °C 96 % 1016,8 hPa 0,0 mm 0,0 km/h (0 Bft) O-NO 68 ° 0 min 0,000 mm 0,0 UV-I 5 W/m² 12,2 °C 12,8 °C 0,0 km/h (0 Bft)
26.08.2019 06:32 12,8 °C 96 % 1016,9 hPa 0,0 mm 0,0 km/h (0 Bft) O-NO 68 ° 0 min 0,000 mm 0,0 UV-I 5 W/m² 12,2 °C 12,8 °C 0,0 km/h (0 Bft)
26.08.2019 06:33 12,8 °C 96 % 1016,9 hPa 0,0 mm 0,0 km/h (0 Bft) O-NO 68 ° 0 min 0,000 mm 0,0 UV-I 7 W/m² 12,2 °C 12,8 °C 0,0 km/h (0 Bft)
26.08.2019 06:34 12,8 °C 96 % 1016,9 hPa 0,0 mm 0,0 km/h (0 Bft) O-NO 68 ° 0 min 0,000 mm 0,0 UV-I 7 W/m² 12,2 °C 12,8 °C 0,0 km/h (0 Bft)
26.08.2019 06:35 12,8 °C 96 % 1016,9 hPa 0,0 mm 0,0 km/h (0 Bft) O-NO 68 ° 0 min 0,000 mm 0,0 UV-I 7 W/m² 12,2 °C 12,8 °C 0,0 km/h (0 Bft)
26.08.2019 06:36 12,7 °C 96 % 1016,9 hPa 0,0 mm 0,0 km/h (0 Bft) O-NO 68 ° 0 min 0,000 mm 0,0 UV-I 7 W/m² 12,1 °C 12,7 °C 0,0 km/h (0 Bft)
26.08.2019 06:37 12,7 °C 96 % 1016,9 hPa 0,0 mm 0,0 km/h (0 Bft) O-NO 68 ° 0 min 0,000 mm 0,0 UV-I 9 W/m² 12,1 °C 12,7 °C 0,0 km/h (0 Bft)
26.08.2019 06:38 12,7 °C 96 % 1016,9 hPa 0,0 mm 0,0 km/h (0 Bft) O-NO 68 ° 0 min 0,000 mm 0,0 UV-I 9 W/m² 12,1 °C 12,7 °C 0,0 km/h (0 Bft)
26.08.2019 06:39 12,7 °C 96 % 1016,9 hPa 0,0 mm 0,0 km/h (0 Bft) O-NO 68 ° 0 min 0,000 mm 0,0 UV-I 9 W/m² 12,1 °C 12,7 °C 0,0 km/h (0 Bft)
26.08.2019 06:40 12,8 °C 96 % 1016,9 hPa 0,0 mm 0,0 km/h (0 Bft) O-NO 68 ° 0 min 0,000 mm 0,0 UV-I 9 W/m² 12,2 °C 12,8 °C 0,0 km/h (0 Bft)
26.08.2019 06:41 12,8 °C 96 % 1016,9 hPa 0,0 mm 0,0 km/h (0 Bft) O-NO 68 ° 0 min 0,000 mm 0,0 UV-I 9 W/m² 12,2 °C 12,8 °C 0,0 km/h (0 Bft)
26.08.2019 06:42 12,8 °C 96 % 1016,9 hPa 0,0 mm 0,0 km/h (0 Bft) O-NO 68 ° 0 min 0,000 mm 0,0 UV-I 11 W/m² 12,2 °C 12,8 °C 0,0 km/h (0 Bft)
26.08.2019 06:43 12,9 °C 96 % 1016,9 hPa 0,0 mm 0,0 km/h (0 Bft) O-NO 68 ° 0 min 0,000 mm 0,0 UV-I 11 W/m² 12,3 °C 12,9 °C 0,0 km/h (0 Bft)
26.08.2019 06:44 12,9 °C 96 % 1017,0 hPa 0,0 mm 0,0 km/h (0 Bft) O-NO 68 ° 0 min 0,000 mm 0,0 UV-I 11 W/m² 12,3 °C 12,9 °C 0,0 km/h (0 Bft)
26.08.2019 06:45 13,0 °C 96 % 1016,9 hPa 0,0 mm 0,0 km/h (0 Bft) O-NO 68 ° 0 min 0,000 mm 0,0 UV-I 11 W/m² 12,4 °C 13,0 °C 0,0 km/h (0 Bft)
26.08.2019 06:46 13,0 °C 96 % 1016,9 hPa 0,0 mm 0,0 km/h (0 Bft) O-NO 68 ° 0 min 0,000 mm 0,0 UV-I 11 W/m² 12,4 °C 13,0 °C 0,0 km/h (0 Bft)
26.08.2019 06:47 13,0 °C 96 % 1016,9 hPa 0,0 mm 0,0 km/h (0 Bft) O-NO 68 ° 0 min 0,000 mm 0,0 UV-I 11 W/m² 12,4 °C 13,0 °C 0,0 km/h (0 Bft)
26.08.2019 06:48 13,0 °C 96 % 1016,9 hPa 0,0 mm 0,0 km/h (0 Bft) O-NO 68 ° 0 min 0,000 mm 0,0 UV-I 12 W/m² 12,4 °C 13,0 °C 0,0 km/h (0 Bft)
26.08.2019 06:49 12,9 °C 96 % 1017,0 hPa 0,0 mm 0,0 km/h (0 Bft) O-NO 68 ° 0 min 0,000 mm 0,0 UV-I 12 W/m² 12,3 °C 12,9 °C 0,0 km/h (0 Bft)
26.08.2019 06:50 12,9 °C 96 % 1016,9 hPa 0,0 mm 0,0 km/h (0 Bft) O-NO 68 ° 0 min 0,000 mm 0,0 UV-I 12 W/m² 12,3 °C 12,9 °C 0,0 km/h (0 Bft)
26.08.2019 06:51 12,8 °C 96 % 1016,9 hPa 0,0 mm 0,0 km/h (0 Bft) O-NO 68 ° 0 min 0,000 mm 0,0 UV-I 12 W/m² 12,2 °C 12,8 °C 0,0 km/h (0 Bft)
26.08.2019 06:52 12,8 °C 96 % 1016,9 hPa 0,0 mm 0,0 km/h (0 Bft) O-NO 68 ° 0 min 0,000 mm 0,0 UV-I 14 W/m² 12,2 °C 12,8 °C 0,0 km/h (0 Bft)
26.08.2019 06:53 12,8 °C 96 % 1016,9 hPa 0,0 mm 0,0 km/h (0 Bft) O-NO 68 ° 0 min 0,000 mm 0,0 UV-I 14 W/m² 12,2 °C 12,8 °C 0,0 km/h (0 Bft)
26.08.2019 06:54 12,8 °C 96 % 1017,0 hPa 0,0 mm 0,0 km/h (0 Bft) O-NO 68 ° 0 min 0,000 mm 0,0 UV-I 14 W/m² 12,2 °C 12,8 °C 0,0 km/h (0 Bft)
26.08.2019 06:55 12,8 °C 96 % 1017,0 hPa 0,0 mm 0,0 km/h (0 Bft) O-NO 68 ° 0 min 0,000 mm 0,0 UV-I 14 W/m² 12,2 °C 12,8 °C 0,0 km/h (0 Bft)
26.08.2019 06:56 12,8 °C 96 % 1017,0 hPa 0,0 mm 0,0 km/h (0 Bft) O-NO 68 ° 0 min 0,000 mm 0,0 UV-I 16 W/m² 12,2 °C 12,8 °C 0,0 km/h (0 Bft)
26.08.2019 06:57 12,8 °C 96 % 1017,0 hPa 0,0 mm 0,0 km/h (0 Bft) O-NO 68 ° 0 min 0,000 mm 0,0 UV-I 16 W/m² 12,2 °C 12,8 °C 0,0 km/h (0 Bft)
26.08.2019 06:58 12,8 °C 96 % 1017,0 hPa 0,0 mm 0,0 km/h (0 Bft) O-NO 68 ° 0 min 0,000 mm 0,0 UV-I 16 W/m² 12,2 °C 12,8 °C 0,0 km/h (0 Bft)
26.08.2019 06:59 12,8 °C 96 % 1017,0 hPa 0,0 mm 0,0 km/h (0 Bft) O-NO 68 ° 0 min 0,000 mm 0,0 UV-I 16 W/m² 12,2 °C 12,8 °C 0,0 km/h (0 Bft)
26.08.2019 07:00 12,8 °C 96 % 1017,0 hPa 0,0 mm 0,0 km/h (0 Bft) O-NO 68 ° 0 min 0,000 mm 0,0 UV-I 18 W/m² 12,2 °C 12,8 °C 0,0 km/h (0 Bft)
26.08.2019 07:01 12,9 °C 96 % 1017,0 hPa 0,0 mm 0,0 km/h (0 Bft) O-NO 68 ° 0 min 0,000 mm 0,0 UV-I 18 W/m² 12,3 °C 12,9 °C 0,0 km/h (0 Bft)
26.08.2019 07:02 12,9 °C 96 % 1017,0 hPa 0,0 mm 0,0 km/h (0 Bft) O-NO 68 ° 0 min 0,000 mm 0,0 UV-I 18 W/m² 12,3 °C 12,9 °C 0,0 km/h (0 Bft)
26.08.2019 07:03 12,9 °C 96 % 1017,0 hPa 0,0 mm 0,0 km/h (0 Bft) O-NO 68 ° 0 min 0,000 mm 0,0 UV-I 18 W/m² 12,3 °C 12,9 °C 0,0 km/h (0 Bft)
26.08.2019 07:04 12,8 °C 96 % 1017,0 hPa 0,0 mm 0,0 km/h (0 Bft) O-NO 68 ° 0 min 0,000 mm 0,0 UV-I 18 W/m² 12,2 °C 12,8 °C 0,0 km/h (0 Bft)
26.08.2019 07:05 12,8 °C 96 % 1017,0 hPa 0,0 mm 0,0 km/h (0 Bft) O-NO 68 ° 0 min 0,000 mm 0,0 UV-I 19 W/m² 12,2 °C 12,8 °C 0,0 km/h (0 Bft)
26.08.2019 07:06 12,9 °C 96 % 1017,0 hPa 0,0 mm 0,0 km/h (0 Bft) O-NO 68 ° 0 min 0,000 mm 0,0 UV-I 19 W/m² 12,3 °C 12,9 °C 0,0 km/h (0 Bft)
26.08.2019 07:07 12,9 °C 96 % 1017,0 hPa 0,0 mm 0,0 km/h (0 Bft) O-NO 68 ° 0 min 0,000 mm 0,0 UV-I 19 W/m² 12,3 °C 12,9 °C 0,0 km/h (0 Bft)
26.08.2019 07:08 12,9 °C 96 % 1017,0 hPa 0,0 mm 0,0 km/h (0 Bft) O-NO 68 ° 0 min 0,000 mm 0,0 UV-I 19 W/m² 12,3 °C 12,9 °C 0,0 km/h (0 Bft)
26.08.2019 07:09 13,0 °C 96 % 1017,0 hPa 0,0 mm 0,0 km/h (0 Bft) O-NO 68 ° 0 min 0,000 mm 0,0 UV-I 21 W/m² 12,4 °C 13,0 °C 0,0 km/h (0 Bft)
26.08.2019 07:10 13,1 °C 96 % 1017,0 hPa 0,0 mm 0,0 km/h (0 Bft) O-NO 68 ° 0 min 0,000 mm 0,0 UV-I 21 W/m² 12,5 °C 13,1 °C 0,0 km/h (0 Bft)
26.08.2019 07:11 12,9 °C 96 % 1017,0 hPa 0,0 mm 0,0 km/h (0 Bft) O-NO 68 ° 0 min 0,000 mm 0,0 UV-I 21 W/m² 12,3 °C 12,9 °C 0,0 km/h (0 Bft)
26.08.2019 07:12 12,9 °C 96 % 1017,0 hPa 0,0 mm 0,0 km/h (0 Bft) O-NO 68 ° 0 min 0,000 mm 0,0 UV-I 21 W/m² 12,3 °C 12,9 °C 0,0 km/h (0 Bft)
26.08.2019 07:13 12,9 °C 96 % 1016,9 hPa 0,0 mm 0,0 km/h (0 Bft) O-NO 68 ° 0 min 0,000 mm 0,0 UV-I 21 W/m² 12,3 °C 12,9 °C 0,0 km/h (0 Bft)
26.08.2019 07:14 12,8 °C 96 % 1016,9 hPa 0,0 mm 0,0 km/h (0 Bft) O-NO 68 ° 0 min 0,000 mm 0,0 UV-I 21 W/m² 12,2 °C 12,8 °C 0,0 km/h (0 Bft)
26.08.2019 07:15 12,8 °C 96 % 1017,0 hPa 0,0 mm 0,0 km/h (0 Bft) O-NO 68 ° 0 min 0,000 mm 0,0 UV-I 23 W/m² 12,2 °C 12,8 °C 0,0 km/h (0 Bft)
26.08.2019 07:16 12,8 °C 96 % 1017,0 hPa 0,0 mm 0,0 km/h (0 Bft) O-NO 68 ° 0 min 0,000 mm 0,0 UV-I 23 W/m² 12,2 °C 12,8 °C 0,0 km/h (0 Bft)
26.08.2019 07:17 12,8 °C 96 % 1017,0 hPa 0,0 mm 0,0 km/h (0 Bft) O-NO 68 ° 0 min 0,000 mm 0,0 UV-I 23 W/m² 12,2 °C 12,8 °C 0,0 km/h (0 Bft)
26.08.2019 07:18 12,9 °C 96 % 1017,0 hPa 0,2 mm 0,0 km/h (0 Bft) O-NO 68 ° 0 min 0,000 mm 0,0 UV-I 25 W/m² 12,3 °C 12,9 °C 0,0 km/h (0 Bft)
26.08.2019 07:19 12,9 °C 96 % 1017,0 hPa 0,0 mm 0,0 km/h (0 Bft) O-NO 68 ° 0 min 0,000 mm 0,0 UV-I 25 W/m² 12,3 °C 12,9 °C 0,0 km/h (0 Bft)
26.08.2019 07:20 12,9 °C 96 % 1017,0 hPa 0,0 mm 0,0 km/h (0 Bft) O-NO 68 ° 0 min 0,000 mm 0,0 UV-I 25 W/m² 12,3 °C 12,9 °C 0,0 km/h (0 Bft)
26.08.2019 07:21 12,9 °C 96 % 1016,9 hPa 0,0 mm 0,0 km/h (0 Bft) O-NO 68 ° 0 min 0,000 mm 0,0 UV-I 26 W/m² 12,3 °C 12,9 °C 0,0 km/h (0 Bft)
26.08.2019 07:22 12,9 °C 96 % 1017,0 hPa 0,0 mm 0,0 km/h (0 Bft) O-NO 68 ° 0 min 0,000 mm 0,0 UV-I 26 W/m² 12,3 °C 12,9 °C 0,0 km/h (0 Bft)
26.08.2019 07:23 12,9 °C 96 % 1017,0 hPa 0,0 mm 0,0 km/h (0 Bft) O-NO 68 ° 0 min 0,000 mm 0,0 UV-I 28 W/m² 12,3 °C 12,9 °C 0,0 km/h (0 Bft)
26.08.2019 07:24 12,8 °C 96 % 1017,0 hPa 0,0 mm 0,0 km/h (0 Bft) O-NO 68 ° 0 min 0,000 mm 0,0 UV-I 28 W/m² 12,2 °C 12,8 °C 0,0 km/h (0 Bft)
26.08.2019 07:25 12,8 °C 96 % 1017,0 hPa 0,0 mm 0,0 km/h (0 Bft) O-NO 68 ° 0 min 0,000 mm 0,0 UV-I 28 W/m² 12,2 °C 12,8 °C 0,0 km/h (0 Bft)
26.08.2019 07:26 12,8 °C 96 % 1017,0 hPa 0,0 mm 0,0 km/h (0 Bft) O-NO 68 ° 0 min 0,000 mm 0,0 UV-I 30 W/m² 12,2 °C 12,8 °C 0,0 km/h (0 Bft)
26.08.2019 07:27 12,8 °C 96 % 1017,1 hPa 0,0 mm 0,0 km/h (0 Bft) O-NO 68 ° 0 min 0,000 mm 0,0 UV-I 30 W/m² 12,2 °C 12,8 °C 0,0 km/h (0 Bft)
26.08.2019 07:28 12,8 °C 96 % 1017,1 hPa 0,0 mm 0,0 km/h (0 Bft) O-NO 68 ° 0 min 0,000 mm 0,0 UV-I 32 W/m² 12,2 °C 12,8 °C 0,0 km/h (0 Bft)
26.08.2019 07:29 12,8 °C 96 % 1017,1 hPa 0,0 mm 0,0 km/h (0 Bft) O-NO 68 ° 0 min 0,000 mm 0,0 UV-I 32 W/m² 12,2 °C 12,8 °C 0,0 km/h (0 Bft)
26.08.2019 07:30 12,9 °C 96 % 1017,1 hPa 0,0 mm 0,0 km/h (0 Bft) O-NO 68 ° 0 min 0,000 mm 0,0 UV-I 33 W/m² 12,3 °C 12,9 °C 0,0 km/h (0 Bft)
26.08.2019 07:31 13,1 °C 96 % 1017,1 hPa 0,0 mm 0,0 km/h (0 Bft) O-NO 68 ° 0 min 0,000 mm 0,0 UV-I 33 W/m² 12,5 °C 13,1 °C 0,0 km/h (0 Bft)
26.08.2019 07:32 13,1 °C 96 % 1017,1 hPa 0,0 mm 0,0 km/h (0 Bft) O-NO 68 ° 0 min 0,000 mm 0,0 UV-I 35 W/m² 12,5 °C 13,1 °C 0,0 km/h (0 Bft)
26.08.2019 07:33 13,1 °C 96 % 1017,1 hPa 0,0 mm 0,0 km/h (0 Bft) O-NO 68 ° 0 min 0,000 mm 0,0 UV-I 37 W/m² 12,5 °C 13,1 °C 0,0 km/h (0 Bft)
26.08.2019 07:34 13,1 °C 96 % 1017,1 hPa 0,0 mm 0,0 km/h (0 Bft) O-NO 68 ° 0 min 0,000 mm 0,0 UV-I 39 W/m² 12,5 °C 13,1 °C 0,0 km/h (0 Bft)
26.08.2019 07:35 13,1 °C 96 % 1017,1 hPa 0,0 mm 0,0 km/h (0 Bft) O-NO 68 ° 0 min 0,000 mm 0,0 UV-I 39 W/m² 12,5 °C 13,1 °C 0,0 km/h (0 Bft)
26.08.2019 07:36 13,1 °C 96 % 1017,1 hPa 0,0 mm 0,0 km/h (0 Bft) O-NO 68 ° 0 min 0,000 mm 0,0 UV-I 39 W/m² 12,5 °C 13,1 °C 0,0 km/h (0 Bft)
26.08.2019 07:37 13,1 °C 96 % 1017,1 hPa 0,0 mm 0,0 km/h (0 Bft) O-NO 68 ° 0 min 0,000 mm 0,0 UV-I 39 W/m² 12,5 °C 13,1 °C 0,0 km/h (0 Bft)
26.08.2019 07:38 13,1 °C 96 % 1017,1 hPa 0,0 mm 0,0 km/h (0 Bft) O-NO 68 ° 0 min 0,000 mm 0,0 UV-I 39 W/m² 12,5 °C 13,1 °C 0,0 km/h (0 Bft)
26.08.2019 07:39 13,1 °C 96 % 1017,1 hPa 0,0 mm 0,0 km/h (0 Bft) O-NO 68 ° 0 min 0,000 mm 0,0 UV-I 39 W/m² 12,5 °C 13,1 °C 0,0 km/h (0 Bft)
26.08.2019 07:40 13,1 °C 96 % 1017,1 hPa 0,0 mm 0,0 km/h (0 Bft) O-NO 68 ° 0 min 0,000 mm 0,0 UV-I 39 W/m² 12,5 °C 13,1 °C 0,0 km/h (0 Bft)
26.08.2019 07:41 13,1 °C 96 % 1017,1 hPa 0,0 mm 0,0 km/h (0 Bft) O-NO 68 ° 0 min 0,000 mm 0,0 UV-I 40 W/m² 12,5 °C 13,1 °C 0,0 km/h (0 Bft)
26.08.2019 07:42 13,1 °C 96 % 1017,1 hPa 0,0 mm 0,0 km/h (0 Bft) O-NO 68 ° 0 min 0,000 mm 0,0 UV-I 42 W/m² 12,5 °C 13,1 °C 0,0 km/h (0 Bft)
26.08.2019 07:43 13,2 °C 96 % 1017,1 hPa 0,0 mm 0,0 km/h (0 Bft) O-NO 68 ° 0 min 0,000 mm 0,0 UV-I 46 W/m² 12,6 °C 13,2 °C 0,0 km/h (0 Bft)
26.08.2019 07:44 13,2 °C 96 % 1017,1 hPa 0,0 mm 0,0 km/h (0 Bft) O-NO 68 ° 0 min 0,000 mm 0,0 UV-I 49 W/m² 12,6 °C 13,2 °C 0,0 km/h (0 Bft)
26.08.2019 07:45 13,2 °C 96 % 1017,1 hPa 0,0 mm 0,0 km/h (0 Bft) O-NO 68 ° 0 min 0,000 mm 0,5 UV-I 63 W/m² 12,6 °C 13,2 °C 0,0 km/h (0 Bft)
26.08.2019 07:46 13,2 °C 96 % 1017,1 hPa 0,0 mm 0,0 km/h (0 Bft) O-NO 68 ° 0 min 0,000 mm 0,5 UV-I 69 W/m² 12,6 °C 13,2 °C 0,0 km/h (0 Bft)
26.08.2019 07:47 13,2 °C 96 % 1017,1 hPa 0,0 mm 0,0 km/h (0 Bft) O-NO 68 ° 0 min 0,000 mm 0,5 UV-I 100 W/m² 12,6 °C 13,2 °C 0,0 km/h (0 Bft)
26.08.2019 07:48 13,3 °C 96 % 1017,1 hPa 0,0 mm 0,0 km/h (0 Bft) O-NO 68 ° 0 min 0,000 mm 0,5 UV-I 104 W/m² 12,7 °C 13,3 °C 0,0 km/h (0 Bft)
26.08.2019 07:49 13,3 °C 96 % 1017,1 hPa 0,0 mm 0,0 km/h (0 Bft) O-NO 68 ° 0 min 0,000 mm 0,5 UV-I 113 W/m² 12,7 °C 13,3 °C 0,0 km/h (0 Bft)
26.08.2019 07:50 13,3 °C 96 % 1017,1 hPa 0,0 mm 0,0 km/h (0 Bft) O-NO 68 ° 0 min 0,000 mm 0,5 UV-I 120 W/m² 12,7 °C 13,3 °C 0,0 km/h (0 Bft)
26.08.2019 07:51 13,3 °C 96 % 1017,1 hPa 0,0 mm 0,0 km/h (0 Bft) O-NO 68 ° 0 min 0,000 mm 0,6 UV-I 123 W/m² 12,7 °C 13,3 °C 0,0 km/h (0 Bft)
26.08.2019 07:52 13,3 °C 96 % 1017,1 hPa 0,0 mm 0,0 km/h (0 Bft) O-NO 68 ° 0 min 0,000 mm 0,6 UV-I 125 W/m² 12,7 °C 13,3 °C 0,0 km/h (0 Bft)
26.08.2019 07:53 13,4 °C 96 % 1017,1 hPa 0,0 mm 0,0 km/h (0 Bft) O-NO 68 ° 0 min 0,000 mm 0,6 UV-I 130 W/m² 12,8 °C 13,4 °C 0,0 km/h (0 Bft)
26.08.2019 07:54 13,4 °C 96 % 1017,1 hPa 0,0 mm 0,0 km/h (0 Bft) O-NO 68 ° 0 min 0,000 mm 0,6 UV-I 134 W/m² 12,8 °C 13,4 °C 0,0 km/h (0 Bft)
26.08.2019 07:55 13,4 °C 96 % 1017,1 hPa 0,0 mm 0,0 km/h (0 Bft) O-NO 68 ° 0 min 0,000 mm 0,6 UV-I 135 W/m² 12,8 °C 13,4 °C 0,0 km/h (0 Bft)
26.08.2019 07:56 13,5 °C 96 % 1017,1 hPa 0,0 mm 0,0 km/h (0 Bft) O-NO 68 ° 0 min 0,000 mm 0,6 UV-I 137 W/m² 12,9 °C 13,5 °C 0,0 km/h (0 Bft)
26.08.2019 07:57 13,7 °C 96 % 1017,1 hPa 0,0 mm 0,0 km/h (0 Bft) O-NO 68 ° 0 min 0,000 mm 0,6 UV-I 139 W/m² 13,1 °C 13,7 °C 0,0 km/h (0 Bft)
26.08.2019 07:58 13,7 °C 96 % 1017,1 hPa 0,0 mm 0,0 km/h (0 Bft) O-NO 68 ° 0 min 0,000 mm 0,6 UV-I 142 W/m² 13,1 °C 13,7 °C 0,0 km/h (0 Bft)
26.08.2019 07:59 13,7 °C 96 % 1017,1 hPa 0,0 mm 0,0 km/h (0 Bft) O-NO 68 ° 0 min 0,000 mm 0,6 UV-I 148 W/m² 13,1 °C 13,7 °C 0,0 km/h (0 Bft)
26.08.2019 08:00 13,8 °C 96 % 1017,2 hPa 0,0 mm 0,0 km/h (0 Bft) O-NO 68 ° 0 min 0,025 mm 0,7 UV-I 149 W/m² 13,2 °C 13,8 °C 0,0 km/h (0 Bft)
26.08.2019 08:01 13,8 °C 96 % 1017,1 hPa 0,0 mm 0,0 km/h (0 Bft) O-NO 68 ° 0 min 0,000 mm 0,7 UV-I 151 W/m² 13,2 °C 13,8 °C 0,0 km/h (0 Bft)
26.08.2019 08:02 13,8 °C 96 % 1017,1 hPa 0,0 mm 0,0 km/h (0 Bft) O-NO 68 ° 0 min 0,000 mm 0,7 UV-I 155 W/m² 13,2 °C 13,8 °C 0,0 km/h (0 Bft)
26.08.2019 08:03 13,8 °C 96 % 1017,1 hPa 0,0 mm 0,0 km/h (0 Bft) O-NO 68 ° 0 min 0,000 mm 0,7 UV-I 156 W/m² 13,2 °C 13,8 °C 0,0 km/h (0 Bft)
26.08.2019 08:04 13,8 °C 96 % 1017,1 hPa 0,0 mm 0,0 km/h (0 Bft) O-NO 68 ° 0 min 0,000 mm 0,7 UV-I 158 W/m² 13,2 °C 13,8 °C 0,0 km/h (0 Bft)
26.08.2019 08:05 13,9 °C 96 % 1017,2 hPa 0,0 mm 0,0 km/h (0 Bft) O-NO 68 ° 0 min 0,000 mm 0,7 UV-I 163 W/m² 13,3 °C 13,9 °C 0,0 km/h (0 Bft)
26.08.2019 08:06 14,0 °C 96 % 1017,1 hPa 0,0 mm 0,0 km/h (0 Bft) O-NO 68 ° 0 min 0,000 mm 0,7 UV-I 165 W/m² 13,4 °C 14,0 °C 0,0 km/h (0 Bft)
26.08.2019 08:07 14,0 °C 96 % 1017,1 hPa 0,0 mm 0,0 km/h (0 Bft) O-NO 68 ° 0 min 0,000 mm 0,8 UV-I 169 W/m² 13,4 °C 14,0 °C 0,0 km/h (0 Bft)
26.08.2019 08:08 14,1 °C 96 % 1017,2 hPa 0,0 mm 0,0 km/h (0 Bft) O-NO 68 ° 0 min 0,000 mm 0,8 UV-I 171 W/m² 13,5 °C 14,1 °C 0,0 km/h (0 Bft)
26.08.2019 08:09 14,1 °C 96 % 1017,2 hPa 0,0 mm 0,0 km/h (0 Bft) O-NO 68 ° 0 min 0,000 mm 0,8 UV-I 172 W/m² 13,5 °C 14,1 °C 0,0 km/h (0 Bft)
26.08.2019 08:10 14,2 °C 96 % 1017,1 hPa 0,0 mm 0,0 km/h (0 Bft) O-NO 68 ° 0 min 0,000 mm 0,8 UV-I 178 W/m² 13,6 °C 14,2 °C 0,0 km/h (0 Bft)
26.08.2019 08:11 14,3 °C 96 % 1017,1 hPa 0,0 mm 0,0 km/h (0 Bft) O-NO 68 ° 0 min 0,000 mm 0,8 UV-I 179 W/m² 13,7 °C 14,3 °C 0,0 km/h (0 Bft)
26.08.2019 08:12 14,3 °C 95 % 1017,1 hPa 0,0 mm 0,0 km/h (0 Bft) O-NO 68 ° 0 min 0,000 mm 0,8 UV-I 181 W/m² 13,5 °C 14,3 °C 0,0 km/h (0 Bft)
26.08.2019 08:13 14,5 °C 96 % 1017,1 hPa 0,0 mm 0,0 km/h (0 Bft) O-NO 68 ° 0 min 0,000 mm 0,8 UV-I 183 W/m² 13,9 °C 14,5 °C 0,0 km/h (0 Bft)
26.08.2019 08:14 14,7 °C 96 % 1017,1 hPa 0,0 mm 0,0 km/h (0 Bft) O-NO 68 ° 0 min 0,000 mm 0,8 UV-I 185 W/m² 14,1 °C 14,7 °C 0,0 km/h (0 Bft)
26.08.2019 08:15 14,8 °C 96 % 1017,1 hPa 0,0 mm 0,0 km/h (0 Bft) O-NO 68 ° 0 min 0,000 mm 0,8 UV-I 186 W/m² 14,2 °C 14,8 °C 0,0 km/h (0 Bft)
26.08.2019 08:16 14,8 °C 95 % 1017,1 hPa 0,0 mm 0,0 km/h (0 Bft) O-NO 68 ° 0 min 0,000 mm 0,9 UV-I 190 W/m² 14,0 °C 14,8 °C 0,0 km/h (0 Bft)
26.08.2019 08:17 14,7 °C 95 % 1017,2 hPa 0,0 mm 0,0 km/h (0 Bft) O-NO 68 ° 0 min 0,000 mm 0,9 UV-I 193 W/m² 13,9 °C 14,7 °C 0,0 km/h (0 Bft)
26.08.2019 08:18 14,7 °C 95 % 1017,1 hPa 0,0 mm 0,0 km/h (0 Bft) O-NO 68 ° 0 min 0,000 mm 0,9 UV-I 195 W/m² 13,9 °C 14,7 °C 0,0 km/h (0 Bft)
26.08.2019 08:19 14,8 °C 95 % 1017,1 hPa 0,0 mm 0,0 km/h (0 Bft) O-NO 68 ° 0 min 0,000 mm 0,9 UV-I 197 W/m² 14,0 °C 14,8 °C 0,0 km/h (0 Bft)
26.08.2019 08:20 14,8 °C 95 % 1017,1 hPa 0,0 mm 0,0 km/h (0 Bft) O-NO 68 ° 0 min 0,000 mm 0,9 UV-I 200 W/m² 14,0 °C 14,8 °C 0,0 km/h (0 Bft)
26.08.2019 08:21 14,8 °C 95 % 1017,1 hPa 0,0 mm 0,0 km/h (0 Bft) O-NO 68 ° 0 min 0,000 mm 0,9 UV-I 202 W/m² 14,0 °C 14,8 °C 0,0 km/h (0 Bft)
26.08.2019 08:22 14,9 °C 95 % 1017,1 hPa 0,0 mm 0,0 km/h (0 Bft) O-NO 68 ° 0 min 0,000 mm 0,9 UV-I 206 W/m² 14,1 °C 14,9 °C 0,0 km/h (0 Bft)
26.08.2019 08:23 14,9 °C 95 % 1017,1 hPa 0,0 mm 0,0 km/h (0 Bft) O-NO 68 ° 0 min 0,000 mm 1,0 UV-I 207 W/m² 14,1 °C 14,9 °C 0,0 km/h (0 Bft)
26.08.2019 08:24 15,0 °C 95 % 1017,0 hPa 0,0 mm 0,0 km/h (0 Bft) O-NO 68 ° 0 min 0,000 mm 1,0 UV-I 207 W/m² 14,2 °C 15,0 °C 0,0 km/h (0 Bft)
26.08.2019 08:25 15,1 °C 95 % 1017,1 hPa 0,0 mm 0,0 km/h (0 Bft) O-NO 68 ° 0 min 0,000 mm 1,0 UV-I 213 W/m² 14,3 °C 15,1 °C 0,0 km/h (0 Bft)
26.08.2019 08:26 15,4 °C 95 % 1017,1 hPa 0,0 mm 0,0 km/h (0 Bft) O-NO 68 ° 0 min 0,000 mm 1,0 UV-I 214 W/m² 14,6 °C 15,4 °C 0,0 km/h (0 Bft)
26.08.2019 08:27 15,6 °C 95 % 1017,1 hPa 0,0 mm 0,0 km/h (0 Bft) O-NO 68 ° 0 min 0,000 mm 1,0 UV-I 216 W/m² 14,8 °C 15,6 °C 0,0 km/h (0 Bft)
26.08.2019 08:28 15,7 °C 95 % 1017,1 hPa 0,0 mm 0,0 km/h (0 Bft) O-NO 68 ° 0 min 0,000 mm 1,0 UV-I 221 W/m² 14,9 °C 15,7 °C 0,0 km/h (0 Bft)
26.08.2019 08:29 15,8 °C 95 % 1017,1 hPa 0,0 mm 0,0 km/h (0 Bft) O-NO 68 ° 0 min 0,000 mm 1,0 UV-I 225 W/m² 15,0 °C 15,8 °C 0,0 km/h (0 Bft)
26.08.2019 08:30 15,8 °C 95 % 1017,0 hPa 0,0 mm 0,0 km/h (0 Bft) O-NO 68 ° 0 min 0,000 mm 1,1 UV-I 227 W/m² 15,0 °C 15,8 °C 0,0 km/h (0 Bft)
26.08.2019 08:31 15,7 °C 94 % 1017,0 hPa 0,0 mm 0,0 km/h (0 Bft) O-NO 68 ° 0 min 0,000 mm 1,1 UV-I 230 W/m² 14,7 °C 15,7 °C 0,0 km/h (0 Bft)
26.08.2019 08:32 15,8 °C 94 % 1017,0 hPa 0,0 mm 0,0 km/h (0 Bft) O-NO 68 ° 0 min 0,000 mm 1,1 UV-I 232 W/m² 14,8 °C 15,8 °C 0,0 km/h (0 Bft)
26.08.2019 08:33 15,8 °C 94 % 1016,9 hPa 0,0 mm 0,0 km/h (0 Bft) O-NO 68 ° 0 min 0,000 mm 1,1 UV-I 236 W/m² 14,8 °C 15,8 °C 0,0 km/h (0 Bft)
26.08.2019 08:34 15,8 °C 94 % 1016,9 hPa 0,0 mm 0,0 km/h (0 Bft) O-NO 68 ° 0 min 0,000 mm 1,1 UV-I 241 W/m² 14,8 °C 15,8 °C 0,0 km/h (0 Bft)
26.08.2019 08:35 15,9 °C 94 % 1017,0 hPa 0,0 mm 0,0 km/h (0 Bft) O-NO 68 ° 0 min 0,000 mm 1,1 UV-I 244 W/m² 14,9 °C 15,9 °C 0,0 km/h (0 Bft)
26.08.2019 08:36 16,1 °C 94 % 1017,0 hPa 0,0 mm 0,0 km/h (0 Bft) O-NO 68 ° 0 min 0,000 mm 1,2 UV-I 246 W/m² 15,1 °C 16,1 °C 0,0 km/h (0 Bft)
26.08.2019 08:37 16,0 °C 93 % 1017,0 hPa 0,0 mm 0,0 km/h (0 Bft) O-NO 68 ° 0 min 0,000 mm 1,2 UV-I 248 W/m² 14,9 °C 16,0 °C 0,0 km/h (0 Bft)
26.08.2019 08:38 16,1 °C 93 % 1017,0 hPa 0,0 mm 0,0 km/h (0 Bft) O-NO 68 ° 0 min 0,000 mm 1,2 UV-I 251 W/m² 15,0 °C 16,1 °C 0,0 km/h (0 Bft)
26.08.2019 08:39 16,1 °C 93 % 1017,0 hPa 0,0 mm 0,0 km/h (0 Bft) O-NO 68 ° 0 min 0,000 mm 1,2 UV-I 253 W/m² 15,0 °C 16,1 °C 0,0 km/h (0 Bft)
26.08.2019 08:40 16,2 °C 93 % 1017,0 hPa 0,0 mm 0,0 km/h (0 Bft) O-NO 68 ° 0 min 0,000 mm 1,2 UV-I 257 W/m² 15,1 °C 16,2 °C 0,0 km/h (0 Bft)
26.08.2019 08:41 16,2 °C 93 % 1017,0 hPa 0,0 mm 0,0 km/h (0 Bft) O-NO 68 ° 0 min 0,000 mm 1,3 UV-I 260 W/m² 15,1 °C 16,2 °C 0,0 km/h (0 Bft)
26.08.2019 08:42 16,3 °C 93 % 1017,0 hPa 0,0 mm 0,0 km/h (0 Bft) O-NO 68 ° 0 min 0,000 mm 1,3 UV-I 264 W/m² 15,2 °C 16,3 °C 0,0 km/h (0 Bft)
26.08.2019 08:43 16,3 °C 92 % 1017,0 hPa 0,0 mm 0,0 km/h (0 Bft) O-NO 68 ° 0 min 0,000 mm 1,3 UV-I 267 W/m² 15,0 °C 16,3 °C 0,0 km/h (0 Bft)
26.08.2019 08:44 16,4 °C 92 % 1017,0 hPa 0,0 mm 0,0 km/h (0 Bft) O-NO 68 ° 0 min 0,000 mm 1,3 UV-I 271 W/m² 15,1 °C 16,4 °C 0,0 km/h (0 Bft)
26.08.2019 08:45 16,4 °C 92 % 1017,0 hPa 0,0 mm 0,0 km/h (0 Bft) O-NO 68 ° 0 min 0,000 mm 1,3 UV-I 274 W/m² 15,1 °C 16,4 °C 0,0 km/h (0 Bft)
26.08.2019 08:46 16,5 °C 92 % 1017,0 hPa 0,0 mm 0,0 km/h (0 Bft) O-NO 68 ° 0 min 0,000 mm 1,3 UV-I 281 W/m² 15,2 °C 16,5 °C 0,0 km/h (0 Bft)
26.08.2019 08:47 16,6 °C 92 % 1017,0 hPa 0,0 mm 0,0 km/h (0 Bft) O-NO 68 ° 0 min 0,000 mm 1,3 UV-I 287 W/m² 15,3 °C 16,6 °C 0,0 km/h (0 Bft)
26.08.2019 08:48 16,7 °C 92 % 1017,0 hPa 0,0 mm 0,0 km/h (0 Bft) O-NO 68 ° 0 min 0,000 mm 1,4 UV-I 290 W/m² 15,4 °C 16,7 °C 0,0 km/h (0 Bft)
26.08.2019 08:49 16,7 °C 92 % 1017,0 hPa 0,0 mm 0,0 km/h (0 Bft) O-NO 68 ° 0 min 0,000 mm 1,4 UV-I 292 W/m² 15,4 °C 16,7 °C 0,0 km/h (0 Bft)
26.08.2019 08:50 16,8 °C 92 % 1017,0 hPa 0,0 mm 0,0 km/h (0 Bft) O-NO 68 ° 0 min 0,000 mm 1,4 UV-I 295 W/m² 15,5 °C 16,8 °C 0,0 km/h (0 Bft)
26.08.2019 08:51 16,8 °C 92 % 1017,0 hPa 0,0 mm 0,0 km/h (0 Bft) O-NO 68 ° 0 min 0,000 mm 1,4 UV-I 297 W/m² 15,5 °C 16,8 °C 0,0 km/h (0 Bft)
26.08.2019 08:52 16,9 °C 92 % 1016,9 hPa 0,0 mm 0,0 km/h (0 Bft) O-NO 68 ° 0 min 0,000 mm 1,4 UV-I 302 W/m² 15,6 °C 16,9 °C 0,0 km/h (0 Bft)
26.08.2019 08:53 17,2 °C 92 % 1017,0 hPa 0,0 mm 0,0 km/h (0 Bft) O-NO 68 ° 0 min 0,000 mm 1,4 UV-I 306 W/m² 15,9 °C 17,2 °C 0,0 km/h (0 Bft)
26.08.2019 08:54 17,4 °C 93 % 1017,0 hPa 0,0 mm 0,0 km/h (0 Bft) O-NO 68 ° 0 min 0,000 mm 1,5 UV-I 308 W/m² 16,3 °C 17,4 °C 0,0 km/h (0 Bft)
26.08.2019 08:55 17,4 °C 91 % 1016,9 hPa 0,0 mm 0,0 km/h (0 Bft) O-NO 68 ° 0 min 0,000 mm 1,5 UV-I 309 W/m² 15,9 °C 17,4 °C 0,0 km/h (0 Bft)
26.08.2019 08:56 17,6 °C 91 % 1016,9 hPa 0,0 mm 0,0 km/h (0 Bft) O-NO 68 ° 0 min 0,000 mm 1,5 UV-I 313 W/m² 16,1 °C 17,6 °C 0,0 km/h (0 Bft)
26.08.2019 08:57 17,6 °C 91 % 1016,9 hPa 0,0 mm 0,0 km/h (0 Bft) O-NO 68 ° 0 min 0,000 mm 1,5 UV-I 316 W/m² 16,1 °C 17,6 °C 0,0 km/h (0 Bft)
26.08.2019 08:58 17,7 °C 90 % 1016,9 hPa 0,0 mm 0,0 km/h (0 Bft) O-NO 68 ° 0 min 0,000 mm 1,6 UV-I 320 W/m² 16,0 °C 17,7 °C 0,0 km/h (0 Bft)
26.08.2019 08:59 17,8 °C 90 % 1016,9 hPa 0,0 mm 0,0 km/h (0 Bft) O-NO 68 ° 0 min 0,000 mm 1,6 UV-I 323 W/m² 16,1 °C 17,8 °C 0,0 km/h (0 Bft)
26.08.2019 09:00 17,8 °C 91 % 1016,9 hPa 0,0 mm 0,0 km/h (0 Bft) O-NO 68 ° 0 min 0,000 mm 1,6 UV-I 325 W/m² 16,3 °C 17,8 °C 0,0 km/h (0 Bft)
26.08.2019 09:01 17,9 °C 90 % 1016,9 hPa 0,0 mm 0,0 km/h (0 Bft) O-NO 68 ° 0 min 0,127 mm 1,6 UV-I 329 W/m² 16,2 °C 17,9 °C 0,0 km/h (0 Bft)
26.08.2019 09:02 17,9 °C 90 % 1016,9 hPa 0,0 mm 0,0 km/h (0 Bft) O-NO 68 ° 0 min 0,000 mm 1,6 UV-I 330 W/m² 16,2 °C 17,9 °C 0,0 km/h (0 Bft)
26.08.2019 09:03 18,1 °C 90 % 1016,9 hPa 0,0 mm 0,0 km/h (0 Bft) O-NO 68 ° 0 min 0,000 mm 1,7 UV-I 334 W/m² 16,4 °C 18,1 °C 0,0 km/h (0 Bft)
26.08.2019 09:04 18,1 °C 89 % 1016,9 hPa 0,0 mm 0,0 km/h (0 Bft) O-NO 68 ° 0 min 0,000 mm 1,7 UV-I 339 W/m² 16,3 °C 18,1 °C 0,0 km/h (0 Bft)
26.08.2019 09:05 18,1 °C 89 % 1016,9 hPa 0,0 mm 0,0 km/h (0 Bft) O-NO 68 ° 0 min 0,000 mm 1,7 UV-I 341 W/m² 16,3 °C 18,1 °C 0,0 km/h (0 Bft)
26.08.2019 09:06 17,9 °C 89 % 1016,9 hPa 0,0 mm 0,0 km/h (0 Bft) O-NO 68 ° 0 min 0,000 mm 1,7 UV-I 345 W/m² 16,1 °C 17,9 °C 0,0 km/h (0 Bft)
26.08.2019 09:07 17,9 °C 87 % 1016,9 hPa 0,0 mm 0,0 km/h (0 Bft) O-NO 68 ° 0 min 0,000 mm 1,7 UV-I 346 W/m² 15,7 °C 17,9 °C 0,0 km/h (0 Bft)
26.08.2019 09:08 17,8 °C 89 % 1016,9 hPa 0,2 mm 0,0 km/h (0 Bft) O-NO 68 ° 0 min 0,000 mm 1,7 UV-I 348 W/m² 16,0 °C 17,8 °C 0,0 km/h (0 Bft)
26.08.2019 09:09 17,9 °C 90 % 1016,9 hPa 0,0 mm 0,0 km/h (0 Bft) O-NO 68 ° 0 min 0,000 mm 1,8 UV-I 353 W/m² 16,2 °C 17,9 °C 0,0 km/h (0 Bft)
26.08.2019 09:10 17,9 °C 90 % 1016,9 hPa 0,0 mm 0,0 km/h (0 Bft) O-NO 68 ° 0 min 0,000 mm 1,8 UV-I 357 W/m² 16,2 °C 17,9 °C 0,0 km/h (0 Bft)
26.08.2019 09:11 18,1 °C 91 % 1016,8 hPa 0,0 mm 0,0 km/h (0 Bft) O-NO 68 ° 0 min 0,000 mm 1,8 UV-I 359 W/m² 16,6 °C 18,1 °C 0,0 km/h (0 Bft)
26.08.2019 09:12 17,9 °C 89 % 1016,8 hPa 0,0 mm 0,0 km/h (0 Bft) O-NO 68 ° 0 min 0,000 mm 1,8 UV-I 360 W/m² 16,1 °C 17,9 °C 0,0 km/h (0 Bft)
26.08.2019 09:13 17,9 °C 89 % 1016,8 hPa 0,0 mm 0,0 km/h (0 Bft) O-NO 68 ° 0 min 0,000 mm 1,9 UV-I 364 W/m² 16,1 °C 17,9 °C 0,0 km/h (0 Bft)
26.08.2019 09:14 17,9 °C 89 % 1016,8 hPa 0,0 mm 0,0 km/h (0 Bft) O-NO 68 ° 0 min 0,000 mm 1,9 UV-I 366 W/m² 16,1 °C 17,9 °C 0,0 km/h (0 Bft)
26.08.2019 09:15 18,0 °C 88 % 1016,8 hPa 0,0 mm 0,0 km/h (0 Bft) O-NO 68 ° 0 min 0,000 mm 1,9 UV-I 371 W/m² 16,0 °C 18,0 °C 0,0 km/h (0 Bft)
26.08.2019 09:16 18,1 °C 89 % 1016,8 hPa 0,0 mm 0,0 km/h (0 Bft) O-NO 68 ° 0 min 0,000 mm 1,9 UV-I 373 W/m² 16,3 °C 18,1 °C 0,0 km/h (0 Bft)
26.08.2019 09:17 18,1 °C 89 % 1016,9 hPa 0,0 mm 0,0 km/h (0 Bft) O-NO 68 ° 0 min 0,000 mm 1,9 UV-I 376 W/m² 16,3 °C 18,1 °C 0,0 km/h (0 Bft)
26.08.2019 09:18 18,2 °C 89 % 1016,9 hPa 0,0 mm 0,0 km/h (0 Bft) O-NO 68 ° 0 min 0,000 mm 2,0 UV-I 380 W/m² 16,4 °C 18,2 °C 0,0 km/h (0 Bft)
26.08.2019 09:19 18,3 °C 88 % 1016,8 hPa 0,0 mm 0,0 km/h (0 Bft) O-NO 68 ° 0 min 0,000 mm 2,0 UV-I 381 W/m² 16,3 °C 18,3 °C 0,0 km/h (0 Bft)
26.08.2019 09:20 18,4 °C 89 % 1016,8 hPa 0,0 mm 0,0 km/h (0 Bft) O-NO 68 ° 0 min 0,000 mm 2,0 UV-I 383 W/m² 16,6 °C 18,4 °C 0,0 km/h (0 Bft)
26.08.2019 09:21 18,4 °C 88 % 1016,8 hPa 0,0 mm 0,0 km/h (0 Bft) O-NO 68 ° 0 min 0,000 mm 2,0 UV-I 388 W/m² 16,4 °C 18,4 °C 0,0 km/h (0 Bft)
26.08.2019 09:22 18,4 °C 88 % 1016,9 hPa 0,0 mm 0,0 km/h (0 Bft) O-NO 68 ° 0 min 0,000 mm 2,0 UV-I 390 W/m² 16,4 °C 18,4 °C 0,0 km/h (0 Bft)
26.08.2019 09:23 18,5 °C 89 % 1016,8 hPa 0,0 mm 0,0 km/h (0 Bft) O-NO 68 ° 0 min 0,000 mm 2,1 UV-I 392 W/m² 16,7 °C 18,5 °C 0,0 km/h (0 Bft)
26.08.2019 09:24 18,6 °C 89 % 1016,8 hPa 0,0 mm 0,0 km/h (0 Bft) O-NO 68 ° 0 min 0,000 mm 2,1 UV-I 394 W/m² 16,7 °C 18,6 °C 0,0 km/h (0 Bft)
26.08.2019 09:25 18,5 °C 87 % 1016,8 hPa 0,0 mm 0,0 km/h (0 Bft) O-NO 68 ° 0 min 0,000 mm 2,1 UV-I 396 W/m² 16,3 °C 18,5 °C 0,0 km/h (0 Bft)
26.08.2019 09:26 18,6 °C 90 % 1016,8 hPa 0,0 mm 0,0 km/h (0 Bft) O-NO 68 ° 0 min 0,000 mm 2,1 UV-I 399 W/m² 16,9 °C 18,6 °C 0,0 km/h (0 Bft)
26.08.2019 09:27 18,7 °C 88 % 1016,8 hPa 0,0 mm 0,0 km/h (0 Bft) O-NO 68 ° 0 min 0,000 mm 2,1 UV-I 403 W/m² 16,7 °C 18,7 °C 0,0 km/h (0 Bft)
26.08.2019 09:28 18,8 °C 88 % 1016,8 hPa 0,0 mm 0,0 km/h (0 Bft) O-NO 68 ° 0 min 0,000 mm 2,2 UV-I 406 W/m² 16,8 °C 18,8 °C 0,0 km/h (0 Bft)
26.08.2019 09:29 18,8 °C 87 % 1016,9 hPa 0,0 mm 0,0 km/h (0 Bft) O-NO 68 ° 0 min 0,000 mm 2,2 UV-I 408 W/m² 16,6 °C 18,8 °C 0,0 km/h (0 Bft)
26.08.2019 09:30 18,8 °C 86 % 1016,8 hPa 0,0 mm 0,0 km/h (0 Bft) O-NO 68 ° 0 min 0,000 mm 2,2 UV-I 411 W/m² 16,4 °C 18,8 °C 0,0 km/h (0 Bft)
26.08.2019 09:31 18,8 °C 88 % 1016,8 hPa 0,0 mm 0,0 km/h (0 Bft) O-NO 68 ° 0 min 0,000 mm 2,2 UV-I 415 W/m² 16,8 °C 18,8 °C 0,0 km/h (0 Bft)
26.08.2019 09:32 18,9 °C 89 % 1016,8 hPa 0,0 mm 0,0 km/h (0 Bft) O-NO 68 ° 0 min 0,000 mm 2,2 UV-I 420 W/m² 17,0 °C 18,9 °C 0,0 km/h (0 Bft)
26.08.2019 09:33 18,9 °C 87 % 1016,8 hPa 0,0 mm 0,0 km/h (0 Bft) O-NO 68 ° 0 min 0,000 mm 2,2 UV-I 422 W/m² 16,7 °C 18,9 °C 0,0 km/h (0 Bft)
26.08.2019 09:34 18,9 °C 86 % 1016,8 hPa 0,0 mm 0,0 km/h (0 Bft) O-NO 68 ° 0 min 0,000 mm 2,3 UV-I 424 W/m² 16,5 °C 18,9 °C 0,0 km/h (0 Bft)
26.08.2019 09:35 18,8 °C 87 % 1016,8 hPa 0,0 mm 0,0 km/h (0 Bft) O-NO 68 ° 0 min 0,000 mm 2,3 UV-I 427 W/m² 16,6 °C 18,8 °C 0,0 km/h (0 Bft)
26.08.2019 09:36 18,8 °C 87 % 1016,8 hPa 0,0 mm 0,0 km/h (0 Bft) O-NO 68 ° 0 min 0,000 mm 2,3 UV-I 429 W/m² 16,6 °C 18,8 °C 0,0 km/h (0 Bft)
26.08.2019 09:37 18,8 °C 86 % 1016,8 hPa 0,0 mm 0,0 km/h (0 Bft) O-NO 68 ° 0 min 0,000 mm 2,3 UV-I 431 W/m² 16,4 °C 18,8 °C 0,0 km/h (0 Bft)
26.08.2019 09:38 18,8 °C 87 % 1016,8 hPa 0,0 mm 0,0 km/h (0 Bft) O-NO 68 ° 0 min 0,000 mm 2,3 UV-I 434 W/m² 16,6 °C 18,8 °C 0,0 km/h (0 Bft)
26.08.2019 09:39 19,0 °C 88 % 1016,8 hPa 0,0 mm 0,0 km/h (0 Bft) O-NO 68 ° 0 min 0,000 mm 2,4 UV-I 438 W/m² 17,0 °C 19,0 °C 0,0 km/h (0 Bft)
26.08.2019 09:40 19,1 °C 86 % 1016,8 hPa 0,0 mm 0,0 km/h (0 Bft) O-NO 68 ° 0 min 0,000 mm 2,4 UV-I 439 W/m² 16,7 °C 19,1 °C 0,0 km/h (0 Bft)
26.08.2019 09:41 19,1 °C 88 % 1016,7 hPa 0,0 mm 0,0 km/h (0 Bft) O-NO 68 ° 0 min 0,000 mm 2,4 UV-I 443 W/m² 17,1 °C 19,1 °C 0,0 km/h (0 Bft)
26.08.2019 09:42 19,1 °C 88 % 1016,7 hPa 0,0 mm 0,0 km/h (0 Bft) O-NO 68 ° 0 min 0,000 mm 2,4 UV-I 445 W/m² 17,1 °C 19,1 °C 0,0 km/h (0 Bft)
26.08.2019 09:43 19,2 °C 87 % 1016,7 hPa 0,0 mm 0,0 km/h (0 Bft) O-NO 68 ° 0 min 0,000 mm 2,5 UV-I 446 W/m² 17,0 °C 19,2 °C 0,0 km/h (0 Bft)
26.08.2019 09:44 19,3 °C 87 % 1016,7 hPa 0,0 mm 0,0 km/h (0 Bft) O-NO 68 ° 0 min 0,000 mm 2,5 UV-I 450 W/m² 17,1 °C 19,3 °C 0,0 km/h (0 Bft)
26.08.2019 09:45 19,2 °C 86 % 1016,7 hPa 0,0 mm 0,0 km/h (0 Bft) O-NO 68 ° 0 min 0,000 mm 2,5 UV-I 452 W/m² 16,8 °C 19,2 °C 0,0 km/h (0 Bft)
26.08.2019 09:46 19,3 °C 86 % 1016,8 hPa 0,0 mm 0,0 km/h (0 Bft) O-NO 68 ° 0 min 0,000 mm 2,5 UV-I 454 W/m² 16,9 °C 19,3 °C 0,0 km/h (0 Bft)
26.08.2019 09:47 19,3 °C 85 % 1016,8 hPa 0,0 mm 0,0 km/h (0 Bft) O-NO 68 ° 0 min 0,000 mm 2,5 UV-I 455 W/m² 16,7 °C 19,3 °C 0,0 km/h (0 Bft)
26.08.2019 09:48 19,3 °C 85 % 1016,8 hPa 0,0 mm 0,0 km/h (0 Bft) O-NO 68 ° 0 min 0,000 mm 2,6 UV-I 459 W/m² 16,7 °C 19,3 °C 0,0 km/h (0 Bft)
26.08.2019 09:49 19,4 °C 86 % 1016,8 hPa 0,0 mm 0,0 km/h (0 Bft) O-NO 68 ° 0 min 0,000 mm 2,6 UV-I 461 W/m² 17,0 °C 19,4 °C 0,0 km/h (0 Bft)
26.08.2019 09:50 19,5 °C 86 % 1016,8 hPa 0,0 mm 0,0 km/h (0 Bft) O-NO 68 ° 0 min 0,000 mm 2,6 UV-I 464 W/m² 17,1 °C 19,5 °C 0,0 km/h (0 Bft)
26.08.2019 09:51 19,5 °C 85 % 1016,8 hPa 0,0 mm 0,0 km/h (0 Bft) O-NO 68 ° 0 min 0,000 mm 2,7 UV-I 466 W/m² 16,9 °C 19,5 °C 0,0 km/h (0 Bft)
26.08.2019 09:52 19,5 °C 84 % 1016,8 hPa 0,0 mm 0,0 km/h (0 Bft) O-NO 68 ° 0 min 0,000 mm 2,7 UV-I 468 W/m² 16,7 °C 19,5 °C 0,0 km/h (0 Bft)
26.08.2019 09:53 19,6 °C 84 % 1016,8 hPa 0,0 mm 0,0 km/h (0 Bft) O-NO 68 ° 0 min 0,000 mm 2,7 UV-I 469 W/m² 16,8 °C 19,6 °C 0,0 km/h (0 Bft)
26.08.2019 09:54 19,8 °C 86 % 1016,8 hPa 0,0 mm 0,0 km/h (0 Bft) O-NO 68 ° 0 min 0,000 mm 2,7 UV-I 471 W/m² 17,4 °C 19,8 °C 0,0 km/h (0 Bft)
26.08.2019 09:55 20,1 °C 86 % 1016,8 hPa 0,0 mm 0,0 km/h (0 Bft) O-NO 68 ° 0 min 0,000 mm 2,8 UV-I 475 W/m² 17,7 °C 20,1 °C 0,0 km/h (0 Bft)
26.08.2019 09:56 20,1 °C 84 % 1016,8 hPa 0,0 mm 0,0 km/h (0 Bft) O-NO 68 ° 0 min 0,000 mm 2,8 UV-I 480 W/m² 17,3 °C 20,1 °C 0,0 km/h (0 Bft)
26.08.2019 09:57 20,1 °C 83 % 1016,9 hPa 0,0 mm 0,0 km/h (0 Bft) O-NO 68 ° 0 min 0,000 mm 2,8 UV-I 483 W/m² 17,1 °C 20,1 °C 0,0 km/h (0 Bft)
26.08.2019 09:58 20,1 °C 82 % 1016,9 hPa 0,0 mm 0,0 km/h (0 Bft) O-NO 68 ° 0 min 0,000 mm 2,9 UV-I 487 W/m² 16,9 °C 20,1 °C 0,0 km/h (0 Bft)
26.08.2019 09:59 20,1 °C 83 % 1016,9 hPa 0,0 mm 0,0 km/h (0 Bft) O-NO 68 ° 0 min 0,000 mm 2,9 UV-I 489 W/m² 17,1 °C 20,1 °C 0,0 km/h (0 Bft)
26.08.2019 10:00 20,1 °C 84 % 1016,8 hPa 0,0 mm 0,0 km/h (0 Bft) O-NO 68 ° 0 min 0,000 mm 2,9 UV-I 492 W/m² 17,3 °C 20,1 °C 0,0 km/h (0 Bft)
26.08.2019 10:01 20,0 °C 84 % 1016,9 hPa 0,0 mm 0,0 km/h (0 Bft) O-NO 68 ° 0 min 0,229 mm 2,9 UV-I 494 W/m² 17,2 °C 20,0 °C 0,0 km/h (0 Bft)
26.08.2019 10:02 19,9 °C 85 % 1016,8 hPa 0,0 mm 0,0 km/h (0 Bft) O-NO 68 ° 0 min 0,000 mm 3,0 UV-I 497 W/m² 17,3 °C 19,9 °C 0,0 km/h (0 Bft)
26.08.2019 10:03 20,0 °C 87 % 1016,9 hPa 0,0 mm 0,0 km/h (0 Bft) O-NO 68 ° 0 min 0,000 mm 3,0 UV-I 499 W/m² 17,8 °C 20,0 °C 0,0 km/h (0 Bft)
26.08.2019 10:04 20,2 °C 86 % 1016,9 hPa 0,0 mm 0,0 km/h (0 Bft) O-NO 68 ° 0 min 0,000 mm 3,0 UV-I 501 W/m² 17,8 °C 20,2 °C 0,0 km/h (0 Bft)
26.08.2019 10:05 20,3 °C 85 % 1016,9 hPa 0,0 mm 0,0 km/h (0 Bft) N-NO 26 ° 0 min 0,000 mm 3,0 UV-I 504 W/m² 17,7 °C 20,3 °C 0,0 km/h (0 Bft)
26.08.2019 10:06 20,4 °C 82 % 1016,9 hPa 0,0 mm 0,0 km/h (0 Bft) N-NO 26 ° 0 min 0,000 mm 3,1 UV-I 506 W/m² 17,2 °C 20,4 °C 0,0 km/h (0 Bft)
26.08.2019 10:07 20,5 °C 82 % 1016,8 hPa 0,0 mm 0,0 km/h (0 Bft) N-NO 26 ° 0 min 0,000 mm 3,1 UV-I 510 W/m² 17,3 °C 20,5 °C 0,0 km/h (0 Bft)
26.08.2019 10:08 20,6 °C 80 % 1016,8 hPa 0,0 mm 0,0 km/h (0 Bft) N-NO 26 ° 0 min 0,000 mm 3,1 UV-I 513 W/m² 17,0 °C 20,6 °C 0,0 km/h (0 Bft)
26.08.2019 10:09 20,7 °C 79 % 1016,8 hPa 0,0 mm 0,0 km/h (0 Bft) N-NO 26 ° 0 min 0,000 mm 3,1 UV-I 515 W/m² 16,9 °C 20,7 °C 0,0 km/h (0 Bft)
26.08.2019 10:10 20,8 °C 78 % 1016,8 hPa 0,0 mm 0,0 km/h (0 Bft) N-NO 26 ° 0 min 0,000 mm 3,2 UV-I 517 W/m² 16,8 °C 20,8 °C 0,0 km/h (0 Bft)
26.08.2019 10:11 20,8 °C 81 % 1016,8 hPa 0,0 mm 0,0 km/h (0 Bft) N-NO 26 ° 0 min 0,000 mm 3,2 UV-I 519 W/m² 17,4 °C 20,8 °C 0,0 km/h (0 Bft)
26.08.2019 10:12 20,7 °C 80 % 1016,8 hPa 0,0 mm 0,0 km/h (0 Bft) N-NO 26 ° 0 min 0,000 mm 3,2 UV-I 522 W/m² 17,1 °C 20,7 °C 0,0 km/h (0 Bft)
26.08.2019 10:13 20,6 °C 82 % 1016,7 hPa 0,0 mm 0,0 km/h (0 Bft) N-NO 26 ° 0 min 0,000 mm 3,2 UV-I 527 W/m² 17,4 °C 20,6 °C 0,0 km/h (0 Bft)
26.08.2019 10:14 20,4 °C 81 % 1016,7 hPa 0,0 mm 0,0 km/h (0 Bft) N-NO 26 ° 0 min 0,000 mm 3,2 UV-I 531 W/m² 17,0 °C 20,4 °C 0,0 km/h (0 Bft)
26.08.2019 10:15 20,4 °C 85 % 1016,7 hPa 0,0 mm 0,0 km/h (0 Bft) N-NO 26 ° 0 min 0,000 mm 3,3 UV-I 533 W/m² 17,8 °C 20,4 °C 0,0 km/h (0 Bft)
26.08.2019 10:16 20,3 °C 81 % 1016,7 hPa 0,0 mm 0,0 km/h (0 Bft) N-NO 21 ° 0 min 0,000 mm 3,3 UV-I 534 W/m² 16,9 °C 20,3 °C 0,0 km/h (0 Bft)
26.08.2019 10:17 20,4 °C 79 % 1016,8 hPa 0,0 mm 0,0 km/h (0 Bft) N-NO 21 ° 0 min 0,000 mm 3,3 UV-I 536 W/m² 16,6 °C 20,4 °C 0,0 km/h (0 Bft)
26.08.2019 10:18 20,6 °C 78 % 1016,8 hPa 0,0 mm 0,0 km/h (0 Bft) N-NO 21 ° 0 min 0,000 mm 3,4 UV-I 540 W/m² 16,6 °C 20,6 °C 0,0 km/h (0 Bft)
26.08.2019 10:19 20,9 °C 78 % 1016,8 hPa 0,0 mm 0,0 km/h (0 Bft) N-NO 21 ° 0 min 0,000 mm 3,4 UV-I 541 W/m² 16,9 °C 20,9 °C 0,0 km/h (0 Bft)
26.08.2019 10:20 21,1 °C 78 % 1016,8 hPa 0,0 mm 0,3 km/h (0 Bft) N-NO 20 ° 0 min 0,000 mm 3,4 UV-I 543 W/m² 17,1 °C 21,1 °C 1,6 km/h (1 Bft)
26.08.2019 10:21 21,2 °C 75 % 1016,8 hPa 0,0 mm 0,1 km/h (0 Bft) N-NO 21 ° 0 min 0,000 mm 3,4 UV-I 547 W/m² 16,6 °C 21,2 °C 1,6 km/h (1 Bft)
26.08.2019 10:22 21,2 °C 75 % 1016,8 hPa 0,0 mm 0,1 km/h (0 Bft) N-NO 20 ° 0 min 0,000 mm 3,4 UV-I 548 W/m² 16,6 °C 21,2 °C 1,6 km/h (1 Bft)
26.08.2019 10:23 21,3 °C 74 % 1016,8 hPa 0,0 mm 0,0 km/h (0 Bft) N-NO 21 ° 0 min 0,000 mm 3,5 UV-I 550 W/m² 16,5 °C 21,3 °C 0,0 km/h (0 Bft)
26.08.2019 10:24 21,3 °C 76 % 1016,8 hPa 0,0 mm 0,0 km/h (0 Bft) N-NO 21 ° 0 min 0,000 mm 3,5 UV-I 552 W/m² 16,9 °C 21,3 °C 0,0 km/h (0 Bft)
26.08.2019 10:25 21,3 °C 78 % 1016,8 hPa 0,0 mm 0,0 km/h (0 Bft) N-NO 21 ° 0 min 0,000 mm 3,5 UV-I 555 W/m² 17,3 °C 21,3 °C 0,0 km/h (0 Bft)
26.08.2019 10:26 21,2 °C 77 % 1016,8 hPa 0,0 mm 0,0 km/h (0 Bft) N-NO 21 ° 0 min 0,000 mm 3,5 UV-I 559 W/m² 17,0 °C 21,2 °C 0,0 km/h (0 Bft)
26.08.2019 10:27 21,0 °C 75 % 1016,8 hPa 0,0 mm 0,0 km/h (0 Bft) N-NO 21 ° 0 min 0,000 mm 3,6 UV-I 561 W/m² 16,4 °C 21,0 °C 0,0 km/h (0 Bft)
26.08.2019 10:28 20,8 °C 75 % 1016,8 hPa 0,0 mm 0,0 km/h (0 Bft) N-NO 21 ° 0 min 0,000 mm 3,6 UV-I 564 W/m² 16,2 °C 20,8 °C 0,0 km/h (0 Bft)
26.08.2019 10:29 20,8 °C 79 % 1016,8 hPa 0,0 mm 0,0 km/h (0 Bft) N-NO 21 ° 0 min 0,000 mm 3,6 UV-I 566 W/m² 17,0 °C 20,8 °C 0,0 km/h (0 Bft)
26.08.2019 10:30 20,8 °C 81 % 1016,8 hPa 0,0 mm 0,0 km/h (0 Bft) N-NO 21 ° 0 min 0,000 mm 3,6 UV-I 568 W/m² 17,4 °C 20,8 °C 0,0 km/h (0 Bft)
26.08.2019 10:31 20,8 °C 78 % 1016,8 hPa 0,0 mm 0,0 km/h (0 Bft) N-NO 21 ° 0 min 0,000 mm 3,6 UV-I 571 W/m² 16,8 °C 20,8 °C 0,0 km/h (0 Bft)
26.08.2019 10:32 20,8 °C 77 % 1016,8 hPa 0,0 mm 0,0 km/h (0 Bft) N-NO 21 ° 0 min 0,000 mm 3,7 UV-I 573 W/m² 16,6 °C 20,8 °C 0,0 km/h (0 Bft)
26.08.2019 10:33 20,7 °C 78 % 1016,8 hPa 0,0 mm 0,0 km/h (0 Bft) N-NO 21 ° 0 min 0,000 mm 3,7 UV-I 575 W/m² 16,7 °C 20,7 °C 0,0 km/h (0 Bft)
26.08.2019 10:34 20,7 °C 79 % 1016,8 hPa 0,0 mm 0,0 km/h (0 Bft) N-NO 21 ° 0 min 0,000 mm 3,7 UV-I 577 W/m² 16,9 °C 20,7 °C 0,0 km/h (0 Bft)
26.08.2019 10:35 20,8 °C 79 % 1016,8 hPa 0,0 mm 0,0 km/h (0 Bft) N-NO 21 ° 0 min 0,000 mm 3,7 UV-I 578 W/m² 17,0 °C 20,8 °C 0,0 km/h (0 Bft)
26.08.2019 10:36 20,8 °C 80 % 1016,7 hPa 0,0 mm 0,0 km/h (0 Bft) N-NO 21 ° 0 min 0,000 mm 3,7 UV-I 578 W/m² 17,2 °C 20,8 °C 0,0 km/h (0 Bft)
26.08.2019 10:37 20,8 °C 80 % 1016,7 hPa 0,0 mm 0,0 km/h (0 Bft) N-NO 21 ° 0 min 0,000 mm 3,8 UV-I 580 W/m² 17,2 °C 20,8 °C 0,0 km/h (0 Bft)
26.08.2019 10:38 20,7 °C 80 % 1016,7 hPa 0,0 mm 0,0 km/h (0 Bft) N-NO 21 ° 0 min 0,000 mm 3,8 UV-I 582 W/m² 17,1 °C 20,7 °C 0,0 km/h (0 Bft)
26.08.2019 10:39 20,7 °C 80 % 1016,7 hPa 0,0 mm 0,0 km/h (0 Bft) N-NO 21 ° 0 min 0,000 mm 3,8 UV-I 585 W/m² 17,1 °C 20,7 °C 0,0 km/h (0 Bft)
26.08.2019 10:40 20,7 °C 80 % 1016,7 hPa 0,0 mm 0,0 km/h (0 Bft) O 98 ° 0 min 0,000 mm 3,8 UV-I 587 W/m² 17,1 °C 20,7 °C 0,0 km/h (0 Bft)
26.08.2019 10:41 20,7 °C 78 % 1016,7 hPa 0,0 mm 0,0 km/h (0 Bft) O 99 ° 0 min 0,000 mm 3,8 UV-I 587 W/m² 16,7 °C 20,7 °C 0,0 km/h (0 Bft)
26.08.2019 10:42 20,8 °C 77 % 1016,7 hPa 0,0 mm 0,0 km/h (0 Bft) O 99 ° 0 min 0,000 mm 3,9 UV-I 589 W/m² 16,6 °C 20,8 °C 0,0 km/h (0 Bft)
26.08.2019 10:43 21,1 °C 79 % 1016,6 hPa 0,0 mm 0,0 km/h (0 Bft) O 99 ° 0 min 0,000 mm 3,9 UV-I 592 W/m² 17,3 °C 21,1 °C 0,0 km/h (0 Bft)
26.08.2019 10:44 20,9 °C 80 % 1016,7 hPa 0,0 mm 0,0 km/h (0 Bft) O 99 ° 0 min 0,000 mm 3,9 UV-I 594 W/m² 17,3 °C 20,9 °C 0,0 km/h (0 Bft)
26.08.2019 10:45 20,9 °C 81 % 1016,7 hPa 0,0 mm 0,0 km/h (0 Bft) O 99 ° 0 min 0,000 mm 3,9 UV-I 598 W/m² 17,5 °C 20,9 °C 0,0 km/h (0 Bft)
26.08.2019 10:46 20,9 °C 79 % 1016,7 hPa 0,0 mm 0,0 km/h (0 Bft) O 99 ° 0 min 0,000 mm 3,9 UV-I 599 W/m² 17,1 °C 20,9 °C 0,0 km/h (0 Bft)
26.08.2019 10:47 20,8 °C 79 % 1016,7 hPa 0,0 mm 0,0 km/h (0 Bft) O 99 ° 1 min 0,000 mm 4,0 UV-I 601 W/m² 17,0 °C 20,8 °C 0,0 km/h (0 Bft)
26.08.2019 10:48 20,9 °C 80 % 1016,7 hPa 0,0 mm 0,0 km/h (0 Bft) O 99 ° 1 min 0,000 mm 4,0 UV-I 603 W/m² 17,3 °C 20,9 °C 0,0 km/h (0 Bft)
26.08.2019 10:49 21,0 °C 81 % 1016,7 hPa 0,0 mm 0,0 km/h (0 Bft) O 99 ° 1 min 0,000 mm 4,0 UV-I 605 W/m² 17,6 °C 21,0 °C 0,0 km/h (0 Bft)
26.08.2019 10:50 21,1 °C 80 % 1016,7 hPa 0,0 mm 0,0 km/h (0 Bft) O 97 ° 1 min 0,000 mm 4,0 UV-I 606 W/m² 17,5 °C 21,1 °C 0,0 km/h (0 Bft)
26.08.2019 10:51 21,0 °C 80 % 1016,7 hPa 0,0 mm 0,0 km/h (0 Bft) O 96 ° 1 min 0,000 mm 4,0 UV-I 608 W/m² 17,4 °C 21,0 °C 0,0 km/h (0 Bft)
26.08.2019 10:52 21,0 °C 78 % 1016,7 hPa 0,0 mm 1,0 km/h (0 Bft) O 80 ° 1 min 0,000 mm 4,0 UV-I 610 W/m² 17,0 °C 21,0 °C 3,2 km/h (1 Bft)
26.08.2019 10:53 21,1 °C 81 % 1016,7 hPa 0,0 mm 3,3 km/h (1 Bft) O 80 ° 1 min 0,000 mm 4,1 UV-I 612 W/m² 17,7 °C 21,1 °C 4,8 km/h (1 Bft)
26.08.2019 10:54 21,2 °C 79 % 1016,7 hPa 0,0 mm 1,7 km/h (1 Bft) O 80 ° 1 min 0,000 mm 4,1 UV-I 617 W/m² 17,4 °C 21,2 °C 3,2 km/h (1 Bft)
26.08.2019 10:55 21,2 °C 77 % 1016,7 hPa 0,0 mm 0,3 km/h (0 Bft) O 80 ° 1 min 0,000 mm 4,1 UV-I 619 W/m² 17,0 °C 21,2 °C 1,6 km/h (1 Bft)
26.08.2019 10:56 21,2 °C 77 % 1016,7 hPa 0,0 mm 0,0 km/h (0 Bft) O 80 ° 1 min 0,000 mm 4,1 UV-I 621 W/m² 17,0 °C 21,2 °C 0,0 km/h (0 Bft)
26.08.2019 10:57 21,2 °C 81 % 1016,7 hPa 0,0 mm 0,0 km/h (0 Bft) O 80 ° 1 min 0,000 mm 4,1 UV-I 622 W/m² 17,8 °C 21,2 °C 0,0 km/h (0 Bft)
26.08.2019 10:58 21,3 °C 74 % 1016,7 hPa 0,0 mm 0,0 km/h (0 Bft) O 80 ° 1 min 0,000 mm 4,2 UV-I 624 W/m² 16,5 °C 21,3 °C 0,0 km/h (0 Bft)
26.08.2019 10:59 21,4 °C 74 % 1016,7 hPa 0,0 mm 0,0 km/h (0 Bft) O 80 ° 1 min 0,000 mm 4,2 UV-I 624 W/m² 16,6 °C 21,4 °C 0,0 km/h (0 Bft)
26.08.2019 11:00 21,6 °C 75 % 1016,7 hPa 0,0 mm 0,0 km/h (0 Bft) O 80 ° 1 min 0,330 mm 4,2 UV-I 626 W/m² 17,0 °C 21,6 °C 0,0 km/h (0 Bft)
26.08.2019 11:01 21,6 °C 74 % 1016,7 hPa 0,0 mm 0,0 km/h (0 Bft) O 80 ° 1 min 0,000 mm 4,2 UV-I 629 W/m² 16,8 °C 21,6 °C 0,0 km/h (0 Bft)
26.08.2019 11:02 21,4 °C 75 % 1016,7 hPa 0,0 mm 2,5 km/h (1 Bft) O 80 ° 1 min 0,000 mm 4,2 UV-I 629 W/m² 16,8 °C 21,4 °C 3,2 km/h (1 Bft)
26.08.2019 11:03 21,2 °C 74 % 1016,8 hPa 0,0 mm 0,5 km/h (0 Bft) O 80 ° 1 min 0,000 mm 4,2 UV-I 633 W/m² 16,4 °C 21,2 °C 3,2 km/h (1 Bft)
26.08.2019 11:04 21,3 °C 77 % 1016,7 hPa 0,0 mm 0,8 km/h (0 Bft) O 80 ° 1 min 0,000 mm 4,2 UV-I 633 W/m² 17,1 °C 21,3 °C 3,2 km/h (1 Bft)
26.08.2019 11:05 21,2 °C 75 % 1016,7 hPa 0,0 mm 0,6 km/h (0 Bft) O 80 ° 1 min 0,000 mm 4,3 UV-I 636 W/m² 16,6 °C 21,2 °C 1,6 km/h (1 Bft)
26.08.2019 11:06 21,2 °C 75 % 1016,8 hPa 0,0 mm 0,0 km/h (0 Bft) O 80 ° 1 min 0,000 mm 4,3 UV-I 640 W/m² 16,6 °C 21,2 °C 0,0 km/h (0 Bft)
26.08.2019 11:07 21,3 °C 75 % 1016,7 hPa 0,0 mm 0,0 km/h (0 Bft) O 80 ° 1 min 0,000 mm 4,3 UV-I 642 W/m² 16,7 °C 21,3 °C 0,0 km/h (0 Bft)
26.08.2019 11:08 21,4 °C 76 % 1016,7 hPa 0,0 mm 0,0 km/h (0 Bft) O 80 ° 1 min 0,000 mm 4,4 UV-I 645 W/m² 17,0 °C 21,4 °C 0,0 km/h (0 Bft)
26.08.2019 11:09 21,6 °C 78 % 1016,7 hPa 0,0 mm 0,0 km/h (0 Bft) O 80 ° 1 min 0,000 mm 4,4 UV-I 647 W/m² 17,6 °C 21,6 °C 0,0 km/h (0 Bft)
26.08.2019 11:10 21,6 °C 75 % 1016,7 hPa 0,0 mm 0,0 km/h (0 Bft) O 80 ° 1 min 0,000 mm 4,4 UV-I 649 W/m² 17,0 °C 21,6 °C 0,0 km/h (0 Bft)
26.08.2019 11:11 21,7 °C 75 % 1016,7 hPa 0,0 mm 0,0 km/h (0 Bft) O 80 ° 1 min 0,000 mm 4,4 UV-I 650 W/m² 17,1 °C 21,7 °C 0,0 km/h (0 Bft)
26.08.2019 11:12 21,8 °C 74 % 1016,8 hPa 0,0 mm 0,0 km/h (0 Bft) O 80 ° 1 min 0,000 mm 4,4 UV-I 656 W/m² 17,0 °C 21,8 °C 0,0 km/h (0 Bft)
26.08.2019 11:13 22,0 °C 75 % 1016,8 hPa 0,0 mm 0,0 km/h (0 Bft) O 80 ° 1 min 0,000 mm 4,4 UV-I 656 W/m² 17,4 °C 22,0 °C 0,0 km/h (0 Bft)
26.08.2019 11:14 22,2 °C 77 % 1016,8 hPa 0,0 mm 0,0 km/h (0 Bft) O 80 ° 1 min 0,000 mm 4,5 UV-I 657 W/m² 18,0 °C 22,2 °C 0,0 km/h (0 Bft)
26.08.2019 11:15 22,2 °C 79 % 1016,7 hPa 0,0 mm 0,0 km/h (0 Bft) O 80 ° 1 min 0,000 mm 4,5 UV-I 663 W/m² 18,4 °C 22,2 °C 0,0 km/h (0 Bft)
26.08.2019 11:16 21,9 °C 77 % 1016,8 hPa 0,0 mm 2,0 km/h (1 Bft) O 80 ° 1 min 0,000 mm 4,5 UV-I 664 W/m² 17,7 °C 21,9 °C 3,2 km/h (1 Bft)
26.08.2019 11:17 21,8 °C 75 % 1016,8 hPa 0,0 mm 0,7 km/h (0 Bft) O 80 ° 1 min 0,000 mm 4,5 UV-I 668 W/m² 17,2 °C 21,8 °C 3,2 km/h (1 Bft)
26.08.2019 11:18 21,8 °C 77 % 1016,7 hPa 0,0 mm 0,2 km/h (0 Bft) O 80 ° 1 min 0,000 mm 4,5 UV-I 670 W/m² 17,6 °C 21,8 °C 1,6 km/h (1 Bft)
26.08.2019 11:19 21,7 °C 75 % 1016,7 hPa 0,0 mm 0,2 km/h (0 Bft) O 80 ° 1 min 0,000 mm 4,5 UV-I 677 W/m² 17,1 °C 21,7 °C 1,6 km/h (1 Bft)
26.08.2019 11:20 21,7 °C 75 % 1016,7 hPa 0,0 mm 0,8 km/h (0 Bft) O 94 ° 1 min 0,000 mm 4,5 UV-I 682 W/m² 17,1 °C 21,7 °C 3,2 km/h (1 Bft)
26.08.2019 11:21 21,8 °C 74 % 1016,7 hPa 0,0 mm 0,0 km/h (0 Bft) O 94 ° 1 min 0,000 mm 4,5 UV-I 691 W/m² 17,0 °C 21,8 °C 0,0 km/h (0 Bft)
26.08.2019 11:22 21,9 °C 76 % 1016,7 hPa 0,0 mm 0,0 km/h (0 Bft) O 94 ° 1 min 0,000 mm 4,5 UV-I 698 W/m² 17,5 °C 21,9 °C 0,0 km/h (0 Bft)
26.08.2019 11:23 21,9 °C 75 % 1016,7 hPa 0,0 mm 0,0 km/h (0 Bft) O 94 ° 1 min 0,000 mm 4,6 UV-I 708 W/m² 17,3 °C 21,9 °C 0,0 km/h (0 Bft)
26.08.2019 11:24 21,9 °C 76 % 1016,7 hPa 0,0 mm 0,0 km/h (0 Bft) O 94 ° 1 min 0,000 mm 4,7 UV-I 726 W/m² 17,5 °C 21,9 °C 0,0 km/h (0 Bft)
26.08.2019 11:25 21,9 °C 75 % 1016,7 hPa 0,0 mm 0,0 km/h (0 Bft) O 94 ° 1 min 0,000 mm 4,8 UV-I 737 W/m² 17,3 °C 21,9 °C 0,0 km/h (0 Bft)
26.08.2019 11:26 21,9 °C 79 % 1016,8 hPa 0,0 mm 0,0 km/h (0 Bft) O 94 ° 1 min 0,000 mm 4,8 UV-I 747 W/m² 18,1 °C 21,9 °C 0,0 km/h (0 Bft)
26.08.2019 11:27 22,0 °C 74 % 1016,7 hPa 0,0 mm 0,0 km/h (0 Bft) O 94 ° 1 min 0,000 mm 4,9 UV-I 756 W/m² 17,1 °C 22,0 °C 0,0 km/h (0 Bft)
26.08.2019 11:28 22,1 °C 75 % 1016,7 hPa 0,0 mm 0,0 km/h (0 Bft) O 94 ° 1 min 0,000 mm 4,9 UV-I 766 W/m² 17,5 °C 22,1 °C 0,0 km/h (0 Bft)
26.08.2019 11:29 22,2 °C 74 % 1016,7 hPa 0,0 mm 0,0 km/h (0 Bft) O 94 ° 1 min 0,000 mm 4,9 UV-I 772 W/m² 17,3 °C 22,2 °C 0,0 km/h (0 Bft)
26.08.2019 11:30 22,4 °C 77 % 1016,7 hPa 0,2 mm 0,0 km/h (0 Bft) O 94 ° 1 min 0,000 mm 4,9 UV-I 772 W/m² 18,2 °C 22,4 °C 0,0 km/h (0 Bft)
26.08.2019 11:31 22,6 °C 76 % 1016,7 hPa 0,0 mm 0,0 km/h (0 Bft) O 94 ° 1 min 0,000 mm 5,0 UV-I 775 W/m² 18,1 °C 22,6 °C 0,0 km/h (0 Bft)
26.08.2019 11:32 22,6 °C 77 % 1016,7 hPa 0,0 mm 0,0 km/h (0 Bft) O 94 ° 1 min 0,000 mm 5,0 UV-I 779 W/m² 18,4 °C 22,6 °C 0,0 km/h (0 Bft)
26.08.2019 11:33 22,6 °C 77 % 1016,7 hPa 0,0 mm 0,0 km/h (0 Bft) O-NO 62 ° 1 min 0,000 mm 5,0 UV-I 775 W/m² 18,4 °C 22,6 °C 0,0 km/h (0 Bft)
26.08.2019 11:34 22,7 °C 79 % 1016,7 hPa 0,0 mm 0,0 km/h (0 Bft) O-NO 62 ° 1 min 0,000 mm 5,0 UV-I 772 W/m² 18,9 °C 22,7 °C 0,0 km/h (0 Bft)
26.08.2019 11:35 22,8 °C 76 % 1016,7 hPa 0,0 mm 0,0 km/h (0 Bft) NW 313 ° 1 min 0,000 mm 5,1 UV-I 784 W/m² 18,3 °C 22,8 °C 0,0 km/h (0 Bft)
26.08.2019 11:36 23,0 °C 77 % 1016,7 hPa 0,0 mm 0,0 km/h (0 Bft) NW 314 ° 1 min 0,000 mm 5,0 UV-I 772 W/m² 18,7 °C 23,0 °C 0,0 km/h (0 Bft)
26.08.2019 11:37 23,1 °C 74 % 1016,7 hPa 0,0 mm 5,2 km/h (1 Bft) N 5 ° 1 min 0,000 mm 4,7 UV-I 680 W/m² 18,2 °C 23,1 °C 9,7 km/h (2 Bft)
26.08.2019 11:38 23,2 °C 75 % 1016,7 hPa 0,0 mm 5,7 km/h (1 Bft) W-NW 297 ° 0 min 0,000 mm 4,4 UV-I 584 W/m² 18,5 °C 23,2 °C 11,3 km/h (2 Bft)
26.08.2019 11:39 23,2 °C 75 % 1016,7 hPa 0,0 mm 1,3 km/h (1 Bft) W-NW 297 ° 1 min 0,000 mm 4,5 UV-I 619 W/m² 18,5 °C 23,2 °C 3,2 km/h (1 Bft)
26.08.2019 11:40 23,1 °C 74 % 1016,7 hPa 0,0 mm 1,4 km/h (1 Bft) NW 317 ° 0 min 0,000 mm 4,5 UV-I 580 W/m² 18,2 °C 23,1 °C 4,8 km/h (1 Bft)
26.08.2019 11:41 23,0 °C 75 % 1016,7 hPa 0,0 mm 2,5 km/h (1 Bft) NW 321 ° 1 min 0,000 mm 4,4 UV-I 606 W/m² 18,3 °C 23,0 °C 4,8 km/h (1 Bft)
26.08.2019 11:42 23,0 °C 76 % 1016,7 hPa 0,0 mm 2,3 km/h (1 Bft) N-NW 336 ° 0 min 0,000 mm 4,2 UV-I 519 W/m² 18,5 °C 23,0 °C 4,8 km/h (1 Bft)
26.08.2019 11:43 23,1 °C 78 % 1016,7 hPa 0,0 mm 1,8 km/h (1 Bft) N 355 ° 0 min 0,000 mm 4,2 UV-I 527 W/m² 19,0 °C 23,1 °C 3,2 km/h (1 Bft)
26.08.2019 11:44 23,1 °C 77 % 1016,7 hPa 0,0 mm 0,0 km/h (0 Bft) N 355 ° 0 min 0,000 mm 4,0 UV-I 483 W/m² 18,8 °C 23,1 °C 0,0 km/h (0 Bft)
26.08.2019 11:45 23,0 °C 75 % 1016,7 hPa 0,0 mm 0,1 km/h (0 Bft) N-NO 32 ° 0 min 0,000 mm 4,1 UV-I 510 W/m² 18,3 °C 23,0 °C 1,6 km/h (1 Bft)
26.08.2019 11:46 22,9 °C 75 % 1016,7 hPa 0,0 mm 0,9 km/h (0 Bft) NW 315 ° 0 min 0,000 mm 3,9 UV-I 455 W/m² 18,2 °C 22,9 °C 3,2 km/h (1 Bft)
26.08.2019 11:47 22,9 °C 73 % 1016,6 hPa 0,0 mm 0,1 km/h (0 Bft) NW 315 ° 0 min 0,000 mm 4,0 UV-I 396 W/m² 17,8 °C 22,9 °C 1,6 km/h (1 Bft)
26.08.2019 11:48 22,8 °C 72 % 1016,7 hPa 0,0 mm 0,0 km/h (0 Bft) NW 315 ° 0 min 0,000 mm 3,3 UV-I 320 W/m² 17,5 °C 22,8 °C 0,0 km/h (0 Bft)
26.08.2019 11:49 22,7 °C 72 % 1016,6 hPa 0,0 mm 0,0 km/h (0 Bft) NW 315 ° 0 min 0,000 mm 3,2 UV-I 267 W/m² 17,4 °C 22,7 °C 0,0 km/h (0 Bft)
26.08.2019 11:50 22,6 °C 74 % 1016,6 hPa 0,0 mm 0,0 km/h (0 Bft) NW 315 ° 0 min 0,000 mm 3,5 UV-I 306 W/m² 17,7 °C 22,6 °C 0,0 km/h (0 Bft)
26.08.2019 11:51 22,5 °C 79 % 1016,6 hPa 0,0 mm 0,0 km/h (0 Bft) NW 315 ° 0 min 0,000 mm 3,5 UV-I 350 W/m² 18,7 °C 22,5 °C 0,0 km/h (0 Bft)
26.08.2019 11:52 22,4 °C 79 % 1016,7 hPa 0,0 mm 1,7 km/h (1 Bft) NO 51 ° 0 min 0,000 mm 3,6 UV-I 309 W/m² 18,6 °C 22,4 °C 4,8 km/h (1 Bft)
26.08.2019 11:53 22,4 °C 77 % 1016,7 hPa 0,0 mm 0,7 km/h (0 Bft) NO 51 ° 0 min 0,000 mm 4,0 UV-I 497 W/m² 18,2 °C 22,4 °C 3,2 km/h (1 Bft)
26.08.2019 11:54 22,5 °C 79 % 1016,7 hPa 0,0 mm 0,0 km/h (0 Bft) NO 51 ° 0 min 0,000 mm 4,6 UV-I 497 W/m² 18,7 °C 22,5 °C 0,0 km/h (0 Bft)
26.08.2019 11:55 22,6 °C 77 % 1016,6 hPa 0,0 mm 0,0 km/h (0 Bft) NO 51 ° 0 min 0,000 mm 4,5 UV-I 570 W/m² 18,4 °C 22,6 °C 0,0 km/h (0 Bft)
26.08.2019 11:56 22,7 °C 76 % 1016,6 hPa 0,0 mm 0,0 km/h (0 Bft) NO 51 ° 0 min 0,000 mm 4,5 UV-I 566 W/m² 18,2 °C 22,7 °C 0,0 km/h (0 Bft)
26.08.2019 11:57 22,7 °C 77 % 1016,6 hPa 0,0 mm 0,0 km/h (0 Bft) NO 51 ° 0 min 0,000 mm 4,4 UV-I 547 W/m² 18,5 °C 22,7 °C 0,0 km/h (0 Bft)
26.08.2019 11:58 22,8 °C 77 % 1016,6 hPa 0,0 mm 0,0 km/h (0 Bft) NO 51 ° 1 min 0,000 mm 4,4 UV-I 601 W/m² 18,5 °C 22,8 °C 0,0 km/h (0 Bft)
26.08.2019 11:59 22,7 °C 77 % 1016,6 hPa 0,0 mm 0,7 km/h (0 Bft) NO 51 ° 0 min 0,000 mm 4,5 UV-I 596 W/m² 18,5 °C 22,7 °C 1,6 km/h (1 Bft)
26.08.2019 12:00 22,6 °C 79 % 1016,6 hPa 0,0 mm 0,0 km/h (0 Bft) NO 51 ° 1 min 0,381 mm 4,6 UV-I 615 W/m² 18,8 °C 22,6 °C 0,0 km/h (0 Bft)
26.08.2019 12:01 22,7 °C 78 % 1016,6 hPa 0,0 mm 0,0 km/h (0 Bft) NO 51 ° 1 min 0,000 mm 4,8 UV-I 617 W/m² 18,7 °C 22,7 °C 0,0 km/h (0 Bft)
26.08.2019 12:02 22,8 °C 77 % 1016,6 hPa 0,0 mm 0,0 km/h (0 Bft) NO 51 ° 0 min 0,000 mm 4,9 UV-I 598 W/m² 18,5 °C 22,8 °C 0,0 km/h (0 Bft)
26.08.2019 12:03 22,8 °C 78 % 1016,6 hPa 0,0 mm 0,0 km/h (0 Bft) N-NO 28 ° 0 min 0,000 mm 5,3 UV-I 598 W/m² 18,8 °C 22,8 °C 0,0 km/h (0 Bft)
26.08.2019 12:04 22,8 °C 79 % 1016,6 hPa 0,0 mm 1,9 km/h (1 Bft) N-NO 31 ° 1 min 0,000 mm 5,2 UV-I 721 W/m² 19,0 °C 22,8 °C 6,4 km/h (2 Bft)
26.08.2019 12:05 22,8 °C 78 % 1016,5 hPa 0,0 mm 0,8 km/h (0 Bft) N-NO 32 ° 1 min 0,000 mm 5,2 UV-I 733 W/m² 18,8 °C 22,8 °C 4,8 km/h (1 Bft)
26.08.2019 12:06 22,8 °C 77 % 1016,5 hPa 0,0 mm 5,3 km/h (1 Bft) N-NO 22 ° 1 min 0,000 mm 5,3 UV-I 735 W/m² 18,5 °C 22,8 °C 8,0 km/h (2 Bft)
26.08.2019 12:07 22,8 °C 75 % 1016,5 hPa 0,0 mm 1,9 km/h (1 Bft) N 349 ° 1 min 0,000 mm 5,3 UV-I 738 W/m² 18,1 °C 22,8 °C 4,8 km/h (1 Bft)
26.08.2019 12:08 22,9 °C 77 % 1016,5 hPa 0,0 mm 2,0 km/h (1 Bft) O-NO 70 ° 1 min 0,000 mm 5,3 UV-I 738 W/m² 18,6 °C 22,9 °C 4,8 km/h (1 Bft)
26.08.2019 12:09 22,9 °C 76 % 1016,5 hPa 0,0 mm 2,3 km/h (1 Bft) N 355 ° 1 min 0,000 mm 5,3 UV-I 738 W/m² 18,4 °C 22,9 °C 4,8 km/h (1 Bft)
26.08.2019 12:10 23,1 °C 78 % 1016,5 hPa 0,0 mm 2,5 km/h (1 Bft) N 360 ° 1 min 0,000 mm 5,3 UV-I 740 W/m² 19,0 °C 23,1 °C 6,4 km/h (2 Bft)
26.08.2019 12:11 23,2 °C 79 % 1016,5 hPa 0,0 mm 2,4 km/h (1 Bft) NO 51 ° 1 min 0,000 mm 5,3 UV-I 742 W/m² 19,3 °C 23,2 °C 4,8 km/h (1 Bft)
26.08.2019 12:12 23,3 °C 76 % 1016,5 hPa 0,0 mm 0,1 km/h (0 Bft) NO 51 ° 1 min 0,000 mm 5,4 UV-I 742 W/m² 18,8 °C 23,3 °C 1,6 km/h (1 Bft)
26.08.2019 12:13 23,2 °C 76 % 1016,5 hPa 0,0 mm 1,7 km/h (1 Bft) NO 51 ° 1 min 0,000 mm 5,4 UV-I 751 W/m² 18,7 °C 23,2 °C 6,4 km/h (2 Bft)
26.08.2019 12:14 23,1 °C 74 % 1016,5 hPa 0,0 mm 0,9 km/h (0 Bft) NO 51 ° 1 min 0,000 mm 5,4 UV-I 754 W/m² 18,2 °C 23,1 °C 6,4 km/h (2 Bft)
26.08.2019 12:15 23,0 °C 77 % 1016,5 hPa 0,0 mm 1,5 km/h (1 Bft) N-NO 12 ° 1 min 0,000 mm 5,4 UV-I 758 W/m² 18,7 °C 23,0 °C 6,4 km/h (2 Bft)
26.08.2019 12:16 22,9 °C 75 % 1016,5 hPa 0,0 mm 5,1 km/h (1 Bft) NO 56 ° 1 min 0,000 mm 5,4 UV-I 768 W/m² 18,2 °C 22,9 °C 6,4 km/h (2 Bft)
26.08.2019 12:17 23,0 °C 75 % 1016,5 hPa 0,0 mm 4,5 km/h (1 Bft) N 360 ° 1 min 0,000 mm 5,5 UV-I 773 W/m² 18,3 °C 23,0 °C 6,4 km/h (2 Bft)
26.08.2019 12:18 23,0 °C 76 % 1016,5 hPa 0,0 mm 4,2 km/h (1 Bft) NO 54 ° 1 min 0,000 mm 5,5 UV-I 777 W/m² 18,5 °C 23,0 °C 9,7 km/h (2 Bft)
26.08.2019 12:19 23,1 °C 78 % 1016,5 hPa 0,0 mm 1,2 km/h (1 Bft) NO 54 ° 1 min 0,000 mm 5,5 UV-I 777 W/m² 19,0 °C 23,1 °C 3,2 km/h (1 Bft)
26.08.2019 12:20 23,0 °C 76 % 1016,5 hPa 0,0 mm 5,0 km/h (1 Bft) NO 41 ° 1 min 0,000 mm 5,5 UV-I 777 W/m² 18,5 °C 23,0 °C 11,3 km/h (2 Bft)
26.08.2019 12:21 22,9 °C 75 % 1016,5 hPa 0,0 mm 4,2 km/h (1 Bft) NO 36 ° 1 min 0,000 mm 5,5 UV-I 784 W/m² 18,2 °C 22,9 °C 8,0 km/h (2 Bft)
26.08.2019 12:22 22,8 °C 75 % 1016,4 hPa 0,0 mm 2,7 km/h (1 Bft) N 360 ° 1 min 0,000 mm 5,6 UV-I 798 W/m² 18,1 °C 22,8 °C 6,4 km/h (2 Bft)
26.08.2019 12:23 22,8 °C 76 % 1016,4 hPa 0,0 mm 5,4 km/h (1 Bft) N 9 ° 1 min 0,000 mm 5,6 UV-I 798 W/m² 18,3 °C 22,8 °C 8,0 km/h (2 Bft)
26.08.2019 12:24 22,8 °C 74 % 1016,5 hPa 0,0 mm 0,8 km/h (0 Bft) N 9 ° 1 min 0,000 mm 5,6 UV-I 802 W/m² 17,9 °C 22,8 °C 3,2 km/h (1 Bft)
26.08.2019 12:25 22,8 °C 75 % 1016,5 hPa 0,0 mm 4,3 km/h (1 Bft) NO 48 ° 1 min 0,000 mm 5,6 UV-I 807 W/m² 18,1 °C 22,8 °C 6,4 km/h (2 Bft)
26.08.2019 12:26 22,9 °C 76 % 1016,5 hPa 0,0 mm 0,9 km/h (0 Bft) O 95 ° 1 min 0,000 mm 5,6 UV-I 800 W/m² 18,4 °C 22,9 °C 3,2 km/h (1 Bft)
26.08.2019 12:27 22,9 °C 75 % 1016,4 hPa 0,0 mm 2,1 km/h (1 Bft) N-NO 30 ° 1 min 0,000 mm 5,6 UV-I 800 W/m² 18,2 °C 22,9 °C 3,2 km/h (1 Bft)
26.08.2019 12:28 22,9 °C 76 % 1016,4 hPa 0,0 mm 1,7 km/h (1 Bft) N 5 ° 1 min 0,000 mm 5,6 UV-I 803 W/m² 18,4 °C 22,9 °C 4,8 km/h (1 Bft)
26.08.2019 12:29 22,9 °C 78 % 1016,4 hPa 0,0 mm 1,9 km/h (1 Bft) N-NW 336 ° 1 min 0,000 mm 5,6 UV-I 800 W/m² 18,9 °C 22,9 °C 4,8 km/h (1 Bft)
26.08.2019 12:30 23,0 °C 77 % 1016,3 hPa 0,0 mm 2,1 km/h (1 Bft) O 86 ° 1 min 0,000 mm 5,5 UV-I 800 W/m² 18,7 °C 23,0 °C 4,8 km/h (1 Bft)
26.08.2019 12:31 23,1 °C 77 % 1016,4 hPa 0,0 mm 3,8 km/h (1 Bft) O 90 ° 1 min 0,000 mm 5,5 UV-I 795 W/m² 18,8 °C 23,1 °C 11,3 km/h (2 Bft)
26.08.2019 12:32 23,1 °C 76 % 1016,3 hPa 0,0 mm 4,4 km/h (1 Bft) O 80 ° 1 min 0,000 mm 5,5 UV-I 795 W/m² 18,6 °C 23,1 °C 6,4 km/h (2 Bft)
26.08.2019 12:33 23,1 °C 77 % 1016,4 hPa 0,0 mm 4,2 km/h (1 Bft) O 92 ° 1 min 0,000 mm 5,4 UV-I 761 W/m² 18,8 °C 23,1 °C 6,4 km/h (2 Bft)
26.08.2019 12:34 22,9 °C 76 % 1016,4 hPa 0,0 mm 4,4 km/h (1 Bft) O-NO 78 ° 1 min 0,000 mm 5,4 UV-I 761 W/m² 18,4 °C 22,9 °C 8,0 km/h (2 Bft)
26.08.2019 12:35 22,9 °C 75 % 1016,3 hPa 0,0 mm 3,6 km/h (1 Bft) N 349 ° 1 min 0,000 mm 5,5 UV-I 761 W/m² 18,2 °C 22,9 °C 6,4 km/h (2 Bft)
26.08.2019 12:36 22,8 °C 76 % 1016,3 hPa 0,0 mm 3,8 km/h (1 Bft) N-NO 18 ° 1 min 0,000 mm 5,7 UV-I 761 W/m² 18,3 °C 22,8 °C 8,0 km/h (2 Bft)
26.08.2019 12:37 23,0 °C 77 % 1016,3 hPa 0,0 mm 2,3 km/h (1 Bft) O-SO 110 ° 1 min 0,000 mm 5,7 UV-I 814 W/m² 18,7 °C 23,0 °C 4,8 km/h (1 Bft)
26.08.2019 12:38 23,0 °C 75 % 1016,3 hPa 0,0 mm 2,1 km/h (1 Bft) O-NO 58 ° 1 min 0,000 mm 5,8 UV-I 826 W/m² 18,3 °C 23,0 °C 6,4 km/h (2 Bft)
26.08.2019 12:39 23,1 °C 76 % 1016,3 hPa 0,0 mm 6,6 km/h (2 Bft) O 84 ° 1 min 0,000 mm 5,8 UV-I 826 W/m² 18,6 °C 23,1 °C 11,3 km/h (2 Bft)
26.08.2019 12:40 23,1 °C 75 % 1016,3 hPa 0,0 mm 5,6 km/h (1 Bft) O-NO 69 ° 1 min 0,000 mm 5,8 UV-I 803 W/m² 18,4 °C 23,1 °C 8,0 km/h (2 Bft)
26.08.2019 12:41 23,1 °C 75 % 1016,3 hPa 0,0 mm 4,2 km/h (1 Bft) NO 55 ° 1 min 0,000 mm 5,8 UV-I 823 W/m² 18,4 °C 23,1 °C 4,8 km/h (1 Bft)
26.08.2019 12:42 23,1 °C 76 % 1016,3 hPa 0,0 mm 1,0 km/h (0 Bft) NO 55 ° 1 min 0,000 mm 5,8 UV-I 830 W/m² 18,6 °C 23,1 °C 3,2 km/h (1 Bft)
26.08.2019 12:43 23,1 °C 75 % 1016,3 hPa 0,0 mm 4,2 km/h (1 Bft) NO 38 ° 1 min 0,000 mm 5,8 UV-I 831 W/m² 18,4 °C 23,1 °C 6,4 km/h (2 Bft)
26.08.2019 12:44 23,2 °C 75 % 1016,3 hPa 0,0 mm 7,5 km/h (2 Bft) N-NO 28 ° 1 min 0,000 mm 5,7 UV-I 826 W/m² 18,5 °C 23,2 °C 11,3 km/h (2 Bft)
26.08.2019 12:45 23,3 °C 74 % 1016,3 hPa 0,0 mm 9,5 km/h (2 Bft) NO 53 ° 1 min 0,000 mm 5,7 UV-I 812 W/m² 18,4 °C 23,3 °C 12,9 km/h (3 Bft)
26.08.2019 12:46 23,3 °C 73 % 1016,3 hPa 0,0 mm 9,9 km/h (2 Bft) NO 53 ° 1 min 0,000 mm 5,7 UV-I 823 W/m² 18,2 °C 23,3 °C 14,5 km/h (3 Bft)
26.08.2019 12:47 23,3 °C 73 % 1016,3 hPa 0,0 mm 6,9 km/h (2 Bft) O-NO 65 ° 1 min 0,000 mm 5,8 UV-I 824 W/m² 18,2 °C 23,3 °C 9,7 km/h (2 Bft)
26.08.2019 12:48 23,3 °C 74 % 1016,3 hPa 0,0 mm 2,1 km/h (1 Bft) N-NW 332 ° 1 min 0,000 mm 5,8 UV-I 824 W/m² 18,4 °C 23,3 °C 4,8 km/h (1 Bft)
26.08.2019 12:49 23,4 °C 75 % 1016,3 hPa 0,0 mm 3,4 km/h (1 Bft) N-NO 15 ° 1 min 0,000 mm 5,7 UV-I 795 W/m² 18,7 °C 23,4 °C 4,8 km/h (1 Bft)
26.08.2019 12:50 23,4 °C 74 % 1016,3 hPa 0,0 mm 2,1 km/h (1 Bft) N 9 ° 1 min 0,000 mm 5,7 UV-I 842 W/m² 18,5 °C 23,4 °C 8,0 km/h (2 Bft)
26.08.2019 12:51 23,4 °C 75 % 1016,3 hPa 0,0 mm 2,6 km/h (1 Bft) NO 44 ° 1 min 0,000 mm 5,8 UV-I 856 W/m² 18,7 °C 23,4 °C 8,0 km/h (2 Bft)
26.08.2019 12:52 23,6 °C 75 % 1016,3 hPa 0,0 mm 3,6 km/h (1 Bft) NO 42 ° 1 min 0,000 mm 5,8 UV-I 856 W/m² 18,9 °C 23,6 °C 6,4 km/h (2 Bft)
26.08.2019 12:53 23,6 °C 73 % 1016,2 hPa 0,0 mm 4,1 km/h (1 Bft) N-NO 27 ° 1 min 0,000 mm 5,8 UV-I 868 W/m² 18,5 °C 23,6 °C 6,4 km/h (2 Bft)
26.08.2019 12:54 23,6 °C 74 % 1016,3 hPa 0,0 mm 4,6 km/h (1 Bft) O-NO 57 ° 1 min 0,000 mm 5,7 UV-I 870 W/m² 18,7 °C 23,6 °C 11,3 km/h (2 Bft)
26.08.2019 12:55 23,7 °C 73 % 1016,3 hPa 0,0 mm 6,6 km/h (2 Bft) O-NO 59 ° 1 min 0,000 mm 5,8 UV-I 877 W/m² 18,6 °C 23,7 °C 8,0 km/h (2 Bft)
26.08.2019 12:56 23,6 °C 73 % 1016,3 hPa 0,0 mm 3,2 km/h (1 Bft) N-NO 30 ° 1 min 0,000 mm 5,8 UV-I 886 W/m² 18,5 °C 23,6 °C 8,0 km/h (2 Bft)
26.08.2019 12:57 23,6 °C 72 % 1016,3 hPa 0,0 mm 4,5 km/h (1 Bft) NO 42 ° 1 min 0,000 mm 5,8 UV-I 905 W/m² 18,2 °C 23,6 °C 8,0 km/h (2 Bft)
26.08.2019 12:58 23,6 °C 72 % 1016,3 hPa 0,0 mm 6,3 km/h (2 Bft) N-NO 30 ° 1 min 0,000 mm 5,8 UV-I 891 W/m² 18,2 °C 23,6 °C 9,7 km/h (2 Bft)
26.08.2019 12:59 23,6 °C 71 % 1016,3 hPa 0,0 mm 6,6 km/h (2 Bft) NO 46 ° 1 min 0,000 mm 5,7 UV-I 849 W/m² 18,0 °C 23,6 °C 9,7 km/h (2 Bft)
26.08.2019 13:00 23,6 °C 72 % 1016,3 hPa 0,0 mm 4,3 km/h (1 Bft) NO 53 ° 1 min 0,000 mm 5,8 UV-I 833 W/m² 18,2 °C 23,6 °C 8,0 km/h (2 Bft)
26.08.2019 13:01 23,6 °C 71 % 1016,3 hPa 0,0 mm 4,9 km/h (1 Bft) O-NO 64 ° 1 min 0,483 mm 5,4 UV-I 833 W/m² 18,0 °C 23,6 °C 8,0 km/h (2 Bft)
26.08.2019 13:02 23,6 °C 72 % 1016,3 hPa 0,0 mm 3,8 km/h (1 Bft) O-NO 75 ° 1 min 0,000 mm 5,8 UV-I 833 W/m² 18,2 °C 23,6 °C 6,4 km/h (2 Bft)
26.08.2019 13:03 23,4 °C 73 % 1016,3 hPa 0,0 mm 2,3 km/h (1 Bft) N-NO 17 ° 1 min 0,000 mm 5,2 UV-I 833 W/m² 18,3 °C 23,4 °C 4,8 km/h (1 Bft)
26.08.2019 13:04 23,4 °C 76 % 1016,3 hPa 0,0 mm 6,1 km/h (2 Bft) N-NO 15 ° 1 min 0,000 mm 5,9 UV-I 930 W/m² 18,9 °C 23,4 °C 8,0 km/h (2 Bft)
26.08.2019 13:05 23,5 °C 73 % 1016,3 hPa 0,0 mm 5,4 km/h (1 Bft) N 360 ° 1 min 0,000 mm 5,1 UV-I 930 W/m² 18,4 °C 23,5 °C 9,7 km/h (2 Bft)
26.08.2019 13:06 23,6 °C 73 % 1016,3 hPa 0,0 mm 4,4 km/h (1 Bft) NW 324 ° 1 min 0,000 mm 4,5 UV-I 930 W/m² 18,5 °C 23,6 °C 6,4 km/h (2 Bft)
26.08.2019 13:07 23,6 °C 73 % 1016,3 hPa 0,0 mm 3,2 km/h (1 Bft) NW 315 ° 1 min 0,000 mm 4,5 UV-I 719 W/m² 18,5 °C 23,6 °C 6,4 km/h (2 Bft)
26.08.2019 13:08 23,6 °C 75 % 1016,4 hPa 0,0 mm 4,5 km/h (1 Bft) N 5 ° 1 min 0,000 mm 3,9 UV-I 719 W/m² 18,9 °C 23,6 °C 6,4 km/h (2 Bft)
26.08.2019 13:09 23,6 °C 74 % 1016,4 hPa 0,0 mm 3,1 km/h (1 Bft) N 11 ° 0 min 0,000 mm 3,7 UV-I 301 W/m² 18,7 °C 23,6 °C 4,8 km/h (1 Bft)
26.08.2019 13:10 23,6 °C 74 % 1016,4 hPa 0,0 mm 6,6 km/h (2 Bft) O-NO 59 ° 0 min 0,000 mm 3,7 UV-I 290 W/m² 18,7 °C 23,6 °C 16,1 km/h (3 Bft)
26.08.2019 13:11 23,6 °C 72 % 1016,4 hPa 0,0 mm 4,6 km/h (1 Bft) O 84 ° 0 min 0,000 mm 3,1 UV-I 257 W/m² 18,2 °C 23,6 °C 11,3 km/h (2 Bft)
26.08.2019 13:12 23,4 °C 72 % 1016,3 hPa 0,0 mm 0,6 km/h (0 Bft) N-NO 24 ° 0 min 0,000 mm 3,3 UV-I 278 W/m² 18,1 °C 23,4 °C 3,2 km/h (1 Bft)
26.08.2019 13:13 23,3 °C 73 % 1016,3 hPa 0,0 mm 0,6 km/h (0 Bft) N 5 ° 0 min 0,000 mm 3,5 UV-I 359 W/m² 18,2 °C 23,3 °C 3,2 km/h (1 Bft)
26.08.2019 13:14 23,3 °C 74 % 1016,3 hPa 0,0 mm 4,9 km/h (1 Bft) O-NO 71 ° 0 min 0,000 mm 3,2 UV-I 287 W/m² 18,4 °C 23,3 °C 8,0 km/h (2 Bft)
26.08.2019 13:15 23,3 °C 74 % 1016,2 hPa 0,0 mm 5,4 km/h (1 Bft) O 80 ° 0 min 0,000 mm 3,1 UV-I 297 W/m² 18,4 °C 23,3 °C 11,3 km/h (2 Bft)
26.08.2019 13:16 23,3 °C 74 % 1016,3 hPa 0,0 mm 2,9 km/h (1 Bft) NO 56 ° 0 min 0,000 mm 3,1 UV-I 234 W/m² 18,4 °C 23,3 °C 6,4 km/h (2 Bft)
26.08.2019 13:17 23,3 °C 74 % 1016,3 hPa 0,0 mm 7,9 km/h (2 Bft) N-NO 26 ° 0 min 0,000 mm 3,5 UV-I 267 W/m² 18,4 °C 23,3 °C 14,5 km/h (3 Bft)
26.08.2019 13:18 23,1 °C 72 % 1016,3 hPa 0,0 mm 3,3 km/h (1 Bft) NO 45 ° 0 min 0,000 mm 5,2 UV-I 267 W/m² 17,8 °C 23,1 °C 6,4 km/h (2 Bft)
26.08.2019 13:19 23,1 °C 73 % 1016,3 hPa 0,0 mm 3,8 km/h (1 Bft) O-NO 62 ° 0 min 0,000 mm 5,3 UV-I 267 W/m² 18,0 °C 23,1 °C 4,8 km/h (1 Bft)
26.08.2019 13:20 23,1 °C 72 % 1016,2 hPa 0,0 mm 2,5 km/h (1 Bft) O-NO 62 ° 0 min 0,000 mm 3,3 UV-I 267 W/m² 17,8 °C 23,1 °C 4,8 km/h (1 Bft)
26.08.2019 13:21 23,1 °C 75 % 1016,2 hPa 0,0 mm 3,1 km/h (1 Bft) NO 41 ° 0 min 0,000 mm 4,9 UV-I 295 W/m² 18,4 °C 23,1 °C 4,8 km/h (1 Bft)
26.08.2019 13:22 23,1 °C 74 % 1016,2 hPa 0,0 mm 1,7 km/h (1 Bft) NO 42 ° 0 min 0,000 mm 5,1 UV-I 295 W/m² 18,2 °C 23,1 °C 4,8 km/h (1 Bft)
26.08.2019 13:23 23,1 °C 74 % 1016,2 hPa 0,0 mm 0,0 km/h (0 Bft) NO 56 ° 1 min 0,000 mm 5,3 UV-I 802 W/m² 18,2 °C 23,1 °C 0,0 km/h (0 Bft)
26.08.2019 13:24 23,1 °C 75 % 1016,2 hPa 0,0 mm 6,9 km/h (2 Bft) NO 41 ° 1 min 0,000 mm 3,6 UV-I 802 W/m² 18,4 °C 23,1 °C 11,3 km/h (2 Bft)
26.08.2019 13:25 23,1 °C 74 % 1016,3 hPa 0,0 mm 1,5 km/h (1 Bft) O-NO 59 ° 1 min 0,000 mm 3,7 UV-I 802 W/m² 18,2 °C 23,1 °C 6,4 km/h (2 Bft)
26.08.2019 13:26 23,2 °C 74 % 1016,2 hPa 0,0 mm 1,4 km/h (1 Bft) N 5 ° 0 min 0,000 mm 4,1 UV-I 267 W/m² 18,3 °C 23,2 °C 4,8 km/h (1 Bft)
26.08.2019 13:27 23,2 °C 73 % 1016,3 hPa 0,0 mm 4,0 km/h (1 Bft) NO 42 ° 0 min 0,000 mm 4,0 UV-I 276 W/m² 18,1 °C 23,2 °C 6,4 km/h (2 Bft)
26.08.2019 13:28 23,1 °C 72 % 1016,3 hPa 0,0 mm 2,7 km/h (1 Bft) NO 34 ° 0 min 0,000 mm 5,4 UV-I 276 W/m² 17,8 °C 23,1 °C 4,8 km/h (1 Bft)
26.08.2019 13:29 23,2 °C 73 % 1016,3 hPa 0,0 mm 0,1 km/h (0 Bft) NO 39 ° 1 min 0,000 mm 5,4 UV-I 819 W/m² 18,1 °C 23,2 °C 1,6 km/h (1 Bft)
26.08.2019 13:30 23,2 °C 74 % 1016,3 hPa 0,0 mm 5,0 km/h (1 Bft) N-NO 26 ° 1 min 0,000 mm 4,6 UV-I 786 W/m² 18,3 °C 23,2 °C 6,4 km/h (2 Bft)
26.08.2019 13:31 23,2 °C 72 % 1016,3 hPa 0,0 mm 2,7 km/h (1 Bft) N-NO 16 ° 1 min 0,000 mm 5,3 UV-I 786 W/m² 17,9 °C 23,2 °C 4,8 km/h (1 Bft)
26.08.2019 13:32 23,3 °C 73 % 1016,3 hPa 0,0 mm 2,4 km/h (1 Bft) O-NO 61 ° 1 min 0,000 mm 5,6 UV-I 786 W/m² 18,2 °C 23,3 °C 6,4 km/h (2 Bft)
26.08.2019 13:33 23,5 °C 73 % 1016,3 hPa 0,0 mm 7,2 km/h (2 Bft) N 355 ° 1 min 0,000 mm 5,6 UV-I 846 W/m² 18,4 °C 23,5 °C 11,3 km/h (2 Bft)
26.08.2019 13:34 23,6 °C 72 % 1016,3 hPa 0,0 mm 3,4 km/h (1 Bft) N 355 ° 1 min 0,000 mm 5,5 UV-I 838 W/m² 18,2 °C 23,6 °C 4,8 km/h (1 Bft)
26.08.2019 13:35 23,8 °C 72 % 1016,2 hPa 0,0 mm 2,2 km/h (1 Bft) N-NO 14 ° 1 min 0,000 mm 5,6 UV-I 846 W/m² 18,4 °C 23,8 °C 4,8 km/h (1 Bft)
26.08.2019 13:36 23,9 °C 72 % 1016,2 hPa 0,0 mm 4,5 km/h (1 Bft) N 350 ° 1 min 0,000 mm 5,4 UV-I 747 W/m² 18,5 °C 23,9 °C 6,4 km/h (2 Bft)
26.08.2019 13:37 24,0 °C 72 % 1016,2 hPa 0,0 mm 4,2 km/h (1 Bft) O-SO 122 ° 1 min 0,000 mm 5,5 UV-I 747 W/m² 18,6 °C 24,0 °C 6,4 km/h (2 Bft)
26.08.2019 13:38 24,0 °C 74 % 1016,2 hPa 0,0 mm 1,5 km/h (1 Bft) O 88 ° 1 min 0,000 mm 5,6 UV-I 795 W/m² 19,1 °C 24,0 °C 4,8 km/h (1 Bft)
26.08.2019 13:39 23,8 °C 70 % 1016,2 hPa 0,0 mm 4,5 km/h (1 Bft) NO 40 ° 1 min 0,000 mm 5,8 UV-I 777 W/m² 18,0 °C 23,8 °C 8,0 km/h (2 Bft)
26.08.2019 13:40 23,8 °C 70 % 1016,2 hPa 0,0 mm 4,8 km/h (1 Bft) NO 40 ° 1 min 0,000 mm 5,8 UV-I 865 W/m² 18,0 °C 23,8 °C 6,4 km/h (2 Bft)
26.08.2019 13:41 23,7 °C 70 % 1016,2 hPa 0,0 mm 3,5 km/h (1 Bft) NO 40 ° 1 min 0,000 mm 5,4 UV-I 865 W/m² 17,9 °C 23,7 °C 4,8 km/h (1 Bft)
26.08.2019 13:42 23,8 °C 71 % 1016,2 hPa 0,0 mm 2,1 km/h (1 Bft) O 86 ° 1 min 0,000 mm 5,9 UV-I 865 W/m² 18,2 °C 23,8 °C 4,8 km/h (1 Bft)
26.08.2019 13:43 23,7 °C 69 % 1016,2 hPa 0,0 mm 3,9 km/h (1 Bft) O 98 ° 1 min 0,000 mm 5,8 UV-I 865 W/m² 17,7 °C 23,7 °C 6,4 km/h (2 Bft)
26.08.2019 13:44 23,6 °C 69 % 1016,2 hPa 0,0 mm 1,3 km/h (1 Bft) O 98 ° 1 min 0,000 mm 5,8 UV-I 877 W/m² 17,6 °C 23,6 °C 3,2 km/h (1 Bft)
26.08.2019 13:45 23,6 °C 70 % 1016,2 hPa 0,0 mm 0,9 km/h (0 Bft) O 98 ° 1 min 0,000 mm 5,4 UV-I 877 W/m² 17,8 °C 23,6 °C 4,8 km/h (1 Bft)
26.08.2019 13:46 23,5 °C 71 % 1016,2 hPa 0,0 mm 0,0 km/h (0 Bft) O 98 ° 1 min 0,000 mm 5,3 UV-I 877 W/m² 17,9 °C 23,5 °C 0,0 km/h (0 Bft)
26.08.2019 13:47 23,4 °C 69 % 1016,2 hPa 0,0 mm 0,0 km/h (0 Bft) O 98 ° 1 min 0,000 mm 3,4 UV-I 877 W/m² 17,4 °C 23,4 °C 0,0 km/h (0 Bft)
26.08.2019 13:48 23,4 °C 70 % 1016,2 hPa 0,0 mm 0,0 km/h (0 Bft) O 98 ° 0 min 0,000 mm 3,6 UV-I 329 W/m² 17,6 °C 23,4 °C 0,0 km/h (0 Bft)
26.08.2019 13:49 23,3 °C 70 % 1016,2 hPa 0,0 mm 0,0 km/h (0 Bft) O 98 ° 0 min 0,000 mm 3,0 UV-I 281 W/m² 17,5 °C 23,3 °C 0,0 km/h (0 Bft)
26.08.2019 13:50 23,3 °C 70 % 1016,2 hPa 0,0 mm 0,0 km/h (0 Bft) O 98 ° 0 min 0,000 mm 2,9 UV-I 241 W/m² 17,5 °C 23,3 °C 0,0 km/h (0 Bft)
26.08.2019 13:51 23,2 °C 73 % 1016,2 hPa 0,0 mm 0,0 km/h (0 Bft) N-NO 28 ° 0 min 0,000 mm 2,9 UV-I 248 W/m² 18,1 °C 23,2 °C 0,0 km/h (0 Bft)
26.08.2019 13:52 23,2 °C 73 % 1016,2 hPa 0,0 mm 0,0 km/h (0 Bft) N-NO 28 ° 0 min 0,000 mm 3,0 UV-I 248 W/m² 18,1 °C 23,2 °C 0,0 km/h (0 Bft)
26.08.2019 13:53 23,2 °C 71 % 1016,2 hPa 0,0 mm 0,8 km/h (0 Bft) NW 306 ° 0 min 0,000 mm 3,1 UV-I 253 W/m² 17,6 °C 23,2 °C 4,8 km/h (1 Bft)
26.08.2019 13:54 23,1 °C 71 % 1016,2 hPa 0,0 mm 2,5 km/h (1 Bft) NW 306 ° 0 min 0,000 mm 3,4 UV-I 253 W/m² 17,5 °C 23,1 °C 4,8 km/h (1 Bft)
26.08.2019 13:55 23,1 °C 72 % 1016,2 hPa 0,0 mm 0,1 km/h (0 Bft) NW 306 ° 0 min 0,000 mm 4,1 UV-I 253 W/m² 17,8 °C 23,1 °C 1,6 km/h (1 Bft)
26.08.2019 13:56 23,2 °C 73 % 1016,2 hPa 0,0 mm 1,0 km/h (0 Bft) NW 306 ° 0 min 0,000 mm 5,0 UV-I 520 W/m² 18,1 °C 23,2 °C 3,2 km/h (1 Bft)
26.08.2019 13:57 23,3 °C 74 % 1016,1 hPa 0,0 mm 1,3 km/h (1 Bft) NW 306 ° 1 min 0,000 mm 5,2 UV-I 874 W/m² 18,4 °C 23,3 °C 3,2 km/h (1 Bft)
26.08.2019 13:58 23,4 °C 71 % 1016,1 hPa 0,0 mm 2,6 km/h (1 Bft) N-NW 345 ° 1 min 0,000 mm 5,4 UV-I 902 W/m² 17,8 °C 23,4 °C 4,8 km/h (1 Bft)
26.08.2019 13:59 23,7 °C 71 % 1016,2 hPa 0,0 mm 3,8 km/h (1 Bft) N 350 ° 1 min 0,000 mm 5,6 UV-I 874 W/m² 18,1 °C 23,7 °C 4,8 km/h (1 Bft)
26.08.2019 14:00 23,7 °C 70 % 1016,1 hPa 0,0 mm 2,8 km/h (1 Bft) N 355 ° 1 min 0,355 mm 5,5 UV-I 874 W/m² 17,9 °C 23,7 °C 4,8 km/h (1 Bft)
26.08.2019 14:01 23,8 °C 71 % 1016,1 hPa 0,0 mm 1,0 km/h (0 Bft) N 355 ° 1 min 0,000 mm 5,5 UV-I 874 W/m² 18,2 °C 23,8 °C 3,2 km/h (1 Bft)
26.08.2019 14:02 23,8 °C 71 % 1016,1 hPa 0,0 mm 3,0 km/h (1 Bft) N 349 ° 1 min 0,000 mm 5,4 UV-I 837 W/m² 18,2 °C 23,8 °C 6,4 km/h (2 Bft)
26.08.2019 14:03 23,9 °C 72 % 1016,1 hPa 0,0 mm 1,8 km/h (1 Bft) N-NW 329 ° 1 min 0,000 mm 5,4 UV-I 772 W/m² 18,5 °C 23,9 °C 4,8 km/h (1 Bft)
26.08.2019 14:04 24,1 °C 72 % 1016,1 hPa 0,0 mm 0,2 km/h (0 Bft) N-NW 332 ° 1 min 0,000 mm 5,3 UV-I 694 W/m² 18,7 °C 24,1 °C 1,6 km/h (1 Bft)
26.08.2019 14:05 24,1 °C 70 % 1016,1 hPa 0,0 mm 1,2 km/h (1 Bft) N-NW 336 ° 1 min 0,000 mm 5,4 UV-I 694 W/m² 18,3 °C 24,1 °C 1,6 km/h (1 Bft)
26.08.2019 14:06 24,0 °C 68 % 1016,1 hPa 0,0 mm 2,7 km/h (1 Bft) N-NO 17 ° 1 min 0,000 mm 5,5 UV-I 858 W/m² 17,7 °C 24,0 °C 3,2 km/h (1 Bft)
26.08.2019 14:07 23,8 °C 70 % 1016,1 hPa 0,0 mm 3,8 km/h (1 Bft) NO 47 ° 1 min 0,000 mm 5,5 UV-I 861 W/m² 18,0 °C 23,8 °C 6,4 km/h (2 Bft)
26.08.2019 14:08 23,7 °C 69 % 1016,1 hPa 0,0 mm 5,2 km/h (1 Bft) N-NO 25 ° 1 min 0,000 mm 5,5 UV-I 842 W/m² 17,7 °C 23,7 °C 8,0 km/h (2 Bft)
26.08.2019 14:09 23,8 °C 70 % 1016,1 hPa 0,0 mm 4,7 km/h (1 Bft) O-NO 71 ° 1 min 0,000 mm 5,4 UV-I 828 W/m² 18,0 °C 23,8 °C 8,0 km/h (2 Bft)
26.08.2019 14:10 23,8 °C 71 % 1016,1 hPa 0,0 mm 7,4 km/h (2 Bft) O-SO 103 ° 1 min 0,000 mm 4,4 UV-I 828 W/m² 18,2 °C 23,8 °C 11,3 km/h (2 Bft)
26.08.2019 14:11 23,8 °C 70 % 1016,1 hPa 0,0 mm 4,5 km/h (1 Bft) O-NO 78 ° 1 min 0,000 mm 3,7 UV-I 828 W/m² 18,0 °C 23,8 °C 9,7 km/h (2 Bft)
26.08.2019 14:12 23,7 °C 72 % 1016,1 hPa 0,0 mm 3,7 km/h (1 Bft) NO 48 ° 0 min 0,000 mm 3,8 UV-I 257 W/m² 18,3 °C 23,7 °C 6,4 km/h (2 Bft)
26.08.2019 14:13 23,7 °C 70 % 1016,1 hPa 0,0 mm 3,5 km/h (1 Bft) NO 34 ° 0 min 0,000 mm 5,3 UV-I 257 W/m² 17,9 °C 23,7 °C 6,4 km/h (2 Bft)
26.08.2019 14:14 23,8 °C 71 % 1016,1 hPa 0,0 mm 4,7 km/h (1 Bft) NO 50 ° 1 min 0,000 mm 5,3 UV-I 793 W/m² 18,2 °C 23,8 °C 8,0 km/h (2 Bft)
26.08.2019 14:15 23,9 °C 73 % 1016,1 hPa 0,0 mm 3,0 km/h (1 Bft) NO 43 ° 1 min 0,000 mm 5,3 UV-I 789 W/m² 18,8 °C 23,9 °C 4,8 km/h (1 Bft)
26.08.2019 14:16 24,1 °C 74 % 1016,1 hPa 0,0 mm 4,5 km/h (1 Bft) O-SO 109 ° 1 min 0,000 mm 5,4 UV-I 789 W/m² 19,2 °C 24,1 °C 6,4 km/h (2 Bft)
26.08.2019 14:17 24,0 °C 67 % 1016,1 hPa 0,0 mm 3,3 km/h (1 Bft) SO 143 ° 1 min 0,000 mm 5,3 UV-I 800 W/m² 17,5 °C 24,0 °C 8,0 km/h (2 Bft)
26.08.2019 14:18 23,9 °C 69 % 1016,1 hPa 0,0 mm 3,6 km/h (1 Bft) O-NO 64 ° 1 min 0,000 mm 4,1 UV-I 800 W/m² 17,9 °C 23,9 °C 4,8 km/h (1 Bft)
26.08.2019 14:19 23,9 °C 69 % 1016,1 hPa 0,0 mm 1,0 km/h (0 Bft) O-NO 64 ° 1 min 0,000 mm 5,2 UV-I 782 W/m² 17,9 °C 23,9 °C 3,2 km/h (1 Bft)
26.08.2019 14:20 23,8 °C 70 % 1016,1 hPa 0,0 mm 0,9 km/h (0 Bft) O-NO 64 ° 1 min 0,000 mm 4,5 UV-I 782 W/m² 18,0 °C 23,8 °C 3,2 km/h (1 Bft)
26.08.2019 14:21 23,7 °C 71 % 1016,1 hPa 0,0 mm 0,9 km/h (0 Bft) O-NO 64 ° 0 min 0,000 mm 3,2 UV-I 209 W/m² 18,1 °C 23,7 °C 3,2 km/h (1 Bft)
26.08.2019 14:22 23,7 °C 72 % 1016,1 hPa 0,0 mm 5,3 km/h (1 Bft) O-NO 63 ° 0 min 0,000 mm 2,9 UV-I 192 W/m² 18,3 °C 23,7 °C 6,4 km/h (2 Bft)
26.08.2019 14:23 23,6 °C 70 % 1016,0 hPa 0,0 mm 3,4 km/h (1 Bft) O 86 ° 0 min 0,000 mm 2,9 UV-I 193 W/m² 17,8 °C 23,6 °C 6,4 km/h (2 Bft)
26.08.2019 14:24 23,4 °C 70 % 1016,1 hPa 0,0 mm 4,3 km/h (1 Bft) O-SO 105 ° 0 min 0,000 mm 4,4 UV-I 236 W/m² 17,6 °C 23,4 °C 6,4 km/h (2 Bft)
26.08.2019 14:25 23,4 °C 72 % 1016,1 hPa 0,0 mm 3,4 km/h (1 Bft) O 85 ° 1 min 0,000 mm 4,3 UV-I 782 W/m² 18,1 °C 23,4 °C 4,8 km/h (1 Bft)
26.08.2019 14:26 23,3 °C 71 % 1016,1 hPa 0,0 mm 0,8 km/h (0 Bft) O 85 ° 1 min 0,000 mm 5,0 UV-I 800 W/m² 17,7 °C 23,3 °C 3,2 km/h (1 Bft)
26.08.2019 14:27 23,4 °C 72 % 1016,0 hPa 0,0 mm 2,1 km/h (1 Bft) O 88 ° 1 min 0,000 mm 5,1 UV-I 803 W/m² 18,1 °C 23,4 °C 4,8 km/h (1 Bft)
26.08.2019 14:28 23,3 °C 73 % 1016,1 hPa 0,0 mm 1,5 km/h (1 Bft) O 88 ° 1 min 0,000 mm 5,1 UV-I 819 W/m² 18,2 °C 23,3 °C 3,2 km/h (1 Bft)
26.08.2019 14:29 23,4 °C 75 % 1016,1 hPa 0,0 mm 3,1 km/h (1 Bft) NO 50 ° 1 min 0,000 mm 5,1 UV-I 830 W/m² 18,7 °C 23,4 °C 4,8 km/h (1 Bft)
26.08.2019 14:30 23,6 °C 72 % 1016,1 hPa 0,0 mm 4,3 km/h (1 Bft) NO 35 ° 1 min 0,000 mm 5,2 UV-I 830 W/m² 18,2 °C 23,6 °C 6,4 km/h (2 Bft)
26.08.2019 14:31 23,7 °C 71 % 1016,1 hPa 0,0 mm 4,5 km/h (1 Bft) NO 35 ° 1 min 0,000 mm 5,0 UV-I 802 W/m² 18,1 °C 23,7 °C 8,0 km/h (2 Bft)
26.08.2019 14:32 23,9 °C 71 % 1016,0 hPa 0,0 mm 5,2 km/h (1 Bft) O-NO 57 ° 1 min 0,000 mm 5,1 UV-I 809 W/m² 18,3 °C 23,9 °C 8,0 km/h (2 Bft)
26.08.2019 14:33 24,1 °C 71 % 1016,0 hPa 0,0 mm 5,2 km/h (1 Bft) N-NO 15 ° 1 min 0,000 mm 4,9 UV-I 802 W/m² 18,5 °C 24,1 °C 8,0 km/h (2 Bft)
26.08.2019 14:34 24,2 °C 70 % 1016,1 hPa 0,0 mm 4,6 km/h (1 Bft) NO 41 ° 1 min 0,000 mm 4,8 UV-I 796 W/m² 18,4 °C 24,2 °C 6,4 km/h (2 Bft)
26.08.2019 14:35 24,2 °C 68 % 1015,9 hPa 0,0 mm 5,6 km/h (1 Bft) N-NO 30 ° 1 min 0,000 mm 4,7 UV-I 742 W/m² 17,9 °C 24,2 °C 8,0 km/h (2 Bft)
26.08.2019 14:36 24,2 °C 68 % 1015,9 hPa 0,0 mm 5,2 km/h (1 Bft) O 86 ° 1 min 0,000 mm 3,8 UV-I 742 W/m² 17,9 °C 24,2 °C 9,7 km/h (2 Bft)
26.08.2019 14:37 24,1 °C 69 % 1016,0 hPa 0,0 mm 2,8 km/h (1 Bft) NO 44 ° 1 min 0,000 mm 3,7 UV-I 742 W/m² 18,0 °C 24,1 °C 4,8 km/h (1 Bft)
26.08.2019 14:38 24,1 °C 69 % 1016,0 hPa 0,0 mm 4,7 km/h (1 Bft) O 101 ° 1 min 0,000 mm 4,6 UV-I 795 W/m² 18,0 °C 24,1 °C 11,3 km/h (2 Bft)
26.08.2019 14:39 24,0 °C 71 % 1016,0 hPa 0,0 mm 4,6 km/h (1 Bft) O-SO 107 ° 1 min 0,000 mm 4,6 UV-I 795 W/m² 18,4 °C 24,0 °C 9,7 km/h (2 Bft)
26.08.2019 14:40 23,9 °C 70 % 1016,0 hPa 0,0 mm 0,0 km/h (0 Bft) O-SO 108 ° 1 min 0,000 mm 4,0 UV-I 795 W/m² 18,1 °C 23,9 °C 0,0 km/h (0 Bft)
26.08.2019 14:41 23,9 °C 71 % 1016,0 hPa 0,0 mm 0,0 km/h (0 Bft) O-SO 107 ° 1 min 0,000 mm 2,9 UV-I 795 W/m² 18,3 °C 23,9 °C 0,0 km/h (0 Bft)
26.08.2019 14:42 23,8 °C 74 % 1016,1 hPa 0,0 mm 0,0 km/h (0 Bft) N 5 ° 0 min 0,000 mm 2,9 UV-I 318 W/m² 18,9 °C 23,8 °C 0,0 km/h (0 Bft)
26.08.2019 14:43 23,8 °C 73 % 1016,1 hPa 0,0 mm 4,4 km/h (1 Bft) W-NW 303 ° 0 min 0,000 mm 2,5 UV-I 221 W/m² 18,7 °C 23,8 °C 6,4 km/h (2 Bft)
26.08.2019 14:44 23,7 °C 70 % 1016,1 hPa 0,0 mm 5,2 km/h (1 Bft) N 355 ° 0 min 0,000 mm 2,4 UV-I 216 W/m² 17,9 °C 23,7 °C 8,0 km/h (2 Bft)
26.08.2019 14:45 23,6 °C 71 % 1016,1 hPa 0,0 mm 1,6 km/h (1 Bft) N 360 ° 0 min 0,000 mm 2,4 UV-I 211 W/m² 18,0 °C 23,6 °C 3,2 km/h (1 Bft)
26.08.2019 14:46 23,6 °C 71 % 1016,1 hPa 0,0 mm 0,8 km/h (0 Bft) N-NW 338 ° 0 min 0,000 mm 2,3 UV-I 209 W/m² 18,0 °C 23,6 °C 3,2 km/h (1 Bft)
26.08.2019 14:47 23,4 °C 70 % 1016,1 hPa 0,0 mm 2,6 km/h (1 Bft) N-NW 338 ° 0 min 0,000 mm 2,4 UV-I 216 W/m² 17,6 °C 23,4 °C 4,8 km/h (1 Bft)
26.08.2019 14:48 23,4 °C 71 % 1016,1 hPa 0,0 mm 0,3 km/h (0 Bft) N-NW 338 ° 0 min 0,000 mm 2,3 UV-I 207 W/m² 17,8 °C 23,4 °C 1,6 km/h (1 Bft)
26.08.2019 14:49 23,3 °C 71 % 1016,0 hPa 0,0 mm 2,3 km/h (1 Bft) N-NW 337 ° 0 min 0,000 mm 2,3 UV-I 197 W/m² 17,7 °C 23,3 °C 3,2 km/h (1 Bft)
26.08.2019 14:50 23,3 °C 71 % 1016,0 hPa 0,0 mm 0,1 km/h (0 Bft) N-NW 337 ° 0 min 0,000 mm 2,3 UV-I 202 W/m² 17,7 °C 23,3 °C 1,6 km/h (1 Bft)
26.08.2019 14:51 23,2 °C 72 % 1016,1 hPa 0,0 mm 3,4 km/h (1 Bft) N-NW 328 ° 0 min 0,000 mm 2,3 UV-I 199 W/m² 17,9 °C 23,2 °C 4,8 km/h (1 Bft)
26.08.2019 14:52 23,2 °C 71 % 1016,0 hPa 0,0 mm 1,5 km/h (1 Bft) N-NW 328 ° 0 min 0,000 mm 2,4 UV-I 204 W/m² 17,6 °C 23,2 °C 4,8 km/h (1 Bft)
26.08.2019 14:53 23,2 °C 72 % 1016,0 hPa 0,0 mm 1,7 km/h (1 Bft) N-NW 328 ° 0 min 0,000 mm 2,5 UV-I 209 W/m² 17,9 °C 23,2 °C 3,2 km/h (1 Bft)
26.08.2019 14:54 23,2 °C 71 % 1016,0 hPa 0,0 mm 2,3 km/h (1 Bft) N-NW 328 ° 0 min 0,000 mm 2,6 UV-I 204 W/m² 17,6 °C 23,2 °C 4,8 km/h (1 Bft)
26.08.2019 14:55 23,1 °C 72 % 1015,9 hPa 0,0 mm 0,0 km/h (0 Bft) N-NW 328 ° 0 min 0,000 mm 2,7 UV-I 214 W/m² 17,8 °C 23,1 °C 0,0 km/h (0 Bft)
26.08.2019 14:56 23,1 °C 71 % 1016,0 hPa 0,0 mm 0,5 km/h (0 Bft) N-NW 328 ° 0 min 0,000 mm 3,4 UV-I 276 W/m² 17,5 °C 23,1 °C 3,2 km/h (1 Bft)
26.08.2019 14:57 23,1 °C 73 % 1015,9 hPa 0,0 mm 0,0 km/h (0 Bft) N-NW 328 ° 0 min 0,000 mm 2,9 UV-I 220 W/m² 18,0 °C 23,1 °C 0,0 km/h (0 Bft)
26.08.2019 14:58 23,1 °C 73 % 1015,9 hPa 0,0 mm 0,0 km/h (0 Bft) N-NW 328 ° 0 min 0,000 mm 2,8 UV-I 221 W/m² 18,0 °C 23,1 °C 0,0 km/h (0 Bft)
26.08.2019 14:59 23,1 °C 72 % 1015,9 hPa 0,0 mm 0,0 km/h (0 Bft) N-NW 336 ° 0 min 0,000 mm 3,1 UV-I 271 W/m² 17,8 °C 23,1 °C 0,0 km/h (0 Bft)
26.08.2019 15:00 23,2 °C 73 % 1015,9 hPa 0,0 mm 1,8 km/h (1 Bft) NO 34 ° 0 min 0,331 mm 3,2 UV-I 329 W/m² 18,1 °C 23,2 °C 4,8 km/h (1 Bft)
26.08.2019 15:01 23,1 °C 73 % 1015,9 hPa 0,0 mm 1,1 km/h (1 Bft) NO 38 ° 0 min 0,000 mm 3,4 UV-I 329 W/m² 18,0 °C 23,1 °C 3,2 km/h (1 Bft)
26.08.2019 15:02 23,1 °C 73 % 1015,9 hPa 0,0 mm 0,1 km/h (0 Bft) NO 35 ° 0 min 0,000 mm 4,5 UV-I 329 W/m² 18,0 °C 23,1 °C 1,6 km/h (1 Bft)
26.08.2019 15:03 23,2 °C 75 % 1015,9 hPa 0,0 mm 0,3 km/h (0 Bft) NO 35 ° 1 min 0,000 mm 4,6 UV-I 689 W/m² 18,5 °C 23,2 °C 1,6 km/h (1 Bft)
26.08.2019 15:04 23,3 °C 74 % 1015,8 hPa 0,0 mm 0,0 km/h (0 Bft) NO 35 ° 1 min 0,000 mm 4,8 UV-I 717 W/m² 18,4 °C 23,3 °C 0,0 km/h (0 Bft)
26.08.2019 15:05 23,3 °C 76 % 1015,8 hPa 0,0 mm 0,0 km/h (0 Bft) O-NO 68 ° 1 min 0,000 mm 4,8 UV-I 731 W/m² 18,8 °C 23,3 °C 0,0 km/h (0 Bft)
26.08.2019 15:06 23,4 °C 71 % 1015,8 hPa 0,0 mm 0,0 km/h (0 Bft) O-NO 68 ° 1 min 0,000 mm 4,8 UV-I 744 W/m² 17,8 °C 23,4 °C 0,0 km/h (0 Bft)
26.08.2019 15:07 23,4 °C 73 % 1015,8 hPa 0,0 mm 1,2 km/h (1 Bft) O 96 ° 1 min 0,000 mm 4,8 UV-I 740 W/m² 18,3 °C 23,4 °C 4,8 km/h (1 Bft)
26.08.2019 15:08 23,4 °C 71 % 1015,8 hPa 0,0 mm 3,9 km/h (1 Bft) O-SO 108 ° 1 min 0,000 mm 4,8 UV-I 733 W/m² 17,8 °C 23,4 °C 6,4 km/h (2 Bft)
26.08.2019 15:09 23,5 °C 70 % 1015,8 hPa 0,0 mm 1,7 km/h (1 Bft) NO 36 ° 1 min 0,000 mm 4,8 UV-I 722 W/m² 17,7 °C 23,5 °C 4,8 km/h (1 Bft)
26.08.2019 15:10 23,6 °C 69 % 1015,8 hPa 0,0 mm 4,2 km/h (1 Bft) NO 36 ° 1 min 0,000 mm 4,7 UV-I 717 W/m² 17,6 °C 23,6 °C 4,8 km/h (1 Bft)
26.08.2019 15:11 23,8 °C 70 % 1015,8 hPa 0,0 mm 2,6 km/h (1 Bft) NO 36 ° 1 min 0,000 mm 4,7 UV-I 714 W/m² 18,0 °C 23,8 °C 6,4 km/h (2 Bft)
26.08.2019 15:12 23,9 °C 69 % 1015,8 hPa 0,0 mm 1,2 km/h (1 Bft) N-NO 28 ° 1 min 0,000 mm 4,7 UV-I 712 W/m² 17,9 °C 23,9 °C 4,8 km/h (1 Bft)
26.08.2019 15:13 24,0 °C 71 % 1015,8 hPa 0,0 mm 1,7 km/h (1 Bft) N-NO 31 ° 1 min 0,000 mm 4,7 UV-I 712 W/m² 18,4 °C 24,0 °C 3,2 km/h (1 Bft)
26.08.2019 15:14 23,9 °C 69 % 1015,7 hPa 0,0 mm 0,0 km/h (0 Bft) N-NO 31 ° 1 min 0,000 mm 4,7 UV-I 717 W/m² 17,9 °C 23,9 °C 0,0 km/h (0 Bft)
26.08.2019 15:15 23,9 °C 67 % 1015,7 hPa 0,0 mm 0,7 km/h (0 Bft) N-NO 31 ° 1 min 0,000 mm 4,7 UV-I 721 W/m² 17,4 °C 23,9 °C 1,6 km/h (1 Bft)
26.08.2019 15:16 23,9 °C 67 % 1015,7 hPa 0,0 mm 0,1 km/h (0 Bft) N-NO 31 ° 1 min 0,000 mm 4,7 UV-I 722 W/m² 17,4 °C 23,9 °C 1,6 km/h (1 Bft)
26.08.2019 15:17 24,0 °C 67 % 1015,7 hPa 0,0 mm 0,0 km/h (0 Bft) N-NO 31 ° 1 min 0,000 mm 4,6 UV-I 715 W/m² 17,5 °C 24,0 °C 0,0 km/h (0 Bft)
26.08.2019 15:18 23,9 °C 67 % 1015,7 hPa 0,0 mm 0,0 km/h (0 Bft) N-NO 31 ° 1 min 0,000 mm 4,6 UV-I 728 W/m² 17,4 °C 23,9 °C 0,0 km/h (0 Bft)
26.08.2019 15:19 23,8 °C 68 % 1015,6 hPa 0,0 mm 0,7 km/h (0 Bft) SO 131 ° 1 min 0,000 mm 4,5 UV-I 714 W/m² 17,5 °C 23,8 °C 4,8 km/h (1 Bft)
26.08.2019 15:20 23,8 °C 70 % 1015,6 hPa 0,0 mm 2,1 km/h (1 Bft) SO 131 ° 1 min 0,000 mm 4,5 UV-I 733 W/m² 18,0 °C 23,8 °C 3,2 km/h (1 Bft)
26.08.2019 15:21 23,8 °C 72 % 1015,6 hPa 0,0 mm 0,1 km/h (0 Bft) SO 132 ° 1 min 0,000 mm 4,5 UV-I 737 W/m² 18,4 °C 23,8 °C 1,6 km/h (1 Bft)
26.08.2019 15:22 23,8 °C 69 % 1015,6 hPa 0,0 mm 0,4 km/h (0 Bft) S-SW 193 ° 1 min 0,000 mm 4,5 UV-I 742 W/m² 17,8 °C 23,8 °C 3,2 km/h (1 Bft)
26.08.2019 15:23 23,9 °C 68 % 1015,6 hPa 0,0 mm 4,2 km/h (1 Bft) S-SW 192 ° 1 min 0,000 mm 4,4 UV-I 744 W/m² 17,6 °C 23,9 °C 6,4 km/h (2 Bft)
26.08.2019 15:24 23,9 °C 69 % 1015,6 hPa 0,0 mm 0,5 km/h (0 Bft) S-SW 192 ° 1 min 0,000 mm 4,4 UV-I 754 W/m² 17,9 °C 23,9 °C 1,6 km/h (1 Bft)
26.08.2019 15:25 24,1 °C 73 % 1015,6 hPa 0,0 mm 0,0 km/h (0 Bft) S-SW 193 ° 1 min 0,000 mm 4,3 UV-I 740 W/m² 18,9 °C 24,1 °C 0,0 km/h (0 Bft)
26.08.2019 15:26 24,2 °C 69 % 1015,6 hPa 0,0 mm 3,6 km/h (1 Bft) NW 325 ° 1 min 0,000 mm 4,4 UV-I 759 W/m² 18,1 °C 24,2 °C 6,4 km/h (2 Bft)
26.08.2019 15:27 24,2 °C 69 % 1015,6 hPa 0,0 mm 6,1 km/h (2 Bft) NW 325 ° 1 min 0,000 mm 4,4 UV-I 745 W/m² 18,1 °C 24,2 °C 8,0 km/h (2 Bft)
26.08.2019 15:28 24,3 °C 68 % 1015,6 hPa 0,0 mm 5,7 km/h (1 Bft) N-NW 327 ° 1 min 0,000 mm 4,3 UV-I 737 W/m² 18,0 °C 24,3 °C 8,0 km/h (2 Bft)
26.08.2019 15:29 24,3 °C 66 % 1015,6 hPa 0,0 mm 3,1 km/h (1 Bft) N-NW 327 ° 1 min 0,000 mm 4,3 UV-I 729 W/m² 17,5 °C 24,3 °C 4,8 km/h (1 Bft)
26.08.2019 15:30 24,3 °C 66 % 1015,6 hPa 0,0 mm 2,1 km/h (1 Bft) N-NW 327 ° 1 min 0,000 mm 4,3 UV-I 731 W/m² 17,5 °C 24,3 °C 4,8 km/h (1 Bft)
26.08.2019 15:31 24,3 °C 66 % 1015,5 hPa 0,0 mm 2,3 km/h (1 Bft) N-NW 327 ° 1 min 0,000 mm 4,3 UV-I 731 W/m² 17,5 °C 24,3 °C 4,8 km/h (1 Bft)
26.08.2019 15:32 24,5 °C 66 % 1015,5 hPa 0,0 mm 0,0 km/h (0 Bft) N-NW 327 ° 1 min 0,000 mm 4,3 UV-I 733 W/m² 17,7 °C 24,5 °C 0,0 km/h (0 Bft)
26.08.2019 15:33 24,6 °C 67 % 1015,5 hPa 0,0 mm 0,0 km/h (0 Bft) N 5 ° 1 min 0,000 mm 4,3 UV-I 740 W/m² 18,1 °C 24,6 °C 0,0 km/h (0 Bft)
26.08.2019 15:34 24,6 °C 71 % 1015,6 hPa 0,0 mm 5,7 km/h (1 Bft) O-NO 60 ° 1 min 0,000 mm 4,2 UV-I 733 W/m² 19,0 °C 24,6 °C 8,0 km/h (2 Bft)
26.08.2019 15:35 24,6 °C 67 % 1015,6 hPa 0,0 mm 4,0 km/h (1 Bft) NO 40 ° 1 min 0,000 mm 4,2 UV-I 735 W/m² 18,1 °C 24,6 °C 6,4 km/h (2 Bft)
26.08.2019 15:36 24,4 °C 68 % 1015,5 hPa 0,0 mm 0,8 km/h (0 Bft) N-NO 33 ° 1 min 0,000 mm 4,2 UV-I 745 W/m² 18,1 °C 24,4 °C 3,2 km/h (1 Bft)
26.08.2019 15:37 24,4 °C 69 % 1015,5 hPa 0,0 mm 2,1 km/h (1 Bft) N-NO 30 ° 1 min 0,000 mm 4,2 UV-I 744 W/m² 18,3 °C 24,4 °C 4,8 km/h (1 Bft)
26.08.2019 15:38 24,6 °C 74 % 1015,5 hPa 0,0 mm 3,4 km/h (1 Bft) NO 54 ° 1 min 0,000 mm 4,2 UV-I 733 W/m² 19,6 °C 24,6 °C 4,8 km/h (1 Bft)
26.08.2019 15:39 24,6 °C 69 % 1015,5 hPa 0,0 mm 5,8 km/h (2 Bft) NO 40 ° 1 min 0,000 mm 4,1 UV-I 719 W/m² 18,5 °C 24,6 °C 8,0 km/h (2 Bft)
26.08.2019 15:40 24,5 °C 70 % 1015,5 hPa 0,0 mm 7,6 km/h (2 Bft) O-NO 57 ° 1 min 0,000 mm 4,1 UV-I 701 W/m² 18,7 °C 24,5 °C 9,7 km/h (2 Bft)
26.08.2019 15:41 24,5 °C 68 % 1015,5 hPa 0,0 mm 4,0 km/h (1 Bft) O-NO 69 ° 1 min 0,000 mm 4,0 UV-I 710 W/m² 18,2 °C 24,5 °C 4,8 km/h (1 Bft)
26.08.2019 15:42 24,4 °C 69 % 1015,5 hPa 0,0 mm 5,9 km/h (2 Bft) O 82 ° 1 min 0,000 mm 4,1 UV-I 710 W/m² 18,3 °C 24,4 °C 9,7 km/h (2 Bft)
26.08.2019 15:43 24,3 °C 68 % 1015,4 hPa 0,0 mm 6,6 km/h (2 Bft) NO 49 ° 1 min 0,000 mm 4,0 UV-I 726 W/m² 18,0 °C 24,3 °C 11,3 km/h (2 Bft)
26.08.2019 15:44 24,2 °C 69 % 1015,4 hPa 0,0 mm 2,1 km/h (1 Bft) NO 49 ° 1 min 0,000 mm 3,8 UV-I 740 W/m² 18,1 °C 24,2 °C 6,4 km/h (2 Bft)
26.08.2019 15:45 24,3 °C 71 % 1015,5 hPa 0,0 mm 0,0 km/h (0 Bft) NO 49 ° 1 min 0,000 mm 2,5 UV-I 740 W/m² 18,7 °C 24,3 °C 0,0 km/h (0 Bft)
26.08.2019 15:46 24,2 °C 70 % 1015,4 hPa 0,0 mm 2,2 km/h (1 Bft) NO 42 ° 0 min 0,000 mm 2,3 UV-I 230 W/m² 18,4 °C 24,2 °C 4,8 km/h (1 Bft)
26.08.2019 15:47 24,1 °C 71 % 1015,4 hPa 0,0 mm 3,0 km/h (1 Bft) O 82 ° 0 min 0,000 mm 2,3 UV-I 297 W/m² 18,5 °C 24,1 °C 6,4 km/h (2 Bft)
26.08.2019 15:48 24,0 °C 71 % 1015,4 hPa 0,0 mm 5,9 km/h (2 Bft) O 80 ° 0 min 0,000 mm 2,4 UV-I 243 W/m² 18,4 °C 24,0 °C 9,7 km/h (2 Bft)
26.08.2019 15:49 23,9 °C 71 % 1015,4 hPa 0,0 mm 4,3 km/h (1 Bft) O-NO 74 ° 0 min 0,000 mm 3,5 UV-I 243 W/m² 18,3 °C 23,9 °C 8,0 km/h (2 Bft)
26.08.2019 15:50 23,8 °C 70 % 1015,4 hPa 0,0 mm 3,3 km/h (1 Bft) O-NO 74 ° 1 min 0,000 mm 3,5 UV-I 689 W/m² 18,0 °C 23,8 °C 4,8 km/h (1 Bft)
26.08.2019 15:51 23,8 °C 69 % 1015,4 hPa 0,0 mm 0,1 km/h (0 Bft) O 84 ° 1 min 0,000 mm 3,3 UV-I 649 W/m² 17,8 °C 23,8 °C 1,6 km/h (1 Bft)
26.08.2019 15:52 23,8 °C 70 % 1015,4 hPa 0,0 mm 1,1 km/h (1 Bft) O-NO 78 ° 1 min 0,000 mm 3,4 UV-I 642 W/m² 18,0 °C 23,8 °C 3,2 km/h (1 Bft)
26.08.2019 15:53 23,8 °C 72 % 1015,4 hPa 0,0 mm 0,9 km/h (0 Bft) O-NO 78 ° 1 min 0,000 mm 3,6 UV-I 680 W/m² 18,4 °C 23,8 °C 3,2 km/h (1 Bft)
26.08.2019 15:54 23,8 °C 73 % 1015,3 hPa 0,0 mm 1,4 km/h (1 Bft) O 86 ° 1 min 0,000 mm 3,4 UV-I 686 W/m² 18,7 °C 23,8 °C 4,8 km/h (1 Bft)
26.08.2019 15:55 23,8 °C 74 % 1015,3 hPa 0,0 mm 1,7 km/h (1 Bft) O 92 ° 1 min 0,000 mm 3,4 UV-I 668 W/m² 18,9 °C 23,8 °C 4,8 km/h (1 Bft)
26.08.2019 15:56 23,8 °C 70 % 1015,3 hPa 0,0 mm 0,3 km/h (0 Bft) O 92 ° 1 min 0,000 mm 3,4 UV-I 656 W/m² 18,0 °C 23,8 °C 3,2 km/h (1 Bft)
26.08.2019 15:57 23,8 °C 71 % 1015,3 hPa 0,0 mm 2,5 km/h (1 Bft) O-SO 108 ° 1 min 0,000 mm 3,2 UV-I 615 W/m² 18,2 °C 23,8 °C 4,8 km/h (1 Bft)
26.08.2019 15:58 23,8 °C 70 % 1015,3 hPa 0,0 mm 2,0 km/h (1 Bft) N-NO 28 ° 0 min 0,000 mm 2,9 UV-I 578 W/m² 18,0 °C 23,8 °C 6,4 km/h (2 Bft)
26.08.2019 15:59 23,8 °C 70 % 1015,3 hPa 0,0 mm 4,4 km/h (1 Bft) NO 52 ° 1 min 0,000 mm 3,2 UV-I 612 W/m² 18,0 °C 23,8 °C 8,0 km/h (2 Bft)
26.08.2019 16:00 23,9 °C 70 % 1015,3 hPa 0,0 mm 3,8 km/h (1 Bft) N-NW 334 ° 1 min 0,000 mm 3,2 UV-I 621 W/m² 18,1 °C 23,9 °C 4,8 km/h (1 Bft)
26.08.2019 16:01 24,1 °C 71 % 1015,3 hPa 0,0 mm 3,6 km/h (1 Bft) N 360 ° 1 min 0,431 mm 3,3 UV-I 642 W/m² 18,5 °C 24,1 °C 8,0 km/h (2 Bft)
26.08.2019 16:02 24,1 °C 70 % 1015,3 hPa 0,0 mm 3,6 km/h (1 Bft) NO 43 ° 1 min 0,000 mm 3,2 UV-I 624 W/m² 18,3 °C 24,1 °C 6,4 km/h (2 Bft)
26.08.2019 16:03 24,2 °C 69 % 1015,3 hPa 0,0 mm 4,3 km/h (1 Bft) NO 40 ° 1 min 0,000 mm 3,1 UV-I 624 W/m² 18,1 °C 24,2 °C 8,0 km/h (2 Bft)
26.08.2019 16:04 24,2 °C 70 % 1015,3 hPa 0,0 mm 6,4 km/h (2 Bft) N 360 ° 1 min 0,000 mm 2,4 UV-I 624 W/m² 18,4 °C 24,2 °C 11,3 km/h (2 Bft)
26.08.2019 16:05 24,1 °C 70 % 1015,3 hPa 0,0 mm 4,3 km/h (1 Bft) N-NO 23 ° 0 min 0,000 mm 2,3 UV-I 142 W/m² 18,3 °C 24,1 °C 6,4 km/h (2 Bft)
26.08.2019 16:06 24,1 °C 71 % 1015,3 hPa 0,0 mm 4,8 km/h (1 Bft) NO 34 ° 0 min 0,000 mm 2,5 UV-I 172 W/m² 18,5 °C 24,1 °C 6,4 km/h (2 Bft)
26.08.2019 16:07 23,9 °C 71 % 1015,3 hPa 0,0 mm 4,9 km/h (1 Bft) N 360 ° 0 min 0,000 mm 2,6 UV-I 172 W/m² 18,3 °C 23,9 °C 8,0 km/h (2 Bft)
26.08.2019 16:08 23,9 °C 72 % 1015,3 hPa 0,0 mm 5,6 km/h (1 Bft) N 5 ° 0 min 0,000 mm 3,1 UV-I 483 W/m² 18,5 °C 23,9 °C 8,0 km/h (2 Bft)
26.08.2019 16:09 23,8 °C 70 % 1015,3 hPa 0,0 mm 5,2 km/h (1 Bft) N 5 ° 0 min 0,000 mm 2,7 UV-I 559 W/m² 18,0 °C 23,8 °C 9,7 km/h (2 Bft)
26.08.2019 16:10 23,8 °C 70 % 1015,3 hPa 0,0 mm 2,6 km/h (1 Bft) N-NO 15 ° 0 min 0,000 mm 2,2 UV-I 559 W/m² 18,0 °C 23,8 °C 6,4 km/h (2 Bft)
26.08.2019 16:11 23,7 °C 72 % 1015,3 hPa 0,0 mm 2,3 km/h (1 Bft) N-NO 15 ° 0 min 0,000 mm 2,1 UV-I 116 W/m² 18,3 °C 23,7 °C 4,8 km/h (1 Bft)
26.08.2019 16:12 23,7 °C 71 % 1015,3 hPa 0,0 mm 4,2 km/h (1 Bft) N-NO 16 ° 0 min 0,000 mm 2,1 UV-I 114 W/m² 18,1 °C 23,7 °C 6,4 km/h (2 Bft)
26.08.2019 16:13 23,6 °C 71 % 1015,4 hPa 0,0 mm 1,3 km/h (1 Bft) N-NO 16 ° 0 min 0,000 mm 2,1 UV-I 127 W/m² 18,0 °C 23,6 °C 3,2 km/h (1 Bft)
26.08.2019 16:14 23,6 °C 72 % 1015,4 hPa 0,0 mm 1,2 km/h (1 Bft) O 84 ° 0 min 0,000 mm 3,1 UV-I 127 W/m² 18,2 °C 23,6 °C 4,8 km/h (1 Bft)
26.08.2019 16:15 23,6 °C 72 % 1015,3 hPa 0,0 mm 0,8 km/h (0 Bft) O 83 ° 0 min 0,000 mm 3,1 UV-I 587 W/m² 18,2 °C 23,6 °C 4,8 km/h (1 Bft)
26.08.2019 16:16 23,6 °C 74 % 1015,4 hPa 0,0 mm 5,6 km/h (1 Bft) O 93 ° 0 min 0,000 mm 3,1 UV-I 578 W/m² 18,7 °C 23,6 °C 6,4 km/h (2 Bft)
26.08.2019 16:17 23,6 °C 72 % 1015,4 hPa 0,0 mm 4,0 km/h (1 Bft) NO 55 ° 0 min 0,000 mm 3,1 UV-I 564 W/m² 18,2 °C 23,6 °C 6,4 km/h (2 Bft)
26.08.2019 16:18 23,6 °C 70 % 1015,3 hPa 0,0 mm 2,5 km/h (1 Bft) O-NO 65 ° 0 min 0,000 mm 2,8 UV-I 200 W/m² 17,8 °C 23,6 °C 4,8 km/h (1 Bft)
26.08.2019 16:19 23,6 °C 72 % 1015,3 hPa 0,0 mm 3,4 km/h (1 Bft) O-NO 63 ° 0 min 0,000 mm 2,6 UV-I 197 W/m² 18,2 °C 23,6 °C 4,8 km/h (1 Bft)
26.08.2019 16:20 23,6 °C 70 % 1015,3 hPa 0,0 mm 3,7 km/h (1 Bft) O-NO 63 ° 0 min 0,000 mm 2,2 UV-I 148 W/m² 17,8 °C 23,6 °C 4,8 km/h (1 Bft)
26.08.2019 16:21 23,6 °C 70 % 1015,3 hPa 0,0 mm 3,1 km/h (1 Bft) NO 55 ° 0 min 0,000 mm 2,3 UV-I 172 W/m² 17,8 °C 23,6 °C 4,8 km/h (1 Bft)
26.08.2019 16:22 23,6 °C 70 % 1015,3 hPa 0,0 mm 2,5 km/h (1 Bft) N-NW 332 ° 0 min 0,000 mm 2,3 UV-I 176 W/m² 17,8 °C 23,6 °C 4,8 km/h (1 Bft)
26.08.2019 16:23 23,7 °C 72 % 1015,3 hPa 0,0 mm 2,9 km/h (1 Bft) N-NW 336 ° 0 min 0,000 mm 2,2 UV-I 144 W/m² 18,3 °C 23,7 °C 4,8 km/h (1 Bft)
26.08.2019 16:24 23,7 °C 70 % 1015,3 hPa 0,0 mm 2,9 km/h (1 Bft) N-NW 336 ° 0 min 0,000 mm 2,1 UV-I 134 W/m² 17,9 °C 23,7 °C 4,8 km/h (1 Bft)
26.08.2019 16:25 23,7 °C 70 % 1015,3 hPa 0,0 mm 0,1 km/h (0 Bft) N-NW 336 ° 0 min 0,000 mm 2,1 UV-I 132 W/m² 17,9 °C 23,7 °C 1,6 km/h (1 Bft)
26.08.2019 16:26 23,7 °C 70 % 1015,3 hPa 0,0 mm 0,0 km/h (0 Bft) N-NW 336 ° 0 min 0,000 mm 2,1 UV-I 130 W/m² 17,9 °C 23,7 °C 0,0 km/h (0 Bft)
26.08.2019 16:27 23,7 °C 72 % 1015,3 hPa 0,0 mm 0,0 km/h (0 Bft) N-NW 336 ° 0 min 0,000 mm 2,1 UV-I 130 W/m² 18,3 °C 23,7 °C 0,0 km/h (0 Bft)
26.08.2019 16:28 23,7 °C 74 % 1015,3 hPa 0,0 mm 0,5 km/h (0 Bft) O 84 ° 0 min 0,000 mm 2,1 UV-I 144 W/m² 18,8 °C 23,7 °C 1,6 km/h (1 Bft)
26.08.2019 16:29 23,7 °C 70 % 1015,3 hPa 0,0 mm 0,0 km/h (0 Bft) O 84 ° 0 min 0,000 mm 2,0 UV-I 174 W/m² 17,9 °C 23,7 °C 0,0 km/h (0 Bft)
26.08.2019 16:30 23,7 °C 71 % 1015,3 hPa 0,0 mm 3,6 km/h (1 Bft) O 81 ° 0 min 0,000 mm 2,0 UV-I 139 W/m² 18,1 °C 23,7 °C 6,4 km/h (2 Bft)
26.08.2019 16:31 23,6 °C 76 % 1015,3 hPa 0,0 mm 3,2 km/h (1 Bft) O 81 ° 0 min 0,000 mm 2,1 UV-I 127 W/m² 19,1 °C 23,6 °C 4,8 km/h (1 Bft)
26.08.2019 16:32 23,6 °C 70 % 1015,3 hPa 0,0 mm 1,6 km/h (1 Bft) O 81 ° 0 min 0,000 mm 2,1 UV-I 114 W/m² 17,8 °C 23,6 °C 3,2 km/h (1 Bft)
26.08.2019 16:33 23,6 °C 72 % 1015,3 hPa 0,0 mm 0,5 km/h (0 Bft) O 81 ° 0 min 0,000 mm 2,0 UV-I 114 W/m² 18,2 °C 23,6 °C 1,6 km/h (1 Bft)
26.08.2019 16:34 23,6 °C 74 % 1015,3 hPa 0,0 mm 0,7 km/h (0 Bft) O 81 ° 0 min 0,000 mm 2,0 UV-I 104 W/m² 18,7 °C 23,6 °C 3,2 km/h (1 Bft)
26.08.2019 16:35 23,6 °C 71 % 1015,3 hPa 0,0 mm 0,3 km/h (0 Bft) O 81 ° 0 min 0,000 mm 1,9 UV-I 105 W/m² 18,0 °C 23,6 °C 3,2 km/h (1 Bft)
26.08.2019 16:36 23,6 °C 70 % 1015,2 hPa 0,0 mm 1,5 km/h (1 Bft) O-NO 77 ° 0 min 0,000 mm 1,9 UV-I 116 W/m² 17,8 °C 23,6 °C 3,2 km/h (1 Bft)
26.08.2019 16:37 23,7 °C 69 % 1015,2 hPa 0,0 mm 0,4 km/h (0 Bft) O-NO 77 ° 0 min 0,000 mm 1,9 UV-I 116 W/m² 17,7 °C 23,7 °C 1,6 km/h (1 Bft)
26.08.2019 16:38 23,7 °C 69 % 1015,3 hPa 0,0 mm 0,8 km/h (0 Bft) O-NO 77 ° 0 min 0,000 mm 1,9 UV-I 107 W/m² 17,7 °C 23,7 °C 3,2 km/h (1 Bft)
26.08.2019 16:39 23,7 °C 69 % 1015,3 hPa 0,0 mm 0,0 km/h (0 Bft) O-NO 77 ° 0 min 0,000 mm 1,9 UV-I 113 W/m² 17,7 °C 23,7 °C 0,0 km/h (0 Bft)
26.08.2019 16:40 23,7 °C 68 % 1015,2 hPa 0,0 mm 0,0 km/h (0 Bft) O-NO 77 ° 0 min 0,000 mm 1,9 UV-I 113 W/m² 17,4 °C 23,7 °C 0,0 km/h (0 Bft)
26.08.2019 16:41 23,7 °C 68 % 1015,3 hPa 0,0 mm 0,0 km/h (0 Bft) O-NO 77 ° 0 min 0,000 mm 1,9 UV-I 114 W/m² 17,4 °C 23,7 °C 0,0 km/h (0 Bft)
26.08.2019 16:42 23,7 °C 69 % 1015,3 hPa 0,0 mm 0,0 km/h (0 Bft) O 80 ° 0 min 0,000 mm 1,9 UV-I 114 W/m² 17,7 °C 23,7 °C 0,0 km/h (0 Bft)
26.08.2019 16:43 23,7 °C 68 % 1015,3 hPa 0,0 mm 0,0 km/h (0 Bft) O 80 ° 0 min 0,000 mm 1,9 UV-I 116 W/m² 17,4 °C 23,7 °C 0,0 km/h (0 Bft)
26.08.2019 16:44 23,6 °C 69 % 1015,3 hPa 0,0 mm 0,0 km/h (0 Bft) O 80 ° 0 min 0,000 mm 1,9 UV-I 118 W/m² 17,6 °C 23,6 °C 0,0 km/h (0 Bft)
26.08.2019 16:45 23,6 °C 69 % 1015,3 hPa 0,0 mm 0,0 km/h (0 Bft) O 80 ° 0 min 0,000 mm 1,9 UV-I 127 W/m² 17,6 °C 23,6 °C 0,0 km/h (0 Bft)
26.08.2019 16:46 23,6 °C 70 % 1015,3 hPa 0,0 mm 0,0 km/h (0 Bft) O 80 ° 0 min 0,000 mm 1,9 UV-I 137 W/m² 17,8 °C 23,6 °C 0,0 km/h (0 Bft)
26.08.2019 16:47 23,6 °C 69 % 1015,3 hPa 0,0 mm 0,0 km/h (0 Bft) O 80 ° 0 min 0,000 mm 1,9 UV-I 135 W/m² 17,6 °C 23,6 °C 0,0 km/h (0 Bft)
26.08.2019 16:48 23,7 °C 69 % 1015,3 hPa 0,0 mm 0,0 km/h (0 Bft) O 80 ° 0 min 0,000 mm 1,9 UV-I 132 W/m² 17,7 °C 23,7 °C 0,0 km/h (0 Bft)
26.08.2019 16:49 23,7 °C 68 % 1015,3 hPa 0,0 mm 0,0 km/h (0 Bft) O 80 ° 0 min 0,000 mm 1,9 UV-I 149 W/m² 17,4 °C 23,7 °C 0,0 km/h (0 Bft)
26.08.2019 16:50 23,7 °C 68 % 1015,3 hPa 0,0 mm 0,0 km/h (0 Bft) O 80 ° 0 min 0,000 mm 1,9 UV-I 153 W/m² 17,4 °C 23,7 °C 0,0 km/h (0 Bft)
26.08.2019 16:51 23,7 °C 69 % 1015,3 hPa 0,0 mm 0,0 km/h (0 Bft) O 80 ° 0 min 0,000 mm 1,8 UV-I 137 W/m² 17,7 °C 23,7 °C 0,0 km/h (0 Bft)
26.08.2019 16:52 23,7 °C 69 % 1015,3 hPa 0,0 mm 0,0 km/h (0 Bft) O 80 ° 0 min 0,000 mm 1,8 UV-I 134 W/m² 17,7 °C 23,7 °C 0,0 km/h (0 Bft)
26.08.2019 16:53 23,7 °C 70 % 1015,3 hPa 0,0 mm 0,0 km/h (0 Bft) O 80 ° 0 min 0,000 mm 1,8 UV-I 139 W/m² 17,9 °C 23,7 °C 0,0 km/h (0 Bft)
26.08.2019 16:54 23,8 °C 70 % 1015,3 hPa 0,0 mm 0,0 km/h (0 Bft) O 80 ° 0 min 0,000 mm 1,8 UV-I 139 W/m² 18,0 °C 23,8 °C 0,0 km/h (0 Bft)
26.08.2019 16:55 23,8 °C 70 % 1015,3 hPa 0,0 mm 0,0 km/h (0 Bft) O 80 ° 0 min 0,000 mm 1,8 UV-I 137 W/m² 18,0 °C 23,8 °C 0,0 km/h (0 Bft)
26.08.2019 16:56 23,8 °C 70 % 1015,3 hPa 0,0 mm 0,0 km/h (0 Bft) O 80 ° 0 min 0,000 mm 1,8 UV-I 134 W/m² 18,0 °C 23,8 °C 0,0 km/h (0 Bft)
26.08.2019 16:57 23,8 °C 73 % 1015,4 hPa 0,0 mm 0,0 km/h (0 Bft) O 80 ° 0 min 0,000 mm 1,7 UV-I 135 W/m² 18,7 °C 23,8 °C 0,0 km/h (0 Bft)
26.08.2019 16:58 23,8 °C 72 % 1015,4 hPa 0,0 mm 0,0 km/h (0 Bft) O 80 ° 0 min 0,000 mm 1,7 UV-I 142 W/m² 18,4 °C 23,8 °C 0,0 km/h (0 Bft)
26.08.2019 16:59 23,8 °C 75 % 1015,4 hPa 0,0 mm 0,0 km/h (0 Bft) O 80 ° 0 min 0,000 mm 1,7 UV-I 151 W/m² 19,1 °C 23,8 °C 0,0 km/h (0 Bft)
26.08.2019 17:00 23,8 °C 73 % 1015,4 hPa 0,0 mm 0,0 km/h (0 Bft) O 80 ° 0 min 0,000 mm 1,7 UV-I 149 W/m² 18,7 °C 23,8 °C 0,0 km/h (0 Bft)
26.08.2019 17:01 23,8 °C 72 % 1015,4 hPa 0,0 mm 0,0 km/h (0 Bft) O 80 ° 0 min 0,127 mm 1,7 UV-I 142 W/m² 18,4 °C 23,8 °C 0,0 km/h (0 Bft)
26.08.2019 17:02 23,8 °C 72 % 1015,4 hPa 0,0 mm 0,5 km/h (0 Bft) N 355 ° 0 min 0,000 mm 1,7 UV-I 149 W/m² 18,4 °C 23,8 °C 3,2 km/h (1 Bft)
26.08.2019 17:03 23,8 °C 71 % 1015,4 hPa 0,0 mm 0,6 km/h (0 Bft) N 355 ° 0 min 0,000 mm 1,7 UV-I 142 W/m² 18,2 °C 23,8 °C 1,6 km/h (1 Bft)
26.08.2019 17:04 23,8 °C 70 % 1015,3 hPa 0,0 mm 2,0 km/h (1 Bft) N 355 ° 0 min 0,000 mm 1,6 UV-I 137 W/m² 18,0 °C 23,8 °C 4,8 km/h (1 Bft)
26.08.2019 17:05 23,8 °C 71 % 1015,4 hPa 0,0 mm 3,4 km/h (1 Bft) N-NW 332 ° 0 min 0,000 mm 1,6 UV-I 128 W/m² 18,2 °C 23,8 °C 6,4 km/h (2 Bft)
26.08.2019 17:06 23,8 °C 71 % 1015,4 hPa 0,0 mm 4,2 km/h (1 Bft) N-NW 331 ° 0 min 0,000 mm 1,5 UV-I 123 W/m² 18,2 °C 23,8 °C 6,4 km/h (2 Bft)
26.08.2019 17:07 23,8 °C 71 % 1015,4 hPa 0,0 mm 1,9 km/h (1 Bft) N-NW 331 ° 0 min 0,000 mm 1,5 UV-I 135 W/m² 18,2 °C 23,8 °C 4,8 km/h (1 Bft)
26.08.2019 17:08 23,7 °C 73 % 1015,4 hPa 0,0 mm 0,0 km/h (0 Bft) N-NW 331 ° 0 min 0,000 mm 1,5 UV-I 183 W/m² 18,6 °C 23,7 °C 0,0 km/h (0 Bft)
26.08.2019 17:09 23,7 °C 75 % 1015,4 hPa 0,0 mm 0,0 km/h (0 Bft) N-NW 331 ° 0 min 0,000 mm 1,5 UV-I 281 W/m² 19,0 °C 23,7 °C 0,0 km/h (0 Bft)
26.08.2019 17:10 23,6 °C 74 % 1015,4 hPa 0,0 mm 0,0 km/h (0 Bft) N-NW 331 ° 0 min 0,000 mm 1,5 UV-I 165 W/m² 18,7 °C 23,6 °C 0,0 km/h (0 Bft)
26.08.2019 17:11 23,4 °C 76 % 1015,4 hPa 0,0 mm 0,0 km/h (0 Bft) N-NW 331 ° 0 min 0,000 mm 1,5 UV-I 158 W/m² 18,9 °C 23,4 °C 0,0 km/h (0 Bft)
26.08.2019 17:12 23,3 °C 75 % 1015,4 hPa 0,0 mm 0,0 km/h (0 Bft) N-NW 331 ° 0 min 0,000 mm 1,5 UV-I 127 W/m² 18,6 °C 23,3 °C 0,0 km/h (0 Bft)
26.08.2019 17:13 23,2 °C 75 % 1015,4 hPa 0,0 mm 0,4 km/h (0 Bft) N 360 ° 0 min 0,000 mm 1,4 UV-I 113 W/m² 18,5 °C 23,2 °C 3,2 km/h (1 Bft)
26.08.2019 17:14 23,2 °C 73 % 1015,3 hPa 0,0 mm 3,6 km/h (1 Bft) N 5 ° 0 min 0,000 mm 1,4 UV-I 114 W/m² 18,1 °C 23,2 °C 4,8 km/h (1 Bft)
26.08.2019 17:15 23,2 °C 73 % 1015,4 hPa 0,0 mm 3,6 km/h (1 Bft) N 11 ° 0 min 0,000 mm 1,4 UV-I 114 W/m² 18,1 °C 23,2 °C 4,8 km/h (1 Bft)
26.08.2019 17:16 23,4 °C 73 % 1015,3 hPa 0,0 mm 3,8 km/h (1 Bft) N 11 ° 0 min 0,000 mm 1,5 UV-I 113 W/m² 18,3 °C 23,4 °C 4,8 km/h (1 Bft)
26.08.2019 17:17 23,5 °C 72 % 1015,3 hPa 0,0 mm 2,1 km/h (1 Bft) N 11 ° 0 min 0,000 mm 1,4 UV-I 116 W/m² 18,2 °C 23,5 °C 4,8 km/h (1 Bft)
26.08.2019 17:18 23,6 °C 72 % 1015,3 hPa 0,0 mm 0,8 km/h (0 Bft) N 11 ° 0 min 0,000 mm 1,5 UV-I 125 W/m² 18,2 °C 23,6 °C 1,6 km/h (1 Bft)
26.08.2019 17:19 23,7 °C 71 % 1015,3 hPa 0,0 mm 1,7 km/h (1 Bft) N 11 ° 0 min 0,000 mm 1,5 UV-I 120 W/m² 18,1 °C 23,7 °C 3,2 km/h (1 Bft)
26.08.2019 17:20 23,7 °C 70 % 1015,3 hPa 0,0 mm 2,0 km/h (1 Bft) N 11 ° 0 min 0,000 mm 1,5 UV-I 118 W/m² 17,9 °C 23,7 °C 3,2 km/h (1 Bft)
26.08.2019 17:21 23,7 °C 69 % 1015,3 hPa 0,0 mm 1,0 km/h (0 Bft) N 11 ° 0 min 0,000 mm 1,4 UV-I 91 W/m² 17,7 °C 23,7 °C 3,2 km/h (1 Bft)
26.08.2019 17:22 23,7 °C 70 % 1015,3 hPa 0,0 mm 0,0 km/h (0 Bft) N 11 ° 0 min 0,000 mm 1,4 UV-I 91 W/m² 17,9 °C 23,7 °C 0,0 km/h (0 Bft)
26.08.2019 17:23 23,7 °C 69 % 1015,4 hPa 0,0 mm 0,0 km/h (0 Bft) N 11 ° 0 min 0,000 mm 1,4 UV-I 91 W/m² 17,7 °C 23,7 °C 0,0 km/h (0 Bft)
26.08.2019 17:24 23,7 °C 68 % 1015,3 hPa 0,0 mm 0,0 km/h (0 Bft) N 11 ° 0 min 0,000 mm 1,4 UV-I 88 W/m² 17,4 °C 23,7 °C 0,0 km/h (0 Bft)
26.08.2019 17:25 23,7 °C 69 % 1015,3 hPa 0,0 mm 0,1 km/h (0 Bft) N 11 ° 0 min 0,000 mm 1,4 UV-I 83 W/m² 17,7 °C 23,7 °C 1,6 km/h (1 Bft)
26.08.2019 17:26 23,7 °C 68 % 1015,4 hPa 0,0 mm 0,0 km/h (0 Bft) N 11 ° 0 min 0,000 mm 1,4 UV-I 81 W/m² 17,4 °C 23,7 °C 0,0 km/h (0 Bft)
26.08.2019 17:27 23,6 °C 69 % 1015,4 hPa 0,0 mm 0,3 km/h (0 Bft) N 11 ° 0 min 0,000 mm 1,3 UV-I 70 W/m² 17,6 °C 23,6 °C 1,6 km/h (1 Bft)
26.08.2019 17:28 23,6 °C 70 % 1015,3 hPa 0,0 mm 0,3 km/h (0 Bft) N 11 ° 0 min 0,000 mm 1,3 UV-I 72 W/m² 17,8 °C 23,6 °C 1,6 km/h (1 Bft)
26.08.2019 17:29 23,6 °C 71 % 1015,3 hPa 0,0 mm 0,0 km/h (0 Bft) N 11 ° 0 min 0,000 mm 1,3 UV-I 69 W/m² 18,0 °C 23,6 °C 0,0 km/h (0 Bft)
26.08.2019 17:30 23,4 °C 71 % 1015,4 hPa 0,0 mm 0,0 km/h (0 Bft) N 11 ° 0 min 0,000 mm 1,3 UV-I 67 W/m² 17,8 °C 23,4 °C 0,0 km/h (0 Bft)
26.08.2019 17:31 23,3 °C 72 % 1015,3 hPa 0,0 mm 0,0 km/h (0 Bft) N 11 ° 0 min 0,000 mm 1,3 UV-I 67 W/m² 18,0 °C 23,3 °C 0,0 km/h (0 Bft)
26.08.2019 17:32 23,3 °C 73 % 1015,3 hPa 0,0 mm 0,0 km/h (0 Bft) N 11 ° 0 min 0,000 mm 1,3 UV-I 65 W/m² 18,2 °C 23,3 °C 0,0 km/h (0 Bft)
26.08.2019 17:33 23,2 °C 71 % 1015,3 hPa 0,0 mm 0,0 km/h (0 Bft) N 11 ° 0 min 0,000 mm 1,3 UV-I 63 W/m² 17,6 °C 23,2 °C 0,0 km/h (0 Bft)
26.08.2019 17:34 23,1 °C 71 % 1015,3 hPa 0,0 mm 0,0 km/h (0 Bft) N 11 ° 0 min 0,000 mm 1,2 UV-I 62 W/m² 17,5 °C 23,1 °C 0,0 km/h (0 Bft)
26.08.2019 17:35 23,1 °C 72 % 1015,3 hPa 0,0 mm 0,0 km/h (0 Bft) N 11 ° 0 min 0,000 mm 1,2 UV-I 62 W/m² 17,8 °C 23,1 °C 0,0 km/h (0 Bft)
26.08.2019 17:36 22,9 °C 75 % 1015,3 hPa 0,0 mm 0,0 km/h (0 Bft) N 11 ° 0 min 0,000 mm 1,2 UV-I 65 W/m² 18,2 °C 22,9 °C 0,0 km/h (0 Bft)
26.08.2019 17:37 22,6 °C 75 % 1015,4 hPa 0,0 mm 0,0 km/h (0 Bft) N 11 ° 0 min 0,000 mm 1,2 UV-I 63 W/m² 17,9 °C 22,6 °C 0,0 km/h (0 Bft)
26.08.2019 17:38 22,3 °C 75 % 1015,3 hPa 0,0 mm 0,0 km/h (0 Bft) N 11 ° 0 min 0,000 mm 1,2 UV-I 63 W/m² 17,6 °C 22,3 °C 0,0 km/h (0 Bft)
26.08.2019 17:39 22,3 °C 76 % 1015,4 hPa 0,0 mm 0,0 km/h (0 Bft) N 11 ° 0 min 0,000 mm 1,2 UV-I 63 W/m² 17,9 °C 22,3 °C 0,0 km/h (0 Bft)
26.08.2019 17:40 22,2 °C 77 % 1015,4 hPa 0,0 mm 0,0 km/h (0 Bft) N 11 ° 0 min 0,000 mm 1,2 UV-I 65 W/m² 18,0 °C 22,2 °C 0,0 km/h (0 Bft)
26.08.2019 17:41 22,1 °C 76 % 1015,4 hPa 0,0 mm 0,0 km/h (0 Bft) N 11 ° 0 min 0,000 mm 1,2 UV-I 69 W/m² 17,7 °C 22,1 °C 0,0 km/h (0 Bft)
26.08.2019 17:42 22,1 °C 76 % 1015,4 hPa 0,0 mm 0,0 km/h (0 Bft) N 11 ° 0 min 0,000 mm 1,2 UV-I 76 W/m² 17,7 °C 22,1 °C 0,0 km/h (0 Bft)
26.08.2019 17:43 22,2 °C 76 % 1015,4 hPa 0,0 mm 0,0 km/h (0 Bft) N 11 ° 0 min 0,000 mm 1,2 UV-I 84 W/m² 17,8 °C 22,2 °C 0,0 km/h (0 Bft)
26.08.2019 17:44 22,2 °C 78 % 1015,4 hPa 0,0 mm 0,0 km/h (0 Bft) N 11 ° 0 min 0,000 mm 1,2 UV-I 88 W/m² 18,2 °C 22,2 °C 0,0 km/h (0 Bft)
26.08.2019 17:45 22,2 °C 76 % 1015,4 hPa 0,0 mm 0,0 km/h (0 Bft) N 11 ° 0 min 0,000 mm 1,2 UV-I 90 W/m² 17,8 °C 22,2 °C 0,0 km/h (0 Bft)
26.08.2019 17:46 22,3 °C 77 % 1015,4 hPa 0,0 mm 0,0 km/h (0 Bft) N 11 ° 0 min 0,000 mm 1,2 UV-I 91 W/m² 18,1 °C 22,3 °C 0,0 km/h (0 Bft)
26.08.2019 17:47 22,4 °C 76 % 1015,4 hPa 0,0 mm 0,0 km/h (0 Bft) N 11 ° 0 min 0,000 mm 1,2 UV-I 91 W/m² 18,0 °C 22,4 °C 0,0 km/h (0 Bft)
26.08.2019 17:48 22,5 °C 75 % 1015,4 hPa 0,0 mm 0,0 km/h (0 Bft) N 11 ° 0 min 0,000 mm 1,2 UV-I 93 W/m² 17,8 °C 22,5 °C 0,0 km/h (0 Bft)
26.08.2019 17:49 22,6 °C 78 % 1015,4 hPa 0,0 mm 0,0 km/h (0 Bft) N 11 ° 0 min 0,000 mm 1,2 UV-I 90 W/m² 18,6 °C 22,6 °C 0,0 km/h (0 Bft)
26.08.2019 17:50 22,6 °C 78 % 1015,4 hPa 0,0 mm 0,0 km/h (0 Bft) N 11 ° 0 min 0,000 mm 1,2 UV-I 83 W/m² 18,6 °C 22,6 °C 0,0 km/h (0 Bft)
26.08.2019 17:51 22,6 °C 76 % 1015,4 hPa 0,0 mm 0,0 km/h (0 Bft) O-NO 76 ° 0 min 0,000 mm 1,1 UV-I 83 W/m² 18,1 °C 22,6 °C 0,0 km/h (0 Bft)
26.08.2019 17:52 22,6 °C 77 % 1015,4 hPa 0,0 mm 0,0 km/h (0 Bft) O-NO 76 ° 0 min 0,000 mm 1,1 UV-I 81 W/m² 18,4 °C 22,6 °C 0,0 km/h (0 Bft)
26.08.2019 17:53 22,6 °C 76 % 1015,4 hPa 0,0 mm 0,0 km/h (0 Bft) O-NO 76 ° 0 min 0,000 mm 1,1 UV-I 81 W/m² 18,1 °C 22,6 °C 0,0 km/h (0 Bft)
26.08.2019 17:54 22,6 °C 76 % 1015,3 hPa 0,0 mm 0,0 km/h (0 Bft) O-NO 76 ° 0 min 0,000 mm 1,1 UV-I 79 W/m² 18,1 °C 22,6 °C 0,0 km/h (0 Bft)
26.08.2019 17:55 22,6 °C 76 % 1015,4 hPa 0,0 mm 0,0 km/h (0 Bft) O-NO 76 ° 0 min 0,000 mm 1,1 UV-I 79 W/m² 18,1 °C 22,6 °C 0,0 km/h (0 Bft)
26.08.2019 17:56 22,6 °C 76 % 1015,4 hPa 0,0 mm 0,0 km/h (0 Bft) O-NO 76 ° 0 min 0,000 mm 1,1 UV-I 76 W/m² 18,1 °C 22,6 °C 0,0 km/h (0 Bft)
26.08.2019 17:57 22,5 °C 76 % 1015,4 hPa 0,0 mm 0,0 km/h (0 Bft) O-NO 76 ° 0 min 0,000 mm 1,0 UV-I 72 W/m² 18,0 °C 22,5 °C 0,0 km/h (0 Bft)
26.08.2019 17:58 22,4 °C 78 % 1015,4 hPa 0,0 mm 0,0 km/h (0 Bft) O-NO 76 ° 0 min 0,000 mm 1,0 UV-I 69 W/m² 18,4 °C 22,4 °C 0,0 km/h (0 Bft)
26.08.2019 17:59 22,4 °C 75 % 1015,4 hPa 0,0 mm 0,0 km/h (0 Bft) O-NO 76 ° 0 min 0,000 mm 1,0 UV-I 65 W/m² 17,7 °C 22,4 °C 0,0 km/h (0 Bft)
26.08.2019 18:00 22,4 °C 75 % 1015,4 hPa 0,0 mm 0,0 km/h (0 Bft) O 80 ° 0 min 0,000 mm 1,0 UV-I 62 W/m² 17,7 °C 22,4 °C 0,0 km/h (0 Bft)
26.08.2019 18:01 22,4 °C 76 % 1015,3 hPa 0,0 mm 0,0 km/h (0 Bft) O 80 ° 0 min 0,077 mm 1,0 UV-I 62 W/m² 18,0 °C 22,4 °C 0,0 km/h (0 Bft)
26.08.2019 18:02 22,3 °C 77 % 1015,4 hPa 0,0 mm 0,0 km/h (0 Bft) O 80 ° 0 min 0,000 mm 1,0 UV-I 60 W/m² 18,1 °C 22,3 °C 0,0 km/h (0 Bft)
26.08.2019 18:03 22,3 °C 77 % 1015,4 hPa 0,0 mm 0,0 km/h (0 Bft) O 80 ° 0 min 0,000 mm 1,0 UV-I 60 W/m² 18,1 °C 22,3 °C 0,0 km/h (0 Bft)
26.08.2019 18:04 22,2 °C 78 % 1015,4 hPa 0,0 mm 0,0 km/h (0 Bft) O 80 ° 0 min 0,000 mm 1,0 UV-I 60 W/m² 18,2 °C 22,2 °C 0,0 km/h (0 Bft)
26.08.2019 18:05 22,2 °C 77 % 1015,4 hPa 0,0 mm 0,0 km/h (0 Bft) O 80 ° 0 min 0,000 mm 1,0 UV-I 62 W/m² 18,0 °C 22,2 °C 0,0 km/h (0 Bft)
26.08.2019 18:06 22,1 °C 78 % 1015,3 hPa 0,0 mm 0,0 km/h (0 Bft) O 80 ° 0 min 0,000 mm 1,0 UV-I 63 W/m² 18,1 °C 22,1 °C 0,0 km/h (0 Bft)
26.08.2019 18:07 22,1 °C 80 % 1015,3 hPa 0,0 mm 0,0 km/h (0 Bft) O 80 ° 0 min 0,000 mm 1,0 UV-I 63 W/m² 18,5 °C 22,1 °C 0,0 km/h (0 Bft)
26.08.2019 18:08 22,0 °C 79 % 1015,3 hPa 0,0 mm 0,0 km/h (0 Bft) O 80 ° 0 min 0,000 mm 0,9 UV-I 63 W/m² 18,2 °C 22,0 °C 0,0 km/h (0 Bft)
26.08.2019 18:09 21,9 °C 80 % 1015,3 hPa 0,0 mm 0,0 km/h (0 Bft) O 80 ° 0 min 0,000 mm 0,9 UV-I 62 W/m² 18,3 °C 21,9 °C 0,0 km/h (0 Bft)
26.08.2019 18:10 21,8 °C 79 % 1015,3 hPa 0,0 mm 0,0 km/h (0 Bft) O 80 ° 0 min 0,000 mm 0,9 UV-I 62 W/m² 18,0 °C 21,8 °C 0,0 km/h (0 Bft)
26.08.2019 18:11 21,8 °C 81 % 1015,3 hPa 0,0 mm 0,0 km/h (0 Bft) O 80 ° 0 min 0,000 mm 0,9 UV-I 60 W/m² 18,4 °C 21,8 °C 0,0 km/h (0 Bft)
26.08.2019 18:12 21,7 °C 82 % 1015,3 hPa 0,0 mm 0,0 km/h (0 Bft) O 80 ° 0 min 0,000 mm 0,9 UV-I 62 W/m² 18,5 °C 21,7 °C 0,0 km/h (0 Bft)
26.08.2019 18:13 21,6 °C 81 % 1015,3 hPa 0,0 mm 0,0 km/h (0 Bft) O 80 ° 0 min 0,000 mm 0,9 UV-I 60 W/m² 18,2 °C 21,6 °C 0,0 km/h (0 Bft)
26.08.2019 18:14 21,5 °C 82 % 1015,3 hPa 0,0 mm 0,0 km/h (0 Bft) O 80 ° 0 min 0,000 mm 0,9 UV-I 62 W/m² 18,3 °C 21,5 °C 0,0 km/h (0 Bft)
26.08.2019 18:15 21,4 °C 82 % 1015,3 hPa 0,0 mm 2,5 km/h (1 Bft) O 88 ° 0 min 0,000 mm 0,9 UV-I 56 W/m² 18,2 °C 21,4 °C 4,8 km/h (1 Bft)
26.08.2019 18:16 21,4 °C 82 % 1015,3 hPa 0,0 mm 0,5 km/h (0 Bft) O 88 ° 0 min 0,000 mm 0,0 UV-I 53 W/m² 18,2 °C 21,4 °C 3,2 km/h (1 Bft)
26.08.2019 18:17 21,4 °C 83 % 1015,3 hPa 0,0 mm 0,0 km/h (0 Bft) O 88 ° 0 min 0,000 mm 0,0 UV-I 51 W/m² 18,4 °C 21,4 °C 0,0 km/h (0 Bft)
26.08.2019 18:18 21,4 °C 82 % 1015,3 hPa 0,0 mm 0,0 km/h (0 Bft) O 88 ° 0 min 0,000 mm 0,0 UV-I 51 W/m² 18,2 °C 21,4 °C 0,0 km/h (0 Bft)
26.08.2019 18:19 21,4 °C 83 % 1015,3 hPa 0,0 mm 0,0 km/h (0 Bft) O 88 ° 0 min 0,000 mm 0,0 UV-I 53 W/m² 18,4 °C 21,4 °C 0,0 km/h (0 Bft)
26.08.2019 18:20 21,4 °C 82 % 1015,3 hPa 0,0 mm 0,0 km/h (0 Bft) O 88 ° 0 min 0,000 mm 0,0 UV-I 53 W/m² 18,2 °C 21,4 °C 0,0 km/h (0 Bft)
26.08.2019 18:21 21,4 °C 83 % 1015,3 hPa 0,0 mm 0,0 km/h (0 Bft) O 88 ° 0 min 0,000 mm 0,0 UV-I 53 W/m² 18,4 °C 21,4 °C 0,0 km/h (0 Bft)
26.08.2019 18:22 21,4 °C 82 % 1015,3 hPa 0,0 mm 0,0 km/h (0 Bft) O 88 ° 0 min 0,000 mm 0,0 UV-I 51 W/m² 18,2 °C 21,4 °C 0,0 km/h (0 Bft)
26.08.2019 18:23 21,4 °C 82 % 1015,3 hPa 0,0 mm 0,4 km/h (0 Bft) O 88 ° 0 min 0,000 mm 0,8 UV-I 56 W/m² 18,2 °C 21,4 °C 1,6 km/h (1 Bft)
26.08.2019 18:24 21,5 °C 81 % 1015,3 hPa 0,0 mm 0,0 km/h (0 Bft) O 88 ° 0 min 0,000 mm 0,8 UV-I 58 W/m² 18,1 °C 21,5 °C 0,0 km/h (0 Bft)
26.08.2019 18:25 21,6 °C 83 % 1015,3 hPa 0,0 mm 0,0 km/h (0 Bft) O 88 ° 0 min 0,000 mm 0,8 UV-I 72 W/m² 18,6 °C 21,6 °C 0,0 km/h (0 Bft)
26.08.2019 18:26 21,6 °C 83 % 1015,3 hPa 0,0 mm 0,0 km/h (0 Bft) O 88 ° 0 min 0,000 mm 0,8 UV-I 79 W/m² 18,6 °C 21,6 °C 0,0 km/h (0 Bft)
26.08.2019 18:27 21,7 °C 82 % 1015,3 hPa 0,0 mm 0,0 km/h (0 Bft) O 88 ° 0 min 0,000 mm 0,8 UV-I 70 W/m² 18,5 °C 21,7 °C 0,0 km/h (0 Bft)
26.08.2019 18:28 21,7 °C 82 % 1015,3 hPa 0,0 mm 0,0 km/h (0 Bft) O 88 ° 0 min 0,000 mm 0,7 UV-I 60 W/m² 18,5 °C 21,7 °C 0,0 km/h (0 Bft)
26.08.2019 18:29 21,7 °C 81 % 1015,3 hPa 0,0 mm 0,0 km/h (0 Bft) O 88 ° 0 min 0,000 mm 0,0 UV-I 54 W/m² 18,3 °C 21,7 °C 0,0 km/h (0 Bft)
26.08.2019 18:30 21,7 °C 81 % 1015,3 hPa 0,0 mm 0,0 km/h (0 Bft) O 88 ° 0 min 0,000 mm 0,0 UV-I 47 W/m² 18,3 °C 21,7 °C 0,0 km/h (0 Bft)
26.08.2019 18:31 21,7 °C 81 % 1015,3 hPa 0,0 mm 0,0 km/h (0 Bft) O 88 ° 0 min 0,000 mm 0,0 UV-I 46 W/m² 18,3 °C 21,7 °C 0,0 km/h (0 Bft)
26.08.2019 18:32 21,7 °C 81 % 1015,3 hPa 0,0 mm 0,0 km/h (0 Bft) O 88 ° 0 min 0,000 mm 0,0 UV-I 46 W/m² 18,3 °C 21,7 °C 0,0 km/h (0 Bft)
26.08.2019 18:33 21,8 °C 80 % 1015,3 hPa 0,0 mm 0,0 km/h (0 Bft) O 88 ° 0 min 0,000 mm 0,0 UV-I 44 W/m² 18,2 °C 21,8 °C 0,0 km/h (0 Bft)
26.08.2019 18:34 21,8 °C 81 % 1015,4 hPa 0,0 mm 0,0 km/h (0 Bft) O 88 ° 0 min 0,000 mm 0,0 UV-I 44 W/m² 18,4 °C 21,8 °C 0,0 km/h (0 Bft)
26.08.2019 18:35 21,7 °C 81 % 1015,4 hPa 0,0 mm 0,0 km/h (0 Bft) O 88 ° 0 min 0,000 mm 0,0 UV-I 44 W/m² 18,3 °C 21,7 °C 0,0 km/h (0 Bft)
26.08.2019 18:36 21,7 °C 82 % 1015,3 hPa 0,0 mm 0,0 km/h (0 Bft) O 88 ° 0 min 0,000 mm 0,0 UV-I 44 W/m² 18,5 °C 21,7 °C 0,0 km/h (0 Bft)
26.08.2019 18:37 21,7 °C 83 % 1015,4 hPa 0,0 mm 0,0 km/h (0 Bft) O 88 ° 0 min 0,000 mm 0,0 UV-I 42 W/m² 18,7 °C 21,7 °C 0,0 km/h (0 Bft)
26.08.2019 18:38 21,6 °C 84 % 1015,3 hPa 0,0 mm 0,0 km/h (0 Bft) O 88 ° 0 min 0,000 mm 0,0 UV-I 42 W/m² 18,8 °C 21,6 °C 0,0 km/h (0 Bft)
26.08.2019 18:39 21,4 °C 84 % 1015,4 hPa 0,0 mm 0,0 km/h (0 Bft) O 88 ° 0 min 0,000 mm 0,0 UV-I 42 W/m² 18,6 °C 21,4 °C 0,0 km/h (0 Bft)
26.08.2019 18:40 21,3 °C 84 % 1015,4 hPa 0,0 mm 0,0 km/h (0 Bft) O 88 ° 0 min 0,000 mm 0,0 UV-I 42 W/m² 18,5 °C 21,3 °C 0,0 km/h (0 Bft)
26.08.2019 18:41 21,2 °C 85 % 1015,4 hPa 0,0 mm 0,0 km/h (0 Bft) O 88 ° 0 min 0,000 mm 0,0 UV-I 42 W/m² 18,6 °C 21,2 °C 0,0 km/h (0 Bft)
26.08.2019 18:42 21,1 °C 86 % 1015,3 hPa 0,0 mm 0,0 km/h (0 Bft) O 88 ° 0 min 0,000 mm 0,0 UV-I 42 W/m² 18,7 °C 21,1 °C 0,0 km/h (0 Bft)
26.08.2019 18:43 21,0 °C 86 % 1015,3 hPa 0,0 mm 0,0 km/h (0 Bft) O 88 ° 0 min 0,000 mm 0,0 UV-I 39 W/m² 18,6 °C 21,0 °C 0,0 km/h (0 Bft)
26.08.2019 18:44 20,9 °C 86 % 1015,3 hPa 0,0 mm 0,0 km/h (0 Bft) O 88 ° 0 min 0,000 mm 0,0 UV-I 37 W/m² 18,5 °C 20,9 °C 0,0 km/h (0 Bft)
26.08.2019 18:45 20,8 °C 86 % 1015,3 hPa 0,0 mm 0,0 km/h (0 Bft) O 88 ° 0 min 0,000 mm 0,0 UV-I 37 W/m² 18,4 °C 20,8 °C 0,0 km/h (0 Bft)
26.08.2019 18:46 20,8 °C 86 % 1015,3 hPa 0,0 mm 0,0 km/h (0 Bft) O 88 ° 0 min 0,000 mm 0,0 UV-I 37 W/m² 18,4 °C 20,8 °C 0,0 km/h (0 Bft)
26.08.2019 18:47 20,8 °C 85 % 1015,3 hPa 0,0 mm 0,0 km/h (0 Bft) O 88 ° 0 min 0,000 mm 0,0 UV-I 37 W/m² 18,2 °C 20,8 °C 0,0 km/h (0 Bft)
26.08.2019 18:48 20,8 °C 85 % 1015,4 hPa 0,0 mm 0,0 km/h (0 Bft) O 88 ° 0 min 0,000 mm 0,0 UV-I 37 W/m² 18,2 °C 20,8 °C 0,0 km/h (0 Bft)
26.08.2019 18:49 20,8 °C 85 % 1015,3 hPa 0,0 mm 0,0 km/h (0 Bft) O 88 ° 0 min 0,000 mm 0,0 UV-I 53 W/m² 18,2 °C 20,8 °C 0,0 km/h (0 Bft)
26.08.2019 18:50 20,8 °C 85 % 1015,4 hPa 0,0 mm 0,0 km/h (0 Bft) O 88 ° 0 min 0,000 mm 0,0 UV-I 51 W/m² 18,2 °C 20,8 °C 0,0 km/h (0 Bft)
26.08.2019 18:51 20,8 °C 85 % 1015,3 hPa 0,0 mm 0,0 km/h (0 Bft) O 88 ° 0 min 0,000 mm 0,0 UV-I 39 W/m² 18,2 °C 20,8 °C 0,0 km/h (0 Bft)
26.08.2019 18:52 20,9 °C 85 % 1015,4 hPa 0,0 mm 0,0 km/h (0 Bft) O 88 ° 0 min 0,000 mm 0,0 UV-I 39 W/m² 18,3 °C 20,9 °C 0,0 km/h (0 Bft)
26.08.2019 18:53 20,9 °C 85 % 1015,4 hPa 0,0 mm 0,0 km/h (0 Bft) O 88 ° 0 min 0,000 mm 0,0 UV-I 40 W/m² 18,3 °C 20,9 °C 0,0 km/h (0 Bft)
26.08.2019 18:54 20,9 °C 85 % 1015,4 hPa 0,0 mm 0,0 km/h (0 Bft) O 88 ° 0 min 0,000 mm 0,0 UV-I 40 W/m² 18,3 °C 20,9 °C 0,0 km/h (0 Bft)
26.08.2019 18:55 20,9 °C 86 % 1015,4 hPa 0,0 mm 0,0 km/h (0 Bft) O 88 ° 0 min 0,000 mm 0,0 UV-I 40 W/m² 18,5 °C 20,9 °C 0,0 km/h (0 Bft)
26.08.2019 18:56 20,8 °C 86 % 1015,4 hPa 0,0 mm 0,0 km/h (0 Bft) O 88 ° 0 min 0,000 mm 0,0 UV-I 40 W/m² 18,4 °C 20,8 °C 0,0 km/h (0 Bft)
26.08.2019 18:57 20,8 °C 86 % 1015,4 hPa 0,0 mm 0,0 km/h (0 Bft) O 88 ° 0 min 0,000 mm 0,0 UV-I 39 W/m² 18,4 °C 20,8 °C 0,0 km/h (0 Bft)
26.08.2019 18:58 20,8 °C 87 % 1015,4 hPa 0,0 mm 0,0 km/h (0 Bft) O 88 ° 0 min 0,000 mm 0,0 UV-I 39 W/m² 18,6 °C 20,8 °C 0,0 km/h (0 Bft)
26.08.2019 18:59 20,7 °C 87 % 1015,4 hPa 0,0 mm 0,0 km/h (0 Bft) O 88 ° 0 min 0,000 mm 0,0 UV-I 39 W/m² 18,5 °C 20,7 °C 0,0 km/h (0 Bft)
26.08.2019 19:00 20,6 °C 87 % 1015,4 hPa 0,0 mm 0,0 km/h (0 Bft) O 88 ° 0 min 0,025 mm 0,0 UV-I 40 W/m² 18,4 °C 20,6 °C 0,0 km/h (0 Bft)
26.08.2019 19:01 20,5 °C 87 % 1015,4 hPa 0,0 mm 0,0 km/h (0 Bft) O 88 ° 0 min 0,000 mm 0,0 UV-I 42 W/m² 18,3 °C 20,5 °C 0,0 km/h (0 Bft)
26.08.2019 19:02 20,4 °C 88 % 1015,5 hPa 0,0 mm 0,0 km/h (0 Bft) O 88 ° 0 min 0,000 mm 0,0 UV-I 42 W/m² 18,3 °C 20,4 °C 0,0 km/h (0 Bft)
26.08.2019 19:03 20,4 °C 88 % 1015,4 hPa 0,0 mm 0,0 km/h (0 Bft) O 88 ° 0 min 0,000 mm 0,0 UV-I 46 W/m² 18,3 °C 20,4 °C 0,0 km/h (0 Bft)
26.08.2019 19:04 20,4 °C 88 % 1015,4 hPa 0,0 mm 0,0 km/h (0 Bft) O 88 ° 0 min 0,000 mm 0,0 UV-I 47 W/m² 18,3 °C 20,4 °C 0,0 km/h (0 Bft)
26.08.2019 19:05 20,4 °C 88 % 1015,4 hPa 0,0 mm 0,0 km/h (0 Bft) O 88 ° 0 min 0,000 mm 0,0 UV-I 44 W/m² 18,3 °C 20,4 °C 0,0 km/h (0 Bft)
26.08.2019 19:06 20,5 °C 88 % 1015,4 hPa 0,0 mm 0,0 km/h (0 Bft) O 88 ° 0 min 0,000 mm 0,0 UV-I 39 W/m² 18,4 °C 20,5 °C 0,0 km/h (0 Bft)
26.08.2019 19:07 20,5 °C 88 % 1015,4 hPa 0,0 mm 0,0 km/h (0 Bft) O 88 ° 0 min 0,000 mm 0,0 UV-I 39 W/m² 18,4 °C 20,5 °C 0,0 km/h (0 Bft)
26.08.2019 19:08 20,5 °C 88 % 1015,3 hPa 0,0 mm 0,0 km/h (0 Bft) O 88 ° 0 min 0,000 mm 0,0 UV-I 40 W/m² 18,4 °C 20,5 °C 0,0 km/h (0 Bft)
26.08.2019 19:09 20,5 °C 88 % 1015,3 hPa 0,0 mm 0,0 km/h (0 Bft) O 88 ° 0 min 0,000 mm 0,0 UV-I 42 W/m² 18,4 °C 20,5 °C 0,0 km/h (0 Bft)
26.08.2019 19:10 20,5 °C 88 % 1015,3 hPa 0,0 mm 0,0 km/h (0 Bft) O 88 ° 0 min 0,000 mm 0,0 UV-I 42 W/m² 18,4 °C 20,5 °C 0,0 km/h (0 Bft)
26.08.2019 19:11 20,5 °C 88 % 1015,3 hPa 0,0 mm 0,0 km/h (0 Bft) O 88 ° 0 min 0,000 mm 0,0 UV-I 44 W/m² 18,4 °C 20,5 °C 0,0 km/h (0 Bft)
26.08.2019 19:12 20,4 °C 88 % 1015,3 hPa 0,0 mm 0,0 km/h (0 Bft) O 88 ° 0 min 0,000 mm 0,0 UV-I 44 W/m² 18,3 °C 20,4 °C 0,0 km/h (0 Bft)
26.08.2019 19:13 20,4 °C 88 % 1015,3 hPa 0,0 mm 0,0 km/h (0 Bft) O 88 ° 0 min 0,000 mm 0,0 UV-I 44 W/m² 18,3 °C 20,4 °C 0,0 km/h (0 Bft)
26.08.2019 19:14 20,4 °C 88 % 1015,3 hPa 0,0 mm 0,0 km/h (0 Bft) O 88 ° 0 min 0,000 mm 0,0 UV-I 46 W/m² 18,3 °C 20,4 °C 0,0 km/h (0 Bft)
26.08.2019 19:15 20,4 °C 88 % 1015,2 hPa 0,0 mm 0,0 km/h (0 Bft) O 88 ° 0 min 0,000 mm 0,0 UV-I 42 W/m² 18,3 °C 20,4 °C 0,0 km/h (0 Bft)
26.08.2019 19:16 20,4 °C 88 % 1015,2 hPa 0,0 mm 0,0 km/h (0 Bft) O 88 ° 0 min 0,000 mm 0,0 UV-I 40 W/m² 18,3 °C 20,4 °C 0,0 km/h (0 Bft)
26.08.2019 19:17 20,3 °C 88 % 1015,3 hPa 0,0 mm 0,0 km/h (0 Bft) O 88 ° 0 min 0,000 mm 0,0 UV-I 40 W/m² 18,2 °C 20,3 °C 0,0 km/h (0 Bft)
26.08.2019 19:18 20,3 °C 88 % 1015,2 hPa 0,0 mm 0,0 km/h (0 Bft) O 88 ° 0 min 0,000 mm 0,0 UV-I 39 W/m² 18,2 °C 20,3 °C 0,0 km/h (0 Bft)
26.08.2019 19:19 20,2 °C 89 % 1015,2 hPa 0,0 mm 0,0 km/h (0 Bft) O 88 ° 0 min 0,000 mm 0,0 UV-I 39 W/m² 18,3 °C 20,2 °C 0,0 km/h (0 Bft)
26.08.2019 19:20 20,2 °C 89 % 1015,2 hPa 0,0 mm 0,0 km/h (0 Bft) O 88 ° 0 min 0,000 mm 0,0 UV-I 39 W/m² 18,3 °C 20,2 °C 0,0 km/h (0 Bft)
26.08.2019 19:21 20,1 °C 89 % 1015,3 hPa 0,0 mm 0,0 km/h (0 Bft) O 88 ° 0 min 0,000 mm 0,0 UV-I 40 W/m² 18,2 °C 20,1 °C 0,0 km/h (0 Bft)
26.08.2019 19:22 20,1 °C 89 % 1015,2 hPa 0,0 mm 0,0 km/h (0 Bft) O 88 ° 0 min 0,000 mm 0,0 UV-I 39 W/m² 18,2 °C 20,1 °C 0,0 km/h (0 Bft)
26.08.2019 19:23 20,1 °C 89 % 1015,2 hPa 0,0 mm 0,0 km/h (0 Bft) O 88 ° 0 min 0,000 mm 0,0 UV-I 35 W/m² 18,2 °C 20,1 °C 0,0 km/h (0 Bft)
26.08.2019 19:24 20,0 °C 89 % 1015,2 hPa 0,0 mm 0,0 km/h (0 Bft) O 88 ° 0 min 0,000 mm 0,0 UV-I 33 W/m² 18,1 °C 20,0 °C 0,0 km/h (0 Bft)
26.08.2019 19:25 20,0 °C 89 % 1015,2 hPa 0,0 mm 0,0 km/h (0 Bft) O 88 ° 0 min 0,000 mm 0,0 UV-I 35 W/m² 18,1 °C 20,0 °C 0,0 km/h (0 Bft)
26.08.2019 19:26 19,9 °C 89 % 1015,2 hPa 0,0 mm 0,0 km/h (0 Bft) O 88 ° 0 min 0,000 mm 0,0 UV-I 37 W/m² 18,0 °C 19,9 °C 0,0 km/h (0 Bft)
26.08.2019 19:27 19,9 °C 89 % 1015,2 hPa 0,0 mm 0,0 km/h (0 Bft) O 88 ° 0 min 0,000 mm 0,0 UV-I 37 W/m² 18,0 °C 19,9 °C 0,0 km/h (0 Bft)
26.08.2019 19:28 19,9 °C 89 % 1015,2 hPa 0,0 mm 0,0 km/h (0 Bft) O 88 ° 0 min 0,000 mm 0,0 UV-I 37 W/m² 18,0 °C 19,9 °C 0,0 km/h (0 Bft)
26.08.2019 19:29 19,8 °C 89 % 1015,2 hPa 0,0 mm 0,0 km/h (0 Bft) O 88 ° 0 min 0,000 mm 0,0 UV-I 35 W/m² 17,9 °C 19,8 °C 0,0 km/h (0 Bft)
26.08.2019 19:30 19,8 °C 90 % 1015,2 hPa 0,0 mm 0,0 km/h (0 Bft) O 88 ° 0 min 0,000 mm 0,0 UV-I 33 W/m² 18,1 °C 19,8 °C 0,0 km/h (0 Bft)
26.08.2019 19:31 19,8 °C 90 % 1015,2 hPa 0,0 mm 0,0 km/h (0 Bft) O 88 ° 0 min 0,000 mm 0,0 UV-I 33 W/m² 18,1 °C 19,8 °C 0,0 km/h (0 Bft)
26.08.2019 19:32 19,7 °C 90 % 1015,3 hPa 0,0 mm 0,0 km/h (0 Bft) O 88 ° 0 min 0,000 mm 0,0 UV-I 32 W/m² 18,0 °C 19,7 °C 0,0 km/h (0 Bft)
26.08.2019 19:33 19,7 °C 90 % 1015,2 hPa 0,0 mm 0,0 km/h (0 Bft) O 88 ° 0 min 0,000 mm 0,0 UV-I 32 W/m² 18,0 °C 19,7 °C 0,0 km/h (0 Bft)
26.08.2019 19:34 19,7 °C 90 % 1015,2 hPa 0,0 mm 0,0 km/h (0 Bft) O 88 ° 0 min 0,000 mm 0,0 UV-I 30 W/m² 18,0 °C 19,7 °C 0,0 km/h (0 Bft)
26.08.2019 19:35 19,6 °C 90 % 1015,2 hPa 0,0 mm 0,0 km/h (0 Bft) O 88 ° 0 min 0,000 mm 0,0 UV-I 30 W/m² 17,9 °C 19,6 °C 0,0 km/h (0 Bft)
26.08.2019 19:36 19,6 °C 90 % 1015,2 hPa 0,0 mm 0,0 km/h (0 Bft) O 88 ° 0 min 0,000 mm 0,0 UV-I 28 W/m² 17,9 °C 19,6 °C 0,0 km/h (0 Bft)
26.08.2019 19:37 19,6 °C 90 % 1015,2 hPa 0,0 mm 0,0 km/h (0 Bft) O 88 ° 0 min 0,000 mm 0,0 UV-I 26 W/m² 17,9 °C 19,6 °C 0,0 km/h (0 Bft)
26.08.2019 19:38 19,5 °C 90 % 1015,2 hPa 0,0 mm 0,0 km/h (0 Bft) O 88 ° 0 min 0,000 mm 0,0 UV-I 25 W/m² 17,8 °C 19,5 °C 0,0 km/h (0 Bft)
26.08.2019 19:39 19,4 °C 90 % 1015,2 hPa 0,0 mm 0,0 km/h (0 Bft) O 88 ° 0 min 0,000 mm 0,0 UV-I 21 W/m² 17,7 °C 19,4 °C 0,0 km/h (0 Bft)
26.08.2019 19:40 19,4 °C 90 % 1015,2 hPa 0,0 mm 0,0 km/h (0 Bft) O 88 ° 0 min 0,000 mm 0,0 UV-I 21 W/m² 17,7 °C 19,4 °C 0,0 km/h (0 Bft)
26.08.2019 19:41 19,4 °C 90 % 1015,2 hPa 0,0 mm 0,0 km/h (0 Bft) O 88 ° 0 min 0,000 mm 0,0 UV-I 19 W/m² 17,7 °C 19,4 °C 0,0 km/h (0 Bft)
26.08.2019 19:42 19,4 °C 90 % 1015,1 hPa 0,0 mm 0,0 km/h (0 Bft) O 88 ° 0 min 0,000 mm 0,0 UV-I 19 W/m² 17,7 °C 19,4 °C 0,0 km/h (0 Bft)
26.08.2019 19:43 19,4 °C 90 % 1015,2 hPa 0,0 mm 0,0 km/h (0 Bft) O 88 ° 0 min 0,000 mm 0,0 UV-I 19 W/m² 17,7 °C 19,4 °C 0,0 km/h (0 Bft)
26.08.2019 19:44 19,3 °C 90 % 1015,2 hPa 0,0 mm 0,0 km/h (0 Bft) O 88 ° 0 min 0,000 mm 0,0 UV-I 18 W/m² 17,6 °C 19,3 °C 0,0 km/h (0 Bft)
26.08.2019 19:45 19,3 °C 90 % 1015,2 hPa 0,0 mm 0,0 km/h (0 Bft) O 88 ° 0 min 0,000 mm 0,0 UV-I 18 W/m² 17,6 °C 19,3 °C 0,0 km/h (0 Bft)
26.08.2019 19:46 19,3 °C 90 % 1015,2 hPa 0,0 mm 0,0 km/h (0 Bft) O 88 ° 0 min 0,000 mm 0,0 UV-I 16 W/m² 17,6 °C 19,3 °C 0,0 km/h (0 Bft)
26.08.2019 19:47 19,2 °C 90 % 1015,2 hPa 0,0 mm 0,0 km/h (0 Bft) O 88 ° 0 min 0,000 mm 0,0 UV-I 14 W/m² 17,5 °C 19,2 °C 0,0 km/h (0 Bft)
26.08.2019 19:48 19,2 °C 90 % 1015,2 hPa 0,0 mm 0,0 km/h (0 Bft) O 88 ° 0 min 0,000 mm 0,0 UV-I 14 W/m² 17,5 °C 19,2 °C 0,0 km/h (0 Bft)
26.08.2019 19:49 19,1 °C 90 % 1015,2 hPa 0,0 mm 0,0 km/h (0 Bft) O 88 ° 0 min 0,000 mm 0,0 UV-I 12 W/m² 17,4 °C 19,1 °C 0,0 km/h (0 Bft)
26.08.2019 19:50 19,2 °C 91 % 1015,2 hPa 0,0 mm 0,0 km/h (0 Bft) O 88 ° 0 min 0,000 mm 0,0 UV-I 12 W/m² 17,7 °C 19,2 °C 0,0 km/h (0 Bft)
26.08.2019 19:51 19,1 °C 91 % 1015,2 hPa 0,0 mm 0,0 km/h (0 Bft) O 88 ° 0 min 0,000 mm 0,0 UV-I 11 W/m² 17,6 °C 19,1 °C 0,0 km/h (0 Bft)
26.08.2019 19:52 19,2 °C 91 % 1015,2 hPa 0,0 mm 0,0 km/h (0 Bft) O 88 ° 0 min 0,000 mm 0,0 UV-I 11 W/m² 17,7 °C 19,2 °C 0,0 km/h (0 Bft)
26.08.2019 19:53 19,1 °C 91 % 1015,2 hPa 0,0 mm 0,0 km/h (0 Bft) O 88 ° 0 min 0,000 mm 0,0 UV-I 9 W/m² 17,6 °C 19,1 °C 0,0 km/h (0 Bft)
26.08.2019 19:54 19,2 °C 90 % 1015,2 hPa 0,0 mm 0,0 km/h (0 Bft) O 88 ° 0 min 0,000 mm 0,0 UV-I 9 W/m² 17,5 °C 19,2 °C 0,0 km/h (0 Bft)
26.08.2019 19:55 19,1 °C 90 % 1015,2 hPa 0,0 mm 0,0 km/h (0 Bft) O 88 ° 0 min 0,000 mm 0,0 UV-I 9 W/m² 17,4 °C 19,1 °C 0,0 km/h (0 Bft)
26.08.2019 19:56 19,1 °C 90 % 1015,2 hPa 0,0 mm 0,0 km/h (0 Bft) O 88 ° 0 min 0,000 mm 0,0 UV-I 9 W/m² 17,4 °C 19,1 °C 0,0 km/h (0 Bft)
26.08.2019 19:57 19,1 °C 90 % 1015,2 hPa 0,0 mm 0,0 km/h (0 Bft) O 88 ° 0 min 0,000 mm 0,0 UV-I 9 W/m² 17,4 °C 19,1 °C 0,0 km/h (0 Bft)
26.08.2019 19:58 19,1 °C 90 % 1015,2 hPa 0,0 mm 0,0 km/h (0 Bft) O 88 ° 0 min 0,000 mm 0,0 UV-I 7 W/m² 17,4 °C 19,1 °C 0,0 km/h (0 Bft)
26.08.2019 19:59 19,1 °C 90 % 1015,2 hPa 0,0 mm 0,0 km/h (0 Bft) O 88 ° 0 min 0,000 mm 0,0 UV-I 7 W/m² 17,4 °C 19,1 °C 0,0 km/h (0 Bft)
26.08.2019 20:00 18,9 °C 90 % 1015,2 hPa 0,0 mm 0,0 km/h (0 Bft) O 88 ° 0 min 0,025 mm 0,0 UV-I 7 W/m² 17,2 °C 18,9 °C 0,0 km/h (0 Bft)
26.08.2019 20:01 18,9 °C 90 % 1015,2 hPa 0,0 mm 0,0 km/h (0 Bft) O 88 ° 0 min 0,000 mm 0,0 UV-I 7 W/m² 17,2 °C 18,9 °C 0,0 km/h (0 Bft)
26.08.2019 20:02 18,9 °C 90 % 1015,2 hPa 0,0 mm 0,0 km/h (0 Bft) O 88 ° 0 min 0,000 mm 0,0 UV-I 5 W/m² 17,2 °C 18,9 °C 0,0 km/h (0 Bft)
26.08.2019 20:03 18,9 °C 90 % 1015,2 hPa 0,0 mm 0,0 km/h (0 Bft) O 88 ° 0 min 0,000 mm 0,0 UV-I 5 W/m² 17,2 °C 18,9 °C 0,0 km/h (0 Bft)
26.08.2019 20:04 18,9 °C 90 % 1015,2 hPa 0,0 mm 0,0 km/h (0 Bft) O 88 ° 0 min 0,000 mm 0,0 UV-I 5 W/m² 17,2 °C 18,9 °C 0,0 km/h (0 Bft)
26.08.2019 20:05 18,8 °C 90 % 1015,2 hPa 0,0 mm 0,0 km/h (0 Bft) O 88 ° 0 min 0,000 mm 0,0 UV-I 5 W/m² 17,1 °C 18,8 °C 0,0 km/h (0 Bft)
26.08.2019 20:06 18,8 °C 90 % 1015,2 hPa 0,0 mm 0,0 km/h (0 Bft) O 88 ° 0 min 0,000 mm 0,0 UV-I 5 W/m² 17,1 °C 18,8 °C 0,0 km/h (0 Bft)
26.08.2019 20:07 18,8 °C 90 % 1015,1 hPa 0,0 mm 0,0 km/h (0 Bft) O 88 ° 0 min 0,000 mm 0,0 UV-I 5 W/m² 17,1 °C 18,8 °C 0,0 km/h (0 Bft)
26.08.2019 20:08 18,8 °C 90 % 1015,2 hPa 0,0 mm 0,0 km/h (0 Bft) O 88 ° 0 min 0,000 mm 0,0 UV-I 5 W/m² 17,1 °C 18,8 °C 0,0 km/h (0 Bft)
26.08.2019 20:09 18,8 °C 90 % 1015,1 hPa 0,0 mm 0,0 km/h (0 Bft) O 88 ° 0 min 0,000 mm 0,0 UV-I 0 W/m² 17,1 °C 18,8 °C 0,0 km/h (0 Bft)
26.08.2019 20:10 18,7 °C 90 % 1015,2 hPa 0,0 mm 0,0 km/h (0 Bft) O 88 ° 0 min 0,000 mm 0,0 UV-I 0 W/m² 17,0 °C 18,7 °C 0,0 km/h (0 Bft)
26.08.2019 20:11 18,7 °C 90 % 1015,1 hPa 0,0 mm 0,0 km/h (0 Bft) O 88 ° 0 min 0,000 mm 0,0 UV-I 0 W/m² 17,0 °C 18,7 °C 0,0 km/h (0 Bft)
26.08.2019 20:12 18,7 °C 90 % 1015,1 hPa 0,0 mm 0,0 km/h (0 Bft) O 88 ° 0 min 0,000 mm 0,0 UV-I 0 W/m² 17,0 °C 18,7 °C 0,0 km/h (0 Bft)
26.08.2019 20:13 18,7 °C 90 % 1015,2 hPa 0,0 mm 0,0 km/h (0 Bft) O 88 ° 0 min 0,000 mm 0,0 UV-I 0 W/m² 17,0 °C 18,7 °C 0,0 km/h (0 Bft)
26.08.2019 20:14 18,7 °C 90 % 1015,2 hPa 0,0 mm 0,0 km/h (0 Bft) O 88 ° 0 min 0,000 mm 0,0 UV-I 0 W/m² 17,0 °C 18,7 °C 0,0 km/h (0 Bft)
26.08.2019 20:15 18,6 °C 90 % 1015,2 hPa 0,0 mm 0,0 km/h (0 Bft) O 88 ° 0 min 0,000 mm 0,0 UV-I 0 W/m² 16,9 °C 18,6 °C 0,0 km/h (0 Bft)
26.08.2019 20:16 18,6 °C 90 % 1015,2 hPa 0,0 mm 0,0 km/h (0 Bft) O 88 ° 0 min 0,000 mm 0,0 UV-I 0 W/m² 16,9 °C 18,6 °C 0,0 km/h (0 Bft)
26.08.2019 20:17 18,6 °C 90 % 1015,2 hPa 0,0 mm 0,0 km/h (0 Bft) O 88 ° 0 min 0,000 mm 0,0 UV-I 0 W/m² 16,9 °C 18,6 °C 0,0 km/h (0 Bft)
26.08.2019 20:18 18,5 °C 90 % 1015,2 hPa 0,0 mm 0,0 km/h (0 Bft) O 88 ° 0 min 0,000 mm 0,0 UV-I 0 W/m² 16,8 °C 18,5 °C 0,0 km/h (0 Bft)
26.08.2019 20:19 18,4 °C 90 % 1015,2 hPa 0,0 mm 0,0 km/h (0 Bft) O 88 ° 0 min 0,000 mm 0,0 UV-I 0 W/m² 16,7 °C 18,4 °C 0,0 km/h (0 Bft)
26.08.2019 20:20 18,4 °C 91 % 1015,2 hPa 0,0 mm 0,0 km/h (0 Bft) O 88 ° 0 min 0,000 mm 0,0 UV-I 0 W/m² 16,9 °C 18,4 °C 0,0 km/h (0 Bft)
26.08.2019 20:21 18,4 °C 91 % 1015,2 hPa 0,0 mm 0,0 km/h (0 Bft) O 88 ° 0 min 0,000 mm 0,0 UV-I 0 W/m² 16,9 °C 18,4 °C 0,0 km/h (0 Bft)
26.08.2019 20:22 18,4 °C 91 % 1015,2 hPa 0,0 mm 0,0 km/h (0 Bft) O 88 ° 0 min 0,000 mm 0,0 UV-I 0 W/m² 16,9 °C 18,4 °C 0,0 km/h (0 Bft)
26.08.2019 20:23 18,4 °C 91 % 1015,2 hPa 0,0 mm 0,0 km/h (0 Bft) O 88 ° 0 min 0,000 mm 0,0 UV-I 0 W/m² 16,9 °C 18,4 °C 0,0 km/h (0 Bft)
26.08.2019 20:24 18,4 °C 91 % 1015,2 hPa 0,0 mm 0,0 km/h (0 Bft) O 88 ° 0 min 0,000 mm 0,0 UV-I 0 W/m² 16,9 °C 18,4 °C 0,0 km/h (0 Bft)
26.08.2019 20:25 18,3 °C 91 % 1015,2 hPa 0,0 mm 0,0 km/h (0 Bft) O 88 ° 0 min 0,000 mm 0,0 UV-I 0 W/m² 16,8 °C 18,3 °C 0,0 km/h (0 Bft)
26.08.2019 20:26 18,3 °C 91 % 1015,2 hPa 0,0 mm 0,0 km/h (0 Bft) O 88 ° 0 min 0,000 mm 0,0 UV-I 0 W/m² 16,8 °C 18,3 °C 0,0 km/h (0 Bft)
26.08.2019 20:27 18,3 °C 91 % 1015,2 hPa 0,0 mm 0,0 km/h (0 Bft) O 88 ° 0 min 0,000 mm 0,0 UV-I 0 W/m² 16,8 °C 18,3 °C 0,0 km/h (0 Bft)
26.08.2019 20:28 18,3 °C 91 % 1015,2 hPa 0,0 mm 0,0 km/h (0 Bft) O 88 ° 0 min 0,000 mm 0,0 UV-I 0 W/m² 16,8 °C 18,3 °C 0,0 km/h (0 Bft)
26.08.2019 20:29 18,3 °C 91 % 1015,2 hPa 0,0 mm 0,0 km/h (0 Bft) O 88 ° 0 min 0,000 mm 0,0 UV-I 0 W/m² 16,8 °C 18,3 °C 0,0 km/h (0 Bft)
26.08.2019 20:30 18,3 °C 92 % 1015,2 hPa 0,0 mm 0,0 km/h (0 Bft) O 88 ° 0 min 0,000 mm 0,0 UV-I 0 W/m² 17,0 °C 18,3 °C 0,0 km/h (0 Bft)
26.08.2019 20:31 18,3 °C 92 % 1015,3 hPa 0,0 mm 0,0 km/h (0 Bft) O 88 ° 0 min 0,000 mm 0,0 UV-I 0 W/m² 17,0 °C 18,3 °C 0,0 km/h (0 Bft)
26.08.2019 20:32 18,3 °C 92 % 1015,3 hPa 0,0 mm 0,0 km/h (0 Bft) O 88 ° 0 min 0,000 mm 0,0 UV-I 0 W/m² 17,0 °C 18,3 °C 0,0 km/h (0 Bft)
26.08.2019 20:33 18,3 °C 92 % 1015,2 hPa 0,0 mm 0,0 km/h (0 Bft) O 88 ° 0 min 0,000 mm 0,0 UV-I 0 W/m² 17,0 °C 18,3 °C 0,0 km/h (0 Bft)
26.08.2019 20:34 18,3 °C 92 % 1015,2 hPa 0,0 mm 0,0 km/h (0 Bft) O 88 ° 0 min 0,000 mm 0,0 UV-I 0 W/m² 17,0 °C 18,3 °C 0,0 km/h (0 Bft)
26.08.2019 20:35 18,3 °C 92 % 1015,3 hPa 0,0 mm 0,0 km/h (0 Bft) O 88 ° 0 min 0,000 mm 0,0 UV-I 0 W/m² 17,0 °C 18,3 °C 0,0 km/h (0 Bft)
26.08.2019 20:36 18,3 °C 92 % 1015,3 hPa 0,0 mm 0,0 km/h (0 Bft) O 88 ° 0 min 0,000 mm 0,0 UV-I 0 W/m² 17,0 °C 18,3 °C 0,0 km/h (0 Bft)
26.08.2019 20:37 18,3 °C 92 % 1015,2 hPa 0,0 mm 0,0 km/h (0 Bft) O 88 ° 0 min 0,000 mm 0,0 UV-I 0 W/m² 17,0 °C 18,3 °C 0,0 km/h (0 Bft)
26.08.2019 20:38 18,2 °C 91 % 1015,2 hPa 0,0 mm 0,0 km/h (0 Bft) O 88 ° 0 min 0,000 mm 0,0 UV-I 0 W/m² 16,7 °C 18,2 °C 0,0 km/h (0 Bft)
26.08.2019 20:39 18,3 °C 92 % 1015,2 hPa 0,0 mm 0,0 km/h (0 Bft) O 88 ° 0 min 0,000 mm 0,0 UV-I 0 W/m² 17,0 °C 18,3 °C 0,0 km/h (0 Bft)
26.08.2019 20:40 18,2 °C 92 % 1015,2 hPa 0,0 mm 0,0 km/h (0 Bft) O 88 ° 0 min 0,000 mm 0,0 UV-I 0 W/m² 16,9 °C 18,2 °C 0,0 km/h (0 Bft)
26.08.2019 20:41 18,2 °C 91 % 1015,2 hPa 0,0 mm 0,0 km/h (0 Bft) O 88 ° 0 min 0,000 mm 0,0 UV-I 0 W/m² 16,7 °C 18,2 °C 0,0 km/h (0 Bft)
26.08.2019 20:42 18,2 °C 91 % 1015,2 hPa 0,0 mm 0,0 km/h (0 Bft) O 88 ° 0 min 0,000 mm 0,0 UV-I 0 W/m² 16,7 °C 18,2 °C 0,0 km/h (0 Bft)
26.08.2019 20:43 18,2 °C 92 % 1015,2 hPa 0,0 mm 0,0 km/h (0 Bft) O 88 ° 0 min 0,000 mm 0,0 UV-I 0 W/m² 16,9 °C 18,2 °C 0,0 km/h (0 Bft)
26.08.2019 20:44 18,2 °C 91 % 1015,2 hPa 0,0 mm 0,0 km/h (0 Bft) O 88 ° 0 min 0,000 mm 0,0 UV-I 0 W/m² 16,7 °C 18,2 °C 0,0 km/h (0 Bft)
26.08.2019 20:45 18,2 °C 91 % 1015,2 hPa 0,0 mm 0,0 km/h (0 Bft) O 88 ° 0 min 0,000 mm 0,0 UV-I 0 W/m² 16,7 °C 18,2 °C 0,0 km/h (0 Bft)
26.08.2019 20:46 18,2 °C 91 % 1015,2 hPa 0,0 mm 0,0 km/h (0 Bft) O 88 ° 0 min 0,000 mm 0,0 UV-I 0 W/m² 16,7 °C 18,2 °C 0,0 km/h (0 Bft)
26.08.2019 20:47 18,2 °C 91 % 1015,2 hPa 0,0 mm 0,0 km/h (0 Bft) O 88 ° 0 min 0,000 mm 0,0 UV-I 0 W/m² 16,7 °C 18,2 °C 0,0 km/h (0 Bft)
26.08.2019 20:48 18,1 °C 91 % 1015,2 hPa 0,0 mm 0,0 km/h (0 Bft) O 88 ° 0 min 0,000 mm 0,0 UV-I 0 W/m² 16,6 °C 18,1 °C 0,0 km/h (0 Bft)
26.08.2019 20:49 18,1 °C 91 % 1015,2 hPa 0,0 mm 0,0 km/h (0 Bft) O 88 ° 0 min 0,000 mm 0,0 UV-I 0 W/m² 16,6 °C 18,1 °C 0,0 km/h (0 Bft)
26.08.2019 20:50 18,1 °C 91 % 1015,2 hPa 0,0 mm 0,0 km/h (0 Bft) O 88 ° 0 min 0,000 mm 0,0 UV-I 0 W/m² 16,6 °C 18,1 °C 0,0 km/h (0 Bft)
26.08.2019 20:51 18,1 °C 91 % 1015,2 hPa 0,0 mm 0,0 km/h (0 Bft) O 88 ° 0 min 0,000 mm 0,0 UV-I 0 W/m² 16,6 °C 18,1 °C 0,0 km/h (0 Bft)
26.08.2019 20:52 18,0 °C 91 % 1015,2 hPa 0,0 mm 0,0 km/h (0 Bft) O 88 ° 0 min 0,000 mm 0,0 UV-I 0 W/m² 16,5 °C 18,0 °C 0,0 km/h (0 Bft)
26.08.2019 20:53 18,0 °C 92 % 1015,2 hPa 0,0 mm 0,0 km/h (0 Bft) O 88 ° 0 min 0,000 mm 0,0 UV-I 0 W/m² 16,7 °C 18,0 °C 0,0 km/h (0 Bft)
26.08.2019 20:54 18,0 °C 92 % 1015,3 hPa 0,0 mm 0,0 km/h (0 Bft) O 88 ° 0 min 0,000 mm 0,0 UV-I 0 W/m² 16,7 °C 18,0 °C 0,0 km/h (0 Bft)
26.08.2019 20:55 18,0 °C 92 % 1015,2 hPa 0,0 mm 0,0 km/h (0 Bft) O 88 ° 0 min 0,000 mm 0,0 UV-I 0 W/m² 16,7 °C 18,0 °C 0,0 km/h (0 Bft)
26.08.2019 20:56 17,9 °C 92 % 1015,3 hPa 0,0 mm 0,0 km/h (0 Bft) O 88 ° 0 min 0,000 mm 0,0 UV-I 0 W/m² 16,6 °C 17,9 °C 0,0 km/h (0 Bft)
26.08.2019 20:57 17,9 °C 92 % 1015,3 hPa 0,0 mm 0,0 km/h (0 Bft) O 88 ° 0 min 0,000 mm 0,0 UV-I 0 W/m² 16,6 °C 17,9 °C 0,0 km/h (0 Bft)
26.08.2019 20:58 17,9 °C 92 % 1015,3 hPa 0,0 mm 0,0 km/h (0 Bft) O 88 ° 0 min 0,000 mm 0,0 UV-I 0 W/m² 16,6 °C 17,9 °C 0,0 km/h (0 Bft)
26.08.2019 20:59 17,9 °C 92 % 1015,3 hPa 0,0 mm 0,0 km/h (0 Bft) O 88 ° 0 min 0,000 mm 0,0 UV-I 0 W/m² 16,6 °C 17,9 °C 0,0 km/h (0 Bft)
26.08.2019 21:00 17,9 °C 92 % 1015,3 hPa 0,0 mm 0,0 km/h (0 Bft) O 88 ° 0 min 0,000 mm 0,0 UV-I 0 W/m² 16,6 °C 17,9 °C 0,0 km/h (0 Bft)
26.08.2019 21:01 17,9 °C 92 % 1015,3 hPa 0,0 mm 0,0 km/h (0 Bft) O 88 ° 0 min 0,000 mm 0,0 UV-I 0 W/m² 16,6 °C 17,9 °C 0,0 km/h (0 Bft)
26.08.2019 21:02 17,9 °C 91 % 1015,3 hPa 0,0 mm 0,0 km/h (0 Bft) O 88 ° 0 min 0,000 mm 0,0 UV-I 0 W/m² 16,4 °C 17,9 °C 0,0 km/h (0 Bft)
26.08.2019 21:03 17,9 °C 91 % 1015,3 hPa 0,0 mm 0,0 km/h (0 Bft) O 88 ° 0 min 0,000 mm 0,0 UV-I 0 W/m² 16,4 °C 17,9 °C 0,0 km/h (0 Bft)
26.08.2019 21:04 17,9 °C 91 % 1015,3 hPa 0,0 mm 0,0 km/h (0 Bft) O 88 ° 0 min 0,000 mm 0,0 UV-I 0 W/m² 16,4 °C 17,9 °C 0,0 km/h (0 Bft)
26.08.2019 21:05 17,8 °C 91 % 1015,4 hPa 0,0 mm 0,0 km/h (0 Bft) O 88 ° 0 min 0,000 mm 0,0 UV-I 0 W/m² 16,3 °C 17,8 °C 0,0 km/h (0 Bft)
26.08.2019 21:06 17,8 °C 91 % 1015,4 hPa 0,0 mm 0,0 km/h (0 Bft) O 88 ° 0 min 0,000 mm 0,0 UV-I 0 W/m² 16,3 °C 17,8 °C 0,0 km/h (0 Bft)
26.08.2019 21:07 17,8 °C 91 % 1015,4 hPa 0,0 mm 0,0 km/h (0 Bft) O 88 ° 0 min 0,000 mm 0,0 UV-I 0 W/m² 16,3 °C 17,8 °C 0,0 km/h (0 Bft)
26.08.2019 21:08 17,7 °C 92 % 1015,4 hPa 0,0 mm 0,0 km/h (0 Bft) O 88 ° 0 min 0,000 mm 0,0 UV-I 0 W/m² 16,4 °C 17,7 °C 0,0 km/h (0 Bft)
26.08.2019 21:09 17,7 °C 92 % 1015,5 hPa 0,0 mm 0,0 km/h (0 Bft) O 88 ° 0 min 0,000 mm 0,0 UV-I 0 W/m² 16,4 °C 17,7 °C 0,0 km/h (0 Bft)
26.08.2019 21:10 17,7 °C 92 % 1015,4 hPa 0,0 mm 0,0 km/h (0 Bft) O 88 ° 0 min 0,000 mm 0,0 UV-I 0 W/m² 16,4 °C 17,7 °C 0,0 km/h (0 Bft)
26.08.2019 21:11 17,7 °C 92 % 1015,4 hPa 0,0 mm 0,0 km/h (0 Bft) O 88 ° 0 min 0,000 mm 0,0 UV-I 0 W/m² 16,4 °C 17,7 °C 0,0 km/h (0 Bft)
26.08.2019 21:12 17,6 °C 92 % 1015,4 hPa 0,0 mm 0,0 km/h (0 Bft) O 88 ° 0 min 0,000 mm 0,0 UV-I 0 W/m² 16,3 °C 17,6 °C 0,0 km/h (0 Bft)
26.08.2019 21:13 17,6 °C 92 % 1015,4 hPa 0,0 mm 0,0 km/h (0 Bft) O 88 ° 0 min 0,000 mm 0,0 UV-I 0 W/m² 16,3 °C 17,6 °C 0,0 km/h (0 Bft)
26.08.2019 21:14 17,5 °C 92 % 1015,4 hPa 0,0 mm 0,0 km/h (0 Bft) O 88 ° 0 min 0,000 mm 0,0 UV-I 0 W/m² 16,2 °C 17,5 °C 0,0 km/h (0 Bft)
26.08.2019 21:15 17,5 °C 92 % 1015,5 hPa 0,0 mm 0,0 km/h (0 Bft) O 88 ° 0 min 0,000 mm 0,0 UV-I 0 W/m² 16,2 °C 17,5 °C 0,0 km/h (0 Bft)
26.08.2019 21:16 17,4 °C 92 % 1015,5 hPa 0,0 mm 0,0 km/h (0 Bft) O 88 ° 0 min 0,000 mm 0,0 UV-I 0 W/m² 16,1 °C 17,4 °C 0,0 km/h (0 Bft)
26.08.2019 21:17 17,4 °C 92 % 1015,4 hPa 0,0 mm 0,0 km/h (0 Bft) O 88 ° 0 min 0,000 mm 0,0 UV-I 0 W/m² 16,1 °C 17,4 °C 0,0 km/h (0 Bft)
26.08.2019 21:18 17,4 °C 92 % 1015,5 hPa 0,0 mm 0,0 km/h (0 Bft) O 88 ° 0 min 0,000 mm 0,0 UV-I 0 W/m² 16,1 °C 17,4 °C 0,0 km/h (0 Bft)
26.08.2019 21:19 17,4 °C 92 % 1015,4 hPa 0,0 mm 0,0 km/h (0 Bft) O 88 ° 0 min 0,000 mm 0,0 UV-I 0 W/m² 16,1 °C 17,4 °C 0,0 km/h (0 Bft)
26.08.2019 21:20 17,4 °C 92 % 1015,5 hPa 0,0 mm 0,0 km/h (0 Bft) O 88 ° 0 min 0,000 mm 0,0 UV-I 0 W/m² 16,1 °C 17,4 °C 0,0 km/h (0 Bft)
26.08.2019 21:21 17,4 °C 93 % 1015,4 hPa 0,0 mm 0,0 km/h (0 Bft) O 88 ° 0 min 0,000 mm 0,0 UV-I 0 W/m² 16,3 °C 17,4 °C 0,0 km/h (0 Bft)
26.08.2019 21:22 17,3 °C 93 % 1015,5 hPa 0,0 mm 0,0 km/h (0 Bft) O 88 ° 0 min 0,000 mm 0,0 UV-I 0 W/m² 16,2 °C 17,3 °C 0,0 km/h (0 Bft)
26.08.2019 21:23 17,3 °C 92 % 1015,5 hPa 0,0 mm 0,0 km/h (0 Bft) O 88 ° 0 min 0,000 mm 0,0 UV-I 0 W/m² 16,0 °C 17,3 °C 0,0 km/h (0 Bft)
26.08.2019 21:24 17,3 °C 93 % 1015,5 hPa 0,0 mm 0,0 km/h (0 Bft) O 88 ° 0 min 0,000 mm 0,0 UV-I 0 W/m² 16,2 °C 17,3 °C 0,0 km/h (0 Bft)
26.08.2019 21:25 17,3 °C 93 % 1015,4 hPa 0,0 mm 0,0 km/h (0 Bft) O 88 ° 0 min 0,000 mm 0,0 UV-I 0 W/m² 16,2 °C 17,3 °C 0,0 km/h (0 Bft)
26.08.2019 21:26 17,3 °C 93 % 1015,5 hPa 0,0 mm 0,0 km/h (0 Bft) O 88 ° 0 min 0,000 mm 0,0 UV-I 0 W/m² 16,2 °C 17,3 °C 0,0 km/h (0 Bft)
26.08.2019 21:27 17,3 °C 93 % 1015,4 hPa 0,0 mm 0,0 km/h (0 Bft) O 88 ° 0 min 0,000 mm 0,0 UV-I 0 W/m² 16,2 °C 17,3 °C 0,0 km/h (0 Bft)
26.08.2019 21:28 17,3 °C 93 % 1015,4 hPa 0,0 mm 0,0 km/h (0 Bft) O 88 ° 0 min 0,000 mm 0,0 UV-I 0 W/m² 16,2 °C 17,3 °C 0,0 km/h (0 Bft)
26.08.2019 21:29 17,3 °C 93 % 1015,5 hPa 0,0 mm 0,0 km/h (0 Bft) O 88 ° 0 min 0,000 mm 0,0 UV-I 0 W/m² 16,2 °C 17,3 °C 0,0 km/h (0 Bft)
26.08.2019 21:30 17,3 °C 93 % 1015,5 hPa 0,0 mm 0,0 km/h (0 Bft) O 88 ° 0 min 0,000 mm 0,0 UV-I 0 W/m² 16,2 °C 17,3 °C 0,0 km/h (0 Bft)
26.08.2019 21:31 17,3 °C 93 % 1015,4 hPa 0,0 mm 0,0 km/h (0 Bft) O 88 ° 0 min 0,000 mm 0,0 UV-I 0 W/m² 16,2 °C 17,3 °C 0,0 km/h (0 Bft)
26.08.2019 21:32 17,2 °C 93 % 1015,4 hPa 0,0 mm 0,0 km/h (0 Bft) O 88 ° 0 min 0,000 mm 0,0 UV-I 0 W/m² 16,1 °C 17,2 °C 0,0 km/h (0 Bft)
26.08.2019 21:33 17,2 °C 93 % 1015,4 hPa 0,0 mm 0,0 km/h (0 Bft) O 88 ° 0 min 0,000 mm 0,0 UV-I 0 W/m² 16,1 °C 17,2 °C 0,0 km/h (0 Bft)
26.08.2019 21:34 17,2 °C 93 % 1015,4 hPa 0,0 mm 0,0 km/h (0 Bft) O 88 ° 0 min 0,000 mm 0,0 UV-I 0 W/m² 16,1 °C 17,2 °C 0,0 km/h (0 Bft)
26.08.2019 21:35 17,2 °C 93 % 1015,4 hPa 0,0 mm 0,0 km/h (0 Bft) O 88 ° 0 min 0,000 mm 0,0 UV-I 0 W/m² 16,1 °C 17,2 °C 0,0 km/h (0 Bft)
26.08.2019 21:36 17,2 °C 93 % 1015,4 hPa 0,0 mm 0,0 km/h (0 Bft) O 88 ° 0 min 0,000 mm 0,0 UV-I 0 W/m² 16,1 °C 17,2 °C 0,0 km/h (0 Bft)
26.08.2019 21:37 17,2 °C 93 % 1015,4 hPa 0,0 mm 0,0 km/h (0 Bft) O 88 ° 0 min 0,000 mm 0,0 UV-I 0 W/m² 16,1 °C 17,2 °C 0,0 km/h (0 Bft)
26.08.2019 21:38 17,1 °C 93 % 1015,4 hPa 0,0 mm 0,0 km/h (0 Bft) O 88 ° 0 min 0,000 mm 0,0 UV-I 0 W/m² 16,0 °C 17,1 °C 0,0 km/h (0 Bft)
26.08.2019 21:39 17,1 °C 93 % 1015,4 hPa 0,0 mm 0,0 km/h (0 Bft) O 88 ° 0 min 0,000 mm 0,0 UV-I 0 W/m² 16,0 °C 17,1 °C 0,0 km/h (0 Bft)
26.08.2019 21:40 17,1 °C 93 % 1015,5 hPa 0,0 mm 0,0 km/h (0 Bft) O 88 ° 0 min 0,000 mm 0,0 UV-I 0 W/m² 16,0 °C 17,1 °C 0,0 km/h (0 Bft)
26.08.2019 21:41 17,1 °C 93 % 1015,4 hPa 0,0 mm 0,0 km/h (0 Bft) O 88 ° 0 min 0,000 mm 0,0 UV-I 0 W/m² 16,0 °C 17,1 °C 0,0 km/h (0 Bft)
26.08.2019 21:42 17,1 °C 93 % 1015,4 hPa 0,0 mm 0,0 km/h (0 Bft) O 88 ° 0 min 0,000 mm 0,0 UV-I 0 W/m² 16,0 °C 17,1 °C 0,0 km/h (0 Bft)
26.08.2019 21:43 17,2 °C 93 % 1015,5 hPa 0,0 mm 0,0 km/h (0 Bft) O 88 ° 0 min 0,000 mm 0,0 UV-I 0 W/m² 16,1 °C 17,2 °C 0,0 km/h (0 Bft)
26.08.2019 21:44 17,2 °C 93 % 1015,5 hPa 0,0 mm 0,0 km/h (0 Bft) O 88 ° 0 min 0,000 mm 0,0 UV-I 0 W/m² 16,1 °C 17,2 °C 0,0 km/h (0 Bft)
26.08.2019 21:45 17,2 °C 93 % 1015,5 hPa 0,0 mm 0,0 km/h (0 Bft) O 88 ° 0 min 0,000 mm 0,0 UV-I 0 W/m² 16,1 °C 17,2 °C 0,0 km/h (0 Bft)
26.08.2019 21:46 17,2 °C 93 % 1015,5 hPa 0,0 mm 0,0 km/h (0 Bft) O 88 ° 0 min 0,000 mm 0,0 UV-I 0 W/m² 16,1 °C 17,2 °C 0,0 km/h (0 Bft)
26.08.2019 21:47 17,2 °C 93 % 1015,5 hPa 0,0 mm 0,0 km/h (0 Bft) O 88 ° 0 min 0,000 mm 0,0 UV-I 0 W/m² 16,1 °C 17,2 °C 0,0 km/h (0 Bft)
26.08.2019 21:48 17,2 °C 93 % 1015,5 hPa 0,0 mm 0,0 km/h (0 Bft) O 88 ° 0 min 0,000 mm 0,0 UV-I 0 W/m² 16,1 °C 17,2 °C 0,0 km/h (0 Bft)
26.08.2019 21:49 17,3 °C 93 % 1015,5 hPa 0,0 mm 0,0 km/h (0 Bft) O 88 ° 0 min 0,000 mm 0,0 UV-I 0 W/m² 16,2 °C 17,3 °C 0,0 km/h (0 Bft)
26.08.2019 21:50 17,3 °C 93 % 1015,5 hPa 0,0 mm 0,0 km/h (0 Bft) O 88 ° 0 min 0,000 mm 0,0 UV-I 0 W/m² 16,2 °C 17,3 °C 0,0 km/h (0 Bft)
26.08.2019 21:51 17,2 °C 93 % 1015,5 hPa 0,0 mm 0,0 km/h (0 Bft) O 88 ° 0 min 0,000 mm 0,0 UV-I 0 W/m² 16,1 °C 17,2 °C 0,0 km/h (0 Bft)
26.08.2019 21:52 17,2 °C 93 % 1015,5 hPa 0,0 mm 0,0 km/h (0 Bft) O 88 ° 0 min 0,000 mm 0,0 UV-I 0 W/m² 16,1 °C 17,2 °C 0,0 km/h (0 Bft)
26.08.2019 21:53 17,2 °C 93 % 1015,5 hPa 0,0 mm 0,0 km/h (0 Bft) O 88 ° 0 min 0,000 mm 0,0 UV-I 0 W/m² 16,1 °C 17,2 °C 0,0 km/h (0 Bft)
26.08.2019 21:54 17,2 °C 93 % 1015,5 hPa 0,0 mm 0,0 km/h (0 Bft) O 88 ° 0 min 0,000 mm 0,0 UV-I 0 W/m² 16,1 °C 17,2 °C 0,0 km/h (0 Bft)
26.08.2019 21:55 17,2 °C 93 % 1015,5 hPa 0,0 mm 0,0 km/h (0 Bft) O 88 ° 0 min 0,000 mm 0,0 UV-I 0 W/m² 16,1 °C 17,2 °C 0,0 km/h (0 Bft)
26.08.2019 21:56 17,3 °C 93 % 1015,5 hPa 0,0 mm 0,0 km/h (0 Bft) O 88 ° 0 min 0,000 mm 0,0 UV-I 0 W/m² 16,2 °C 17,3 °C 0,0 km/h (0 Bft)
26.08.2019 21:57 17,2 °C 93 % 1015,5 hPa 0,0 mm 0,0 km/h (0 Bft) O 88 ° 0 min 0,000 mm 0,0 UV-I 0 W/m² 16,1 °C 17,2 °C 0,0 km/h (0 Bft)
26.08.2019 21:58 17,2 °C 93 % 1015,5 hPa 0,0 mm 0,0 km/h (0 Bft) O 88 ° 0 min 0,000 mm 0,0 UV-I 0 W/m² 16,1 °C 17,2 °C 0,0 km/h (0 Bft)
26.08.2019 21:59 17,2 °C 93 % 1015,5 hPa 0,0 mm 0,0 km/h (0 Bft) O 88 ° 0 min 0,000 mm 0,0 UV-I 0 W/m² 16,1 °C 17,2 °C 0,0 km/h (0 Bft)
26.08.2019 22:00 17,2 °C 93 % 1015,5 hPa 0,0 mm 0,0 km/h (0 Bft) O 88 ° 0 min 0,000 mm 0,0 UV-I 0 W/m² 16,1 °C 17,2 °C 0,0 km/h (0 Bft)
26.08.2019 22:01 17,2 °C 93 % 1015,5 hPa 0,0 mm 0,0 km/h (0 Bft) O 88 ° 0 min 0,000 mm 0,0 UV-I 0 W/m² 16,1 °C 17,2 °C 0,0 km/h (0 Bft)
26.08.2019 22:02 17,1 °C 93 % 1015,5 hPa 0,0 mm 0,0 km/h (0 Bft) O 88 ° 0 min 0,000 mm 0,0 UV-I 0 W/m² 16,0 °C 17,1 °C 0,0 km/h (0 Bft)
26.08.2019 22:03 17,2 °C 93 % 1015,5 hPa 0,0 mm 0,0 km/h (0 Bft) O 88 ° 0 min 0,000 mm 0,0 UV-I 0 W/m² 16,1 °C 17,2 °C 0,0 km/h (0 Bft)
26.08.2019 22:04 17,1 °C 93 % 1015,6 hPa 0,0 mm 0,0 km/h (0 Bft) O 88 ° 0 min 0,000 mm 0,0 UV-I 0 W/m² 16,0 °C 17,1 °C 0,0 km/h (0 Bft)
26.08.2019 22:05 17,1 °C 93 % 1015,6 hPa 0,0 mm 0,0 km/h (0 Bft) O 88 ° 0 min 0,000 mm 0,0 UV-I 0 W/m² 16,0 °C 17,1 °C 0,0 km/h (0 Bft)
26.08.2019 22:06 17,1 °C 93 % 1015,6 hPa 0,0 mm 0,0 km/h (0 Bft) O 88 ° 0 min 0,000 mm 0,0 UV-I 0 W/m² 16,0 °C 17,1 °C 0,0 km/h (0 Bft)
26.08.2019 22:07 17,1 °C 93 % 1015,6 hPa 0,0 mm 0,0 km/h (0 Bft) O 88 ° 0 min 0,000 mm 0,0 UV-I 0 W/m² 16,0 °C 17,1 °C 0,0 km/h (0 Bft)
26.08.2019 22:08 17,1 °C 93 % 1015,6 hPa 0,0 mm 0,0 km/h (0 Bft) O 88 ° 0 min 0,000 mm 0,0 UV-I 0 W/m² 16,0 °C 17,1 °C 0,0 km/h (0 Bft)
26.08.2019 22:09 17,0 °C 93 % 1015,6 hPa 0,0 mm 0,0 km/h (0 Bft) O 88 ° 0 min 0,000 mm 0,0 UV-I 0 W/m² 15,9 °C 17,0 °C 0,0 km/h (0 Bft)
26.08.2019 22:10 17,0 °C 93 % 1015,7 hPa 0,0 mm 0,0 km/h (0 Bft) O 88 ° 0 min 0,000 mm 0,0 UV-I 0 W/m² 15,9 °C 17,0 °C 0,0 km/h (0 Bft)
26.08.2019 22:11 16,9 °C 93 % 1015,6 hPa 0,0 mm 0,0 km/h (0 Bft) O 88 ° 0 min 0,000 mm 0,0 UV-I 0 W/m² 15,8 °C 16,9 °C 0,0 km/h (0 Bft)
26.08.2019 22:12 16,9 °C 93 % 1015,7 hPa 0,0 mm 0,0 km/h (0 Bft) O 88 ° 0 min 0,000 mm 0,0 UV-I 0 W/m² 15,8 °C 16,9 °C 0,0 km/h (0 Bft)
26.08.2019 22:13 16,9 °C 93 % 1015,7 hPa 0,0 mm 0,0 km/h (0 Bft) O 88 ° 0 min 0,000 mm 0,0 UV-I 0 W/m² 15,8 °C 16,9 °C 0,0 km/h (0 Bft)
26.08.2019 22:14 16,9 °C 93 % 1015,8 hPa 0,0 mm 0,0 km/h (0 Bft) O 88 ° 0 min 0,000 mm 0,0 UV-I 0 W/m² 15,8 °C 16,9 °C 0,0 km/h (0 Bft)
26.08.2019 22:15 16,9 °C 93 % 1015,8 hPa 0,0 mm 0,0 km/h (0 Bft) O 88 ° 0 min 0,000 mm 0,0 UV-I 0 W/m² 15,8 °C 16,9 °C 0,0 km/h (0 Bft)
26.08.2019 22:16 16,9 °C 93 % 1015,8 hPa 0,0 mm 0,0 km/h (0 Bft) O 88 ° 0 min 0,000 mm 0,0 UV-I 0 W/m² 15,8 °C 16,9 °C 0,0 km/h (0 Bft)
26.08.2019 22:17 16,9 °C 93 % 1015,8 hPa 0,0 mm 0,0 km/h (0 Bft) O 88 ° 0 min 0,000 mm 0,0 UV-I 0 W/m² 15,8 °C 16,9 °C 0,0 km/h (0 Bft)
26.08.2019 22:18 16,9 °C 93 % 1015,8 hPa 0,0 mm 0,0 km/h (0 Bft) O 88 ° 0 min 0,000 mm 0,0 UV-I 0 W/m² 15,8 °C 16,9 °C 0,0 km/h (0 Bft)
26.08.2019 22:19 16,8 °C 93 % 1015,8 hPa 0,0 mm 0,0 km/h (0 Bft) O 88 ° 0 min 0,000 mm 0,0 UV-I 0 W/m² 15,7 °C 16,8 °C 0,0 km/h (0 Bft)
26.08.2019 22:20 16,8 °C 93 % 1015,8 hPa 0,0 mm 0,0 km/h (0 Bft) O 88 ° 0 min 0,000 mm 0,0 UV-I 0 W/m² 15,7 °C 16,8 °C 0,0 km/h (0 Bft)
26.08.2019 22:21 16,8 °C 93 % 1015,7 hPa 0,0 mm 0,0 km/h (0 Bft) O 88 ° 0 min 0,000 mm 0,0 UV-I 0 W/m² 15,7 °C 16,8 °C 0,0 km/h (0 Bft)
26.08.2019 22:22 16,8 °C 93 % 1015,7 hPa 0,0 mm 0,0 km/h (0 Bft) O 88 ° 0 min 0,000 mm 0,0 UV-I 0 W/m² 15,7 °C 16,8 °C 0,0 km/h (0 Bft)
26.08.2019 22:23 16,9 °C 93 % 1015,7 hPa 0,0 mm 0,0 km/h (0 Bft) O 88 ° 0 min 0,000 mm 0,0 UV-I 0 W/m² 15,8 °C 16,9 °C 0,0 km/h (0 Bft)
26.08.2019 22:24 16,9 °C 93 % 1015,8 hPa 0,0 mm 0,0 km/h (0 Bft) O 88 ° 0 min 0,000 mm 0,0 UV-I 0 W/m² 15,8 °C 16,9 °C 0,0 km/h (0 Bft)
26.08.2019 22:25 16,8 °C 93 % 1015,7 hPa 0,0 mm 0,0 km/h (0 Bft) O 88 ° 0 min 0,000 mm 0,0 UV-I 0 W/m² 15,7 °C 16,8 °C 0,0 km/h (0 Bft)
26.08.2019 22:26 16,8 °C 93 % 1015,7 hPa 0,0 mm 0,0 km/h (0 Bft) O 88 ° 0 min 0,000 mm 0,0 UV-I 0 W/m² 15,7 °C 16,8 °C 0,0 km/h (0 Bft)
26.08.2019 22:27 16,8 °C 93 % 1015,7 hPa 0,0 mm 0,0 km/h (0 Bft) O 88 ° 0 min 0,000 mm 0,0 UV-I 0 W/m² 15,7 °C 16,8 °C 0,0 km/h (0 Bft)
26.08.2019 22:28 16,7 °C 93 % 1015,7 hPa 0,0 mm 0,0 km/h (0 Bft) O 88 ° 0 min 0,000 mm 0,0 UV-I 0 W/m² 15,6 °C 16,7 °C 0,0 km/h (0 Bft)
26.08.2019 22:29 16,7 °C 93 % 1015,7 hPa 0,0 mm 0,0 km/h (0 Bft) O 88 ° 0 min 0,000 mm 0,0 UV-I 0 W/m² 15,6 °C 16,7 °C 0,0 km/h (0 Bft)
26.08.2019 22:30 16,7 °C 93 % 1015,7 hPa 0,0 mm 0,0 km/h (0 Bft) O 88 ° 0 min 0,000 mm 0,0 UV-I 0 W/m² 15,6 °C 16,7 °C 0,0 km/h (0 Bft)
26.08.2019 22:31 16,7 °C 93 % 1015,7 hPa 0,0 mm 0,0 km/h (0 Bft) O 88 ° 0 min 0,000 mm 0,0 UV-I 0 W/m² 15,6 °C 16,7 °C 0,0 km/h (0 Bft)
26.08.2019 22:32 16,6 °C 93 % 1015,8 hPa 0,0 mm 0,0 km/h (0 Bft) O 88 ° 0 min 0,000 mm 0,0 UV-I 0 W/m² 15,5 °C 16,6 °C 0,0 km/h (0 Bft)
26.08.2019 22:33 16,6 °C 93 % 1015,8 hPa 0,0 mm 0,0 km/h (0 Bft) O 88 ° 0 min 0,000 mm 0,0 UV-I 0 W/m² 15,5 °C 16,6 °C 0,0 km/h (0 Bft)
26.08.2019 22:34 16,6 °C 93 % 1015,8 hPa 0,0 mm 0,0 km/h (0 Bft) O 88 ° 0 min 0,000 mm 0,0 UV-I 0 W/m² 15,5 °C 16,6 °C 0,0 km/h (0 Bft)
26.08.2019 22:35 16,5 °C 93 % 1015,8 hPa 0,0 mm 0,0 km/h (0 Bft) O 88 ° 0 min 0,000 mm 0,0 UV-I 0 W/m² 15,4 °C 16,5 °C 0,0 km/h (0 Bft)
26.08.2019 22:36 16,5 °C 93 % 1015,8 hPa 0,0 mm 0,0 km/h (0 Bft) O 88 ° 0 min 0,000 mm 0,0 UV-I 0 W/m² 15,4 °C 16,5 °C 0,0 km/h (0 Bft)
26.08.2019 22:37 16,4 °C 93 % 1015,8 hPa 0,0 mm 0,0 km/h (0 Bft) O 88 ° 0 min 0,000 mm 0,0 UV-I 0 W/m² 15,3 °C 16,4 °C 0,0 km/h (0 Bft)
26.08.2019 22:38 16,3 °C 93 % 1015,8 hPa 0,0 mm 0,0 km/h (0 Bft) O 88 ° 0 min 0,000 mm 0,0 UV-I 0 W/m² 15,2 °C 16,3 °C 0,0 km/h (0 Bft)
26.08.2019 22:39 16,4 °C 93 % 1015,9 hPa 0,0 mm 0,0 km/h (0 Bft) O 88 ° 0 min 0,000 mm 0,0 UV-I 0 W/m² 15,3 °C 16,4 °C 0,0 km/h (0 Bft)
26.08.2019 22:40 16,4 °C 93 % 1015,8 hPa 0,0 mm 0,0 km/h (0 Bft) O 88 ° 0 min 0,000 mm 0,0 UV-I 0 W/m² 15,3 °C 16,4 °C 0,0 km/h (0 Bft)
26.08.2019 22:41 16,4 °C 94 % 1015,9 hPa 0,0 mm 0,0 km/h (0 Bft) O 88 ° 0 min 0,000 mm 0,0 UV-I 0 W/m² 15,4 °C 16,4 °C 0,0 km/h (0 Bft)
26.08.2019 22:42 16,4 °C 93 % 1015,9 hPa 0,0 mm 0,0 km/h (0 Bft) O 88 ° 0 min 0,000 mm 0,0 UV-I 0 W/m² 15,3 °C 16,4 °C 0,0 km/h (0 Bft)
26.08.2019 22:43 16,4 °C 94 % 1015,9 hPa 0,0 mm 0,0 km/h (0 Bft) O 88 ° 0 min 0,000 mm 0,0 UV-I 0 W/m² 15,4 °C 16,4 °C 0,0 km/h (0 Bft)
26.08.2019 22:44 16,4 °C 93 % 1015,9 hPa 0,0 mm 0,0 km/h (0 Bft) O 88 ° 0 min 0,000 mm 0,0 UV-I 0 W/m² 15,3 °C 16,4 °C 0,0 km/h (0 Bft)
26.08.2019 22:45 16,4 °C 93 % 1015,9 hPa 0,0 mm 0,0 km/h (0 Bft) O 88 ° 0 min 0,000 mm 0,0 UV-I 0 W/m² 15,3 °C 16,4 °C 0,0 km/h (0 Bft)
26.08.2019 22:46 16,4 °C 93 % 1015,9 hPa 0,0 mm 0,0 km/h (0 Bft) O 88 ° 0 min 0,000 mm 0,0 UV-I 0 W/m² 15,3 °C 16,4 °C 0,0 km/h (0 Bft)
26.08.2019 22:47 16,4 °C 94 % 1015,9 hPa 0,0 mm 0,0 km/h (0 Bft) O 88 ° 0 min 0,000 mm 0,0 UV-I 0 W/m² 15,4 °C 16,4 °C 0,0 km/h (0 Bft)
26.08.2019 22:48 16,3 °C 93 % 1015,8 hPa 0,0 mm 0,0 km/h (0 Bft) O 88 ° 0 min 0,000 mm 0,0 UV-I 0 W/m² 15,2 °C 16,3 °C 0,0 km/h (0 Bft)
26.08.2019 22:49 16,3 °C 94 % 1015,8 hPa 0,0 mm 0,0 km/h (0 Bft) O 88 ° 0 min 0,000 mm 0,0 UV-I 0 W/m² 15,3 °C 16,3 °C 0,0 km/h (0 Bft)
26.08.2019 22:50 16,3 °C 94 % 1015,9 hPa 0,0 mm 0,0 km/h (0 Bft) O 88 ° 0 min 0,000 mm 0,0 UV-I 0 W/m² 15,3 °C 16,3 °C 0,0 km/h (0 Bft)
26.08.2019 22:51 16,3 °C 94 % 1015,8 hPa 0,0 mm 0,0 km/h (0 Bft) O 88 ° 0 min 0,000 mm 0,0 UV-I 0 W/m² 15,3 °C 16,3 °C 0,0 km/h (0 Bft)
26.08.2019 22:52 16,3 °C 94 % 1015,8 hPa 0,0 mm 0,0 km/h (0 Bft) O 88 ° 0 min 0,000 mm 0,0 UV-I 0 W/m² 15,3 °C 16,3 °C 0,0 km/h (0 Bft)
26.08.2019 22:53 16,3 °C 94 % 1015,9 hPa 0,0 mm 0,0 km/h (0 Bft) O 88 ° 0 min 0,000 mm 0,0 UV-I 0 W/m² 15,3 °C 16,3 °C 0,0 km/h (0 Bft)
26.08.2019 22:54 16,3 °C 94 % 1015,9 hPa 0,0 mm 0,0 km/h (0 Bft) O 88 ° 0 min 0,000 mm 0,0 UV-I 0 W/m² 15,3 °C 16,3 °C 0,0 km/h (0 Bft)
26.08.2019 22:55 16,3 °C 94 % 1015,8 hPa 0,0 mm 0,0 km/h (0 Bft) O 88 ° 0 min 0,000 mm 0,0 UV-I 0 W/m² 15,3 °C 16,3 °C 0,0 km/h (0 Bft)
26.08.2019 22:56 16,3 °C 94 % 1015,9 hPa 0,0 mm 0,0 km/h (0 Bft) O 88 ° 0 min 0,000 mm 0,0 UV-I 0 W/m² 15,3 °C 16,3 °C 0,0 km/h (0 Bft)
26.08.2019 22:57 16,3 °C 94 % 1015,9 hPa 0,0 mm 0,0 km/h (0 Bft) O 88 ° 0 min 0,000 mm 0,0 UV-I 0 W/m² 15,3 °C 16,3 °C 0,0 km/h (0 Bft)
26.08.2019 22:58 16,2 °C 93 % 1015,9 hPa 0,0 mm 0,0 km/h (0 Bft) O 88 ° 0 min 0,000 mm 0,0 UV-I 0 W/m² 15,1 °C 16,2 °C 0,0 km/h (0 Bft)
26.08.2019 22:59 16,2 °C 94 % 1015,9 hPa 0,0 mm 0,0 km/h (0 Bft) O 88 ° 0 min 0,000 mm 0,0 UV-I 0 W/m² 15,2 °C 16,2 °C 0,0 km/h (0 Bft)
26.08.2019 23:00 16,2 °C 94 % 1015,8 hPa 0,0 mm 0,0 km/h (0 Bft) O 88 ° 0 min 0,000 mm 0,0 UV-I 0 W/m² 15,2 °C 16,2 °C 0,0 km/h (0 Bft)
26.08.2019 23:01 16,1 °C 94 % 1015,8 hPa 0,0 mm 0,0 km/h (0 Bft) O 88 ° 0 min 0,000 mm 0,0 UV-I 0 W/m² 15,1 °C 16,1 °C 0,0 km/h (0 Bft)
26.08.2019 23:02 16,1 °C 94 % 1015,8 hPa 0,0 mm 0,0 km/h (0 Bft) O 88 ° 0 min 0,000 mm 0,0 UV-I 0 W/m² 15,1 °C 16,1 °C 0,0 km/h (0 Bft)
26.08.2019 23:03 16,2 °C 94 % 1015,8 hPa 0,0 mm 0,0 km/h (0 Bft) O 88 ° 0 min 0,000 mm 0,0 UV-I 0 W/m² 15,2 °C 16,2 °C 0,0 km/h (0 Bft)
26.08.2019 23:04 16,1 °C 94 % 1015,8 hPa 0,0 mm 0,0 km/h (0 Bft) O 88 ° 0 min 0,000 mm 0,0 UV-I 0 W/m² 15,1 °C 16,1 °C 0,0 km/h (0 Bft)
26.08.2019 23:05 16,0 °C 94 % 1015,8 hPa 0,0 mm 0,0 km/h (0 Bft) O 88 ° 0 min 0,000 mm 0,0 UV-I 0 W/m² 15,0 °C 16,0 °C 0,0 km/h (0 Bft)
26.08.2019 23:06 15,9 °C 94 % 1015,8 hPa 0,0 mm 0,0 km/h (0 Bft) O 88 ° 0 min 0,000 mm 0,0 UV-I 0 W/m² 14,9 °C 15,9 °C 0,0 km/h (0 Bft)
26.08.2019 23:07 15,8 °C 94 % 1015,7 hPa 0,0 mm 0,0 km/h (0 Bft) O 88 ° 0 min 0,000 mm 0,0 UV-I 0 W/m² 14,8 °C 15,8 °C 0,0 km/h (0 Bft)
26.08.2019 23:08 15,9 °C 94 % 1015,7 hPa 0,0 mm 0,0 km/h (0 Bft) O 88 ° 0 min 0,000 mm 0,0 UV-I 0 W/m² 14,9 °C 15,9 °C 0,0 km/h (0 Bft)
26.08.2019 23:09 15,9 °C 94 % 1015,7 hPa 0,0 mm 0,0 km/h (0 Bft) O 88 ° 0 min 0,000 mm 0,0 UV-I 0 W/m² 14,9 °C 15,9 °C 0,0 km/h (0 Bft)
26.08.2019 23:10 15,9 °C 94 % 1015,7 hPa 0,0 mm 0,0 km/h (0 Bft) O 88 ° 0 min 0,000 mm 0,0 UV-I 0 W/m² 14,9 °C 15,9 °C 0,0 km/h (0 Bft)
26.08.2019 23:11 15,9 °C 94 % 1015,6 hPa 0,0 mm 0,0 km/h (0 Bft) O 88 ° 0 min 0,000 mm 0,0 UV-I 0 W/m² 14,9 °C 15,9 °C 0,0 km/h (0 Bft)
26.08.2019 23:12 15,9 °C 94 % 1015,7 hPa 0,0 mm 0,0 km/h (0 Bft) O 88 ° 0 min 0,000 mm 0,0 UV-I 0 W/m² 14,9 °C 15,9 °C 0,0 km/h (0 Bft)
26.08.2019 23:13 15,9 °C 94 % 1015,7 hPa 0,0 mm 0,0 km/h (0 Bft) O 88 ° 0 min 0,000 mm 0,0 UV-I 0 W/m² 14,9 °C 15,9 °C 0,0 km/h (0 Bft)
26.08.2019 23:14 15,9 °C 94 % 1015,7 hPa 0,0 mm 0,0 km/h (0 Bft) O 88 ° 0 min 0,000 mm 0,0 UV-I 0 W/m² 14,9 °C 15,9 °C 0,0 km/h (0 Bft)
26.08.2019 23:15 15,8 °C 94 % 1015,7 hPa 0,0 mm 0,0 km/h (0 Bft) O 88 ° 0 min 0,000 mm 0,0 UV-I 0 W/m² 14,8 °C 15,8 °C 0,0 km/h (0 Bft)
26.08.2019 23:16 15,8 °C 94 % 1015,7 hPa 0,0 mm 0,0 km/h (0 Bft) O 88 ° 0 min 0,000 mm 0,0 UV-I 0 W/m² 14,8 °C 15,8 °C 0,0 km/h (0 Bft)
26.08.2019 23:17 15,8 °C 94 % 1015,7 hPa 0,0 mm 0,0 km/h (0 Bft) O 88 ° 0 min 0,000 mm 0,0 UV-I 0 W/m² 14,8 °C 15,8 °C 0,0 km/h (0 Bft)
26.08.2019 23:18 15,7 °C 94 % 1015,7 hPa 0,0 mm 0,0 km/h (0 Bft) O 88 ° 0 min 0,000 mm 0,0 UV-I 0 W/m² 14,7 °C 15,7 °C 0,0 km/h (0 Bft)
26.08.2019 23:19 15,7 °C 94 % 1015,7 hPa 0,0 mm 0,0 km/h (0 Bft) O 88 ° 0 min 0,000 mm 0,0 UV-I 0 W/m² 14,7 °C 15,7 °C 0,0 km/h (0 Bft)
26.08.2019 23:20 15,6 °C 94 % 1015,7 hPa 0,0 mm 0,0 km/h (0 Bft) O 88 ° 0 min 0,000 mm 0,0 UV-I 0 W/m² 14,6 °C 15,6 °C 0,0 km/h (0 Bft)
26.08.2019 23:21 15,6 °C 94 % 1015,7 hPa 0,0 mm 0,0 km/h (0 Bft) O 88 ° 0 min 0,000 mm 0,0 UV-I 0 W/m² 14,6 °C 15,6 °C 0,0 km/h (0 Bft)
26.08.2019 23:22 15,6 °C 94 % 1015,7 hPa 0,0 mm 0,0 km/h (0 Bft) O 88 ° 0 min 0,000 mm 0,0 UV-I 0 W/m² 14,6 °C 15,6 °C 0,0 km/h (0 Bft)
26.08.2019 23:23 15,6 °C 94 % 1015,7 hPa 0,0 mm 0,0 km/h (0 Bft) O 88 ° 0 min 0,000 mm 0,0 UV-I 0 W/m² 14,6 °C 15,6 °C 0,0 km/h (0 Bft)
26.08.2019 23:24 15,5 °C 94 % 1015,8 hPa 0,0 mm 0,0 km/h (0 Bft) O 88 ° 0 min 0,000 mm 0,0 UV-I 0 W/m² 14,5 °C 15,5 °C 0,0 km/h (0 Bft)
26.08.2019 23:25 15,6 °C 94 % 1015,8 hPa 0,0 mm 0,0 km/h (0 Bft) O 88 ° 0 min 0,000 mm 0,0 UV-I 0 W/m² 14,6 °C 15,6 °C 0,0 km/h (0 Bft)
26.08.2019 23:26 15,5 °C 94 % 1015,8 hPa 0,0 mm 0,0 km/h (0 Bft) O 88 ° 0 min 0,000 mm 0,0 UV-I 0 W/m² 14,5 °C 15,5 °C 0,0 km/h (0 Bft)
26.08.2019 23:27 15,5 °C 94 % 1015,8 hPa 0,0 mm 0,0 km/h (0 Bft) O 88 ° 0 min 0,000 mm 0,0 UV-I 0 W/m² 14,5 °C 15,5 °C 0,0 km/h (0 Bft)
26.08.2019 23:28 15,6 °C 94 % 1015,8 hPa 0,0 mm 0,0 km/h (0 Bft) O 88 ° 0 min 0,000 mm 0,0 UV-I 0 W/m² 14,6 °C 15,6 °C 0,0 km/h (0 Bft)
26.08.2019 23:29 15,6 °C 94 % 1015,8 hPa 0,0 mm 0,0 km/h (0 Bft) O 88 ° 0 min 0,000 mm 0,0 UV-I 0 W/m² 14,6 °C 15,6 °C 0,0 km/h (0 Bft)
26.08.2019 23:30 15,5 °C 94 % 1015,8 hPa 0,0 mm 0,0 km/h (0 Bft) O 88 ° 0 min 0,000 mm 0,0 UV-I 0 W/m² 14,5 °C 15,5 °C 0,0 km/h (0 Bft)
26.08.2019 23:31 15,6 °C 94 % 1015,8 hPa 0,0 mm 0,0 km/h (0 Bft) O 88 ° 0 min 0,000 mm 0,0 UV-I 0 W/m² 14,6 °C 15,6 °C 0,0 km/h (0 Bft)
26.08.2019 23:32 15,5 °C 94 % 1015,8 hPa 0,0 mm 0,0 km/h (0 Bft) O 88 ° 0 min 0,000 mm 0,0 UV-I 0 W/m² 14,5 °C 15,5 °C 0,0 km/h (0 Bft)
26.08.2019 23:33 15,4 °C 94 % 1015,7 hPa 0,0 mm 0,0 km/h (0 Bft) O 88 ° 0 min 0,000 mm 0,0 UV-I 0 W/m² 14,4 °C 15,4 °C 0,0 km/h (0 Bft)
26.08.2019 23:34 15,4 °C 94 % 1015,8 hPa 0,0 mm 0,0 km/h (0 Bft) O 88 ° 0 min 0,000 mm 0,0 UV-I 0 W/m² 14,4 °C 15,4 °C 0,0 km/h (0 Bft)
26.08.2019 23:35 15,4 °C 94 % 1015,8 hPa 0,0 mm 0,0 km/h (0 Bft) O 88 ° 0 min 0,000 mm 0,0 UV-I 0 W/m² 14,4 °C 15,4 °C 0,0 km/h (0 Bft)
26.08.2019 23:36 15,4 °C 94 % 1015,7 hPa 0,0 mm 0,0 km/h (0 Bft) O 88 ° 0 min 0,000 mm 0,0 UV-I 0 W/m² 14,4 °C 15,4 °C 0,0 km/h (0 Bft)
26.08.2019 23:37 15,4 °C 94 % 1015,8 hPa 0,0 mm 0,0 km/h (0 Bft) O 88 ° 0 min 0,000 mm 0,0 UV-I 0 W/m² 14,4 °C 15,4 °C 0,0 km/h (0 Bft)
26.08.2019 23:38 15,4 °C 94 % 1015,7 hPa 0,0 mm 0,0 km/h (0 Bft) O 88 ° 0 min 0,000 mm 0,0 UV-I 0 W/m² 14,4 °C 15,4 °C 0,0 km/h (0 Bft)
26.08.2019 23:39 15,3 °C 94 % 1015,7 hPa 0,0 mm 0,0 km/h (0 Bft) O 88 ° 0 min 0,000 mm 0,0 UV-I 0 W/m² 14,3 °C 15,3 °C 0,0 km/h (0 Bft)
26.08.2019 23:40 15,3 °C 94 % 1015,7 hPa 0,0 mm 0,0 km/h (0 Bft) O 88 ° 0 min 0,000 mm 0,0 UV-I 0 W/m² 14,3 °C 15,3 °C 0,0 km/h (0 Bft)
26.08.2019 23:41 15,3 °C 94 % 1015,7 hPa 0,0 mm 0,0 km/h (0 Bft) O 88 ° 0 min 0,000 mm 0,0 UV-I 0 W/m² 14,3 °C 15,3 °C 0,0 km/h (0 Bft)
26.08.2019 23:42 15,3 °C 94 % 1015,8 hPa 0,0 mm 0,0 km/h (0 Bft) O 88 ° 0 min 0,000 mm 0,0 UV-I 0 W/m² 14,3 °C 15,3 °C 0,0 km/h (0 Bft)
26.08.2019 23:43 15,3 °C 95 % 1015,8 hPa 0,0 mm 0,0 km/h (0 Bft) O 88 ° 0 min 0,000 mm 0,0 UV-I 0 W/m² 14,5 °C 15,3 °C 0,0 km/h (0 Bft)
26.08.2019 23:44 15,3 °C 95 % 1015,8 hPa 0,0 mm 0,0 km/h (0 Bft) O 88 ° 0 min 0,000 mm 0,0 UV-I 0 W/m² 14,5 °C 15,3 °C 0,0 km/h (0 Bft)
26.08.2019 23:45 15,3 °C 95 % 1015,7 hPa 0,0 mm 0,0 km/h (0 Bft) O 88 ° 0 min 0,000 mm 0,0 UV-I 0 W/m² 14,5 °C 15,3 °C 0,0 km/h (0 Bft)
26.08.2019 23:46 15,3 °C 95 % 1015,8 hPa 0,0 mm 0,0 km/h (0 Bft) O 88 ° 0 min 0,000 mm 0,0 UV-I 0 W/m² 14,5 °C 15,3 °C 0,0 km/h (0 Bft)
26.08.2019 23:47 15,3 °C 95 % 1015,7 hPa 0,0 mm 0,0 km/h (0 Bft) O 88 ° 0 min 0,000 mm 0,0 UV-I 0 W/m² 14,5 °C 15,3 °C 0,0 km/h (0 Bft)
26.08.2019 23:48 15,3 °C 95 % 1015,7 hPa 0,0 mm 0,0 km/h (0 Bft) O 88 ° 0 min 0,000 mm 0,0 UV-I 0 W/m² 14,5 °C 15,3 °C 0,0 km/h (0 Bft)
26.08.2019 23:49 15,3 °C 95 % 1015,7 hPa 0,0 mm 0,0 km/h (0 Bft) O 88 ° 0 min 0,000 mm 0,0 UV-I 0 W/m² 14,5 °C 15,3 °C 0,0 km/h (0 Bft)
26.08.2019 23:50 15,3 °C 95 % 1015,7 hPa 0,0 mm 0,0 km/h (0 Bft) O 88 ° 0 min 0,000 mm 0,0 UV-I 0 W/m² 14,5 °C 15,3 °C 0,0 km/h (0 Bft)
26.08.2019 23:51 15,3 °C 95 % 1015,8 hPa 0,0 mm 0,0 km/h (0 Bft) O 88 ° 0 min 0,000 mm 0,0 UV-I 0 W/m² 14,5 °C 15,3 °C 0,0 km/h (0 Bft)
26.08.2019 23:52 15,3 °C 95 % 1015,7 hPa 0,0 mm 0,0 km/h (0 Bft) O 88 ° 0 min 0,000 mm 0,0 UV-I 0 W/m² 14,5 °C 15,3 °C 0,0 km/h (0 Bft)
26.08.2019 23:53 15,3 °C 95 % 1015,7 hPa 0,0 mm 0,0 km/h (0 Bft) O 88 ° 0 min 0,000 mm 0,0 UV-I 0 W/m² 14,5 °C 15,3 °C 0,0 km/h (0 Bft)
26.08.2019 23:54 15,3 °C 95 % 1015,7 hPa 0,0 mm 0,0 km/h (0 Bft) O 88 ° 0 min 0,000 mm 0,0 UV-I 0 W/m² 14,5 °C 15,3 °C 0,0 km/h (0 Bft)
26.08.2019 23:55 15,3 °C 95 % 1015,7 hPa 0,0 mm 0,0 km/h (0 Bft) O 88 ° 0 min 0,000 mm 0,0 UV-I 0 W/m² 14,5 °C 15,3 °C 0,0 km/h (0 Bft)
26.08.2019 23:56 15,3 °C 95 % 1015,7 hPa 0,0 mm 0,0 km/h (0 Bft) O 88 ° 0 min 0,000 mm 0,0 UV-I 0 W/m² 14,5 °C 15,3 °C 0,0 km/h (0 Bft)
26.08.2019 23:57 15,3 °C 95 % 1015,7 hPa 0,0 mm 0,0 km/h (0 Bft) O 88 ° 0 min 0,000 mm 0,0 UV-I 0 W/m² 14,5 °C 15,3 °C 0,0 km/h (0 Bft)
26.08.2019 23:58 15,3 °C 95 % 1015,7 hPa 0,0 mm 0,0 km/h (0 Bft) O 88 ° 0 min 0,000 mm 0,0 UV-I 0 W/m² 14,5 °C 15,3 °C 0,0 km/h (0 Bft)
26.08.2019 23:59 15,3 °C 95 % 1015,7 hPa 0,0 mm 0,0 km/h (0 Bft) O 88 ° 0 min 0,000 mm 0,0 UV-I 0 W/m² 14,5 °C 15,3 °C 0,0 km/h (0 Bft)
_ Min-Zeit 06:39 15:32 20:12 - 23:59 - - - - - - 06:15 06:39 23:59
Minimum _ 12,7 °C 66 % 1015,1 hPa - 0,0 km/h (0 Bft) - - - - - - 12,0 °C 12,7 °C 0,0 km/h (0 Bft)
_ Max-Zeit 15:39 08:15 01:24 11:30 12:46 - - 16:04 13:01 13:42 13:06 15:38 15:39 13:10
Maximum _ 24,6 °C 96 % 1017,6 hPa 0,2 mm 9,9 km/h
NO (2 Bft)
- - 1 min 0,483 mm 5,9 UV-I 930 W/m² 19,6 °C 24,6 °C 16,1 km/h
N-NO (3 Bft)
Durchschnitt _ 18,2 °C 86 % 1016,3 hPa #2,0 mm 0,6 km/h (0 Bft) NO - #3:59 h #2,946 mm 3,2 UV-I 204 W/m² 15,7 °C 18,2 °C 1,2 km/h (1 Bft)